[[{"header":{"parameterUnit":"m.s-1","parameterCategory":1,"la1":30.6,"la2":29.2853,"lo1":-89.7004,"lo2":-87.6739,"dy":0.0162,"dx":0.0183,"nx":112,"ny":82,"refTime":"2026-05-22T12:00:00:Z","depth":0,"parameterNumber":2,"parameterNumberName":"U-component_of_WINDS"},"data":[0.0,0.0,0.0,0.0,0.0,0.0,0.0,0.0,0.0,0.0,0.0,0.0,0.0,0.0,0.0,0.0,0.0,0.0,0.0,0.0,0.0,0.0,0.0,0.0,0.0,0.0,0.0,0.0,0.0,0.0,0.0,0.0,0.0,0.0,0.0,0.0,0.0,0.0,0.0,0.0,0.0,0.0,0.0,0.0,0.0,0.0,0.0,0.0,0.0,0.0,0.0,0.0,0.0,0.0,0.0,0.0,0.0,0.0,0.0,0.0,0.0,0.0,0.0,0.0,0.0,0.0,0.0,0.0,0.0,0.0,0.0,0.0,0.0,0.0,0.0,0.0,0.0,0.0,0.0,0.0,0.0,0.0,0.0,0.0,0.0,0.0,0.0,0.0,0.0,0.0,-4.0818,-4.4114,-4.6395,-4.712,-4.5599,-4.4621,-4.2846,-3.9948,0.0,0.0,0.0,0.0,0.0,0.0,0.0,0.0,0.0,0.0,0.0,0.0,0.0,0.0,0.0,0.0,0.0,0.0,0.0,0.0,0.0,0.0,0.0,0.0,0.0,0.0,0.0,0.0,0.0,0.0,0.0,0.0,0.0,0.0,0.0,0.0,0.0,0.0,0.0,0.0,0.0,0.0,0.0,0.0,0.0,0.0,0.0,0.0,0.0,0.0,0.0,0.0,0.0,0.0,0.0,0.0,0.0,0.0,0.0,0.0,0.0,0.0,0.0,0.0,0.0,0.0,0.0,0.0,0.0,0.0,0.0,0.0,0.0,0.0,0.0,0.0,0.0,0.0,0.0,0.0,0.0,0.0,0.0,0.0,0.0,0.0,0.0,0.0,0.0,0.0,0.0,0.0,0.0,0.0,0.0,0.0,0.0,0.0,0.0,0.0,0.0,0.0,0.0,0.0,-4.1832,-4.5707,-4.7083,-4.7337,-4.6395,-4.4947,-4.3317,-4.1451,0.0,0.0,0.0,0.0,0.0,0.0,0.0,0.0,0.0,0.0,0.0,0.0,0.0,0.0,0.0,0.0,0.0,0.0,0.0,0.0,0.0,0.0,0.0,0.0,0.0,0.0,0.0,0.0,0.0,0.0,0.0,0.0,0.0,0.0,0.0,0.0,0.0,0.0,0.0,0.0,0.0,0.0,0.0,0.0,0.0,0.0,0.0,0.0,0.0,0.0,0.0,0.0,0.0,0.0,0.0,0.0,0.0,0.0,0.0,0.0,0.0,0.0,0.0,0.0,0.0,0.0,0.0,0.0,0.0,0.0,0.0,0.0,0.0,0.0,0.0,0.0,0.0,0.0,0.0,0.0,0.0,0.0,0.0,0.0,0.0,0.0,0.0,0.0,0.0,0.0,0.0,0.0,0.0,0.0,0.0,0.0,0.0,0.0,0.0,0.0,0.0,0.0,0.0,-4.2629,-4.5128,-4.6975,-4.788,-4.7844,-4.6613,-4.5019,-4.3244,-4.1162,-3.843,0.0,0.0,0.0,0.0,0.0,0.0,0.0,0.0,0.0,0.0,0.0,0.0,0.0,0.0,0.0,0.0,0.0,0.0,0.0,0.0,0.0,0.0,0.0,0.0,0.0,0.0,0.0,0.0,0.0,0.0,0.0,0.0,0.0,0.0,0.0,0.0,0.0,0.0,0.0,0.0,0.0,0.0,0.0,0.0,0.0,0.0,0.0,0.0,0.0,0.0,0.0,0.0,0.0,0.0,0.0,0.0,0.0,0.0,0.0,0.0,0.0,0.0,0.0,0.0,0.0,0.0,0.0,0.0,0.0,0.0,0.0,0.0,0.0,0.0,0.0,0.0,0.0,0.0,0.0,0.0,0.0,0.0,0.0,0.0,0.0,0.0,0.0,0.0,0.0,0.0,0.0,0.0,0.0,0.0,0.0,0.0,0.0,0.0,0.0,0.0,0.0,0.0,-4.547,-4.7968,-4.7968,-4.8511,-4.833,-4.6902,-4.5128,-4.3063,-4.0655,-3.8282,0.0,0.0,0.0,0.0,0.0,0.0,0.0,0.0,0.0,0.0,0.0,0.0,0.0,0.0,0.0,0.0,0.0,0.0,0.0,0.0,0.0,0.0,0.0,0.0,0.0,0.0,0.0,0.0,0.0,0.0,0.0,0.0,0.0,0.0,0.0,0.0,0.0,0.0,0.0,0.0,0.0,0.0,0.0,0.0,0.0,0.0,0.0,0.0,0.0,0.0,0.0,0.0,0.0,0.0,0.0,0.0,0.0,0.0,0.0,0.0,0.0,0.0,0.0,0.0,0.0,0.0,0.0,0.0,0.0,0.0,0.0,0.0,0.0,0.0,0.0,0.0,0.0,0.0,0.0,0.0,0.0,0.0,0.0,0.0,0.0,0.0,0.0,0.0,0.0,0.0,0.0,0.0,0.0,0.0,0.0,0.0,0.0,0.0,0.0,0.0,0.0,0.0,-4.6323,-4.88,-4.88,-4.8873,-4.8547,-4.7678,-4.5454,-4.3063,-4.0655,-3.8282,0.0,0.0,0.0,0.0,0.0,0.0,0.0,0.0,0.0,0.0,0.0,0.0,0.0,0.0,0.0,0.0,0.0,0.0,0.0,0.0,0.0,0.0,0.0,0.0,0.0,0.0,0.0,0.0,0.0,0.0,0.0,0.0,0.0,0.0,0.0,0.0,0.0,0.0,0.0,0.0,0.0,0.0,0.0,0.0,0.0,0.0,0.0,0.0,0.0,0.0,0.0,0.0,0.0,0.0,0.0,0.0,0.0,0.0,0.0,0.0,0.0,0.0,0.0,0.0,0.0,0.0,0.0,0.0,0.0,0.0,0.0,0.0,0.0,0.0,0.0,0.0,0.0,0.0,0.0,0.0,0.0,0.0,0.0,0.0,0.0,0.0,0.0,0.0,0.0,0.0,0.0,0.0,0.0,0.0,0.0,0.0,0.0,0.0,0.0,0.0,0.0,0.0,-4.7156,-4.9836,-5.0343,-5.0416,-4.9828,-4.8461,-4.5637,-4.3087,-4.1137,0.0,0.0,0.0,0.0,0.0,0.0,0.0,0.0,0.0,0.0,0.0,0.0,0.0,0.0,0.0,0.0,0.0,0.0,0.0,0.0,0.0,0.0,0.0,0.0,0.0,0.0,0.0,0.0,0.0,0.0,0.0,0.0,0.0,0.0,0.0,0.0,0.0,0.0,0.0,0.0,0.0,0.0,0.0,0.0,0.0,0.0,0.0,0.0,0.0,0.0,0.0,0.0,0.0,0.0,0.0,0.0,0.0,0.0,0.0,0.0,0.0,0.0,0.0,0.0,0.0,0.0,0.0,0.0,0.0,0.0,0.0,0.0,0.0,0.0,0.0,0.0,0.0,0.0,0.0,0.0,0.0,0.0,0.0,0.0,0.0,0.0,0.0,0.0,0.0,0.0,0.0,0.0,0.0,0.0,0.0,0.0,0.0,0.0,0.0,0.0,0.0,0.0,-4.3788,-4.7611,-5.0401,-5.1212,-5.1285,-5.0566,-4.8784,-4.5809,-4.3115,-4.0879,0.0,0.0,0.0,0.0,0.0,0.0,0.0,0.0,0.0,0.0,0.0,0.0,0.0,0.0,0.0,0.0,0.0,0.0,0.0,0.0,0.0,0.0,0.0,0.0,0.0,0.0,0.0,0.0,0.0,0.0,0.0,0.0,0.0,0.0,0.0,0.0,0.0,0.0,0.0,0.0,0.0,0.0,0.0,0.0,0.0,0.0,0.0,0.0,0.0,0.0,0.0,0.0,0.0,0.0,0.0,0.0,0.0,0.0,0.0,0.0,0.0,0.0,0.0,0.0,0.0,0.0,0.0,0.0,0.0,0.0,0.0,0.0,0.0,0.0,0.0,0.0,0.0,0.0,0.0,0.0,0.0,0.0,0.0,0.0,0.0,0.0,0.0,0.0,0.0,0.0,0.0,0.0,0.0,0.0,0.0,0.0,0.0,0.0,0.0,0.0,0.0,0.0,-4.3788,-4.7627,-5.0401,-5.1212,-5.1285,-5.0543,-4.8673,-4.6118,-4.3166,0.0,0.0,0.0,0.0,0.0,0.0,0.0,0.0,0.0,0.0,0.0,0.0,0.0,0.0,0.0,0.0,0.0,0.0,0.0,0.0,0.0,0.0,0.0,0.0,0.0,0.0,0.0,0.0,0.0,0.0,0.0,0.0,0.0,0.0,0.0,0.0,0.0,0.0,0.0,0.0,0.0,0.0,0.0,0.0,0.0,0.0,0.0,0.0,0.0,0.0,0.0,0.0,0.0,0.0,0.0,0.0,0.0,0.0,0.0,0.0,0.0,0.0,0.0,0.0,0.0,0.0,0.0,0.0,0.0,0.0,0.0,0.0,0.0,0.0,0.0,0.0,0.0,0.0,0.0,0.0,0.0,0.0,0.0,0.0,0.0,0.0,0.0,0.0,0.0,0.0,0.0,0.0,0.0,0.0,0.0,0.0,0.0,0.0,0.0,0.0,0.0,0.0,0.0,-4.4548,-4.7953,-5.0574,-5.187,-5.1909,-5.1071,-4.9091,-4.6471,-4.3767,-4.0933,0.0,0.0,0.0,0.0,0.0,0.0,0.0,0.0,0.0,0.0,0.0,0.0,0.0,0.0,0.0,0.0,0.0,0.0,0.0,0.0,0.0,0.0,0.0,0.0,0.0,0.0,0.0,0.0,0.0,0.0,0.0,0.0,0.0,0.0,0.0,0.0,0.0,0.0,0.0,0.0,0.0,0.0,0.0,0.0,0.0,0.0,0.0,0.0,0.0,0.0,0.0,0.0,0.0,0.0,0.0,0.0,0.0,0.0,0.0,0.0,0.0,0.0,0.0,0.0,0.0,0.0,0.0,0.0,0.0,0.0,0.0,0.0,0.0,0.0,0.0,0.0,0.0,0.0,0.0,0.0,0.0,0.0,0.0,0.0,0.0,0.0,0.0,0.0,0.0,0.0,0.0,0.0,0.0,0.0,0.0,0.0,0.0,0.0,0.0,0.0,0.0,0.0,-4.4914,-4.8119,-5.0638,-5.2078,-5.2018,-5.1104,-4.9022,-4.6625,-4.4007,-4.1151,0.0,0.0,0.0,0.0,0.0,0.0,0.0,0.0,0.0,0.0,0.0,0.0,0.0,0.0,0.0,0.0,0.0,0.0,0.0,0.0,0.0,0.0,0.0,0.0,0.0,0.0,0.0,0.0,0.0,0.0,0.0,0.0,0.0,0.0,0.0,0.0,0.0,0.0,0.0,0.0,0.0,0.0,0.0,0.0,0.0,0.0,0.0,0.0,0.0,0.0,0.0,0.0,0.0,0.0,0.0,0.0,0.0,0.0,0.0,0.0,0.0,0.0,0.0,0.0,0.0,0.0,0.0,0.0,0.0,0.0,0.0,0.0,0.0,0.0,0.0,0.0,0.0,0.0,0.0,0.0,0.0,0.0,0.0,0.0,0.0,0.0,0.0,0.0,0.0,0.0,0.0,0.0,0.0,0.0,0.0,0.0,0.0,0.0,0.0,0.0,0.0,0.0,-4.5081,-4.8176,-5.0593,-5.1898,-5.1736,-5.0683,-4.8626,-4.6595,-4.4036,-4.0681,0.0,0.0,0.0,0.0,0.0,0.0,0.0,0.0,0.0,0.0,0.0,0.0,0.0,0.0,0.0,0.0,0.0,0.0,0.0,0.0,0.0,0.0,0.0,0.0,0.0,0.0,0.0,0.0,0.0,0.0,0.0,0.0,0.0,0.0,0.0,0.0,0.0,0.0,0.0,0.0,0.0,0.0,0.0,0.0,0.0,0.0,0.0,0.0,0.0,0.0,0.0,0.0,0.0,0.0,0.0,0.0,0.0,0.0,0.0,0.0,-4.0072,-3.9596,0.0,0.0,0.0,0.0,0.0,0.0,0.0,0.0,0.0,0.0,0.0,0.0,0.0,0.0,0.0,0.0,0.0,0.0,0.0,0.0,0.0,0.0,0.0,0.0,0.0,0.0,0.0,0.0,0.0,0.0,0.0,0.0,0.0,0.0,0.0,0.0,0.0,0.0,0.0,0.0,-4.578,-4.8323,-5.0257,-5.1494,-5.1228,-5.0171,-4.8178,-4.6776,-4.4365,-4.0576,-3.778,0.0,0.0,0.0,0.0,0.0,0.0,0.0,0.0,0.0,0.0,0.0,0.0,0.0,0.0,0.0,0.0,0.0,0.0,0.0,0.0,0.0,0.0,0.0,0.0,0.0,0.0,0.0,0.0,0.0,0.0,0.0,0.0,0.0,0.0,0.0,0.0,0.0,0.0,0.0,0.0,0.0,0.0,0.0,0.0,0.0,0.0,0.0,0.0,0.0,0.0,0.0,0.0,0.0,0.0,0.0,0.0,0.0,0.0,0.0,-4.3828,-4.258,0.0,0.0,0.0,0.0,0.0,0.0,0.0,0.0,0.0,0.0,0.0,0.0,0.0,0.0,0.0,0.0,0.0,0.0,0.0,0.0,0.0,0.0,0.0,0.0,0.0,0.0,0.0,0.0,0.0,0.0,0.0,0.0,0.0,0.0,0.0,0.0,0.0,0.0,0.0,0.0,-4.5956,-4.8219,-4.9912,-5.106,-5.0694,-4.9736,-4.8264,-4.68,-4.4578,-4.1443,-3.8444,0.0,0.0,0.0,0.0,0.0,0.0,0.0,0.0,0.0,0.0,0.0,0.0,0.0,0.0,0.0,0.0,0.0,0.0,0.0,0.0,0.0,0.0,0.0,0.0,0.0,0.0,0.0,0.0,0.0,0.0,0.0,0.0,0.0,0.0,0.0,0.0,0.0,0.0,0.0,0.0,0.0,0.0,0.0,0.0,0.0,0.0,0.0,0.0,0.0,0.0,0.0,0.0,0.0,-4.7039,-4.781,-4.7993,-4.8764,-4.9554,-5.0124,-4.8196,-4.6287,-4.4616,-4.5112,0.0,0.0,0.0,0.0,0.0,0.0,0.0,0.0,0.0,0.0,0.0,0.0,0.0,0.0,0.0,0.0,0.0,0.0,0.0,0.0,0.0,0.0,-4.2946,-4.3212,-4.3348,-4.2679,-4.0147,0.0,0.0,0.0,0.0,0.0,0.0,0.0,0.0,0.0,0.0,0.0,-4.6034,-4.8136,-4.9649,-5.0608,-5.0194,-4.9418,-4.8241,-4.6758,-4.4823,-4.2252,-3.9106,-3.6299,0.0,0.0,0.0,0.0,0.0,0.0,0.0,0.0,0.0,0.0,0.0,0.0,0.0,0.0,0.0,0.0,0.0,0.0,0.0,0.0,0.0,0.0,0.0,0.0,0.0,0.0,0.0,0.0,0.0,0.0,0.0,0.0,-3.0993,-3.1213,0.0,0.0,0.0,0.0,0.0,0.0,0.0,0.0,0.0,0.0,0.0,0.0,0.0,-4.4635,-4.5406,-4.6911,-4.8086,-4.8893,-4.9848,-5.0692,-5.1389,-5.2197,-5.2637,-5.2747,-5.3115,0.0,-4.8766,-4.8086,0.0,0.0,0.0,0.0,0.0,0.0,0.0,0.0,0.0,0.0,0.0,0.0,0.0,0.0,0.0,0.0,0.0,0.0,0.0,0.0,0.0,0.0,-4.5644,-4.5906,-4.5605,-4.5164,-4.4879,-4.3371,-4.1641,-4.0131,-3.921,-3.8217,0.0,0.0,0.0,0.0,0.0,0.0,-4.6534,-4.8553,-4.9846,-5.0237,-4.9942,-4.9037,-4.7316,-4.6869,-4.5128,-4.1576,-4.029,-3.8338,-3.543,-3.3085,0.0,0.0,0.0,0.0,0.0,0.0,0.0,0.0,0.0,0.0,0.0,0.0,0.0,0.0,0.0,0.0,0.0,0.0,0.0,0.0,0.0,0.0,0.0,0.0,0.0,0.0,0.0,0.0,0.0,-3.1898,-3.3453,-3.3542,-3.3863,-3.4147,0.0,0.0,0.0,0.0,0.0,0.0,0.0,0.0,0.0,-4.3198,-4.5938,-4.7792,-4.8636,-5.0692,-5.1903,-5.227,-5.3555,-5.4363,-5.473,-5.5537,-5.5904,-5.5904,-5.6271,-5.5354,-5.3482,-5.1279,-4.9224,-4.7241,0.0,0.0,0.0,0.0,-4.4196,-4.5143,-4.5129,-4.5113,-4.5045,-4.4998,0.0,0.0,0.0,0.0,0.0,0.0,0.0,-4.4485,-4.5672,-4.6884,-4.7826,-4.7948,-4.7808,-4.7558,-4.7176,-4.6351,-4.5072,-4.2874,-4.1811,-4.08,-3.9462,-3.8293,0.0,0.0,0.0,-4.4232,-4.7071,-4.8553,-4.9465,-4.9953,-4.9679,-4.8937,-4.7699,-4.7111,-4.5737,-4.3267,-4.161,-3.9724,-3.7618,-3.4945,-3.3004,0.0,0.0,0.0,0.0,0.0,0.0,0.0,0.0,0.0,0.0,0.0,0.0,0.0,0.0,0.0,0.0,0.0,0.0,0.0,0.0,0.0,0.0,0.0,0.0,0.0,0.0,0.0,0.0,-3.4301,-3.58,-3.609,-3.6546,-3.6906,0.0,0.0,0.0,0.0,0.0,0.0,-4.1761,-4.3619,-4.5267,-4.6449,-4.8917,-5.0735,-5.1761,-5.3744,-5.4825,-5.5023,-5.6235,-5.6932,-5.7152,-5.774,-5.7997,-5.7997,-5.7997,-5.7556,-5.6602,-5.3995,-5.1977,-5.0325,-4.8269,-4.806,-4.8717,-4.7003,-4.7187,-4.8268,-4.8116,-4.8052,-4.8063,-4.8014,-4.6477,-4.4528,-4.3769,0.0,0.0,0.0,0.0,-4.6588,-4.7228,-4.8413,-4.9421,-4.9408,-4.9408,-4.9206,-4.8661,-4.8353,-4.744,-4.5024,-4.396,-4.3063,-4.1867,-4.0673,0.0,-4.2232,-4.3532,-4.5156,-4.7404,-4.8601,-4.94,-4.9756,-4.933,-4.8681,-4.7844,-4.7009,-4.5872,-4.4384,-4.2523,-4.0832,-3.9343,-3.6772,-3.4675,-3.3152,0.0,0.0,0.0,0.0,0.0,0.0,0.0,0.0,0.0,0.0,0.0,0.0,0.0,0.0,0.0,0.0,0.0,0.0,0.0,0.0,0.0,0.0,0.0,0.0,0.0,0.0,0.0,0.0,0.0,-3.8611,-4.0185,0.0,0.0,0.0,0.0,-4.1423,-4.3652,-4.5312,-4.5971,-4.6897,-4.8455,-5.073,-5.169,-5.2887,-5.4386,-5.527,-5.6073,-5.6675,-5.6785,-5.7189,-5.7923,-5.796,-5.7997,-5.7997,-5.7997,-5.7556,-5.6748,-5.5794,-5.4473,-5.2931,-5.205,-5.1595,-5.1297,-5.0462,-5.0698,-5.1504,-5.167,-5.1871,-5.1979,-5.1782,-4.9323,-4.6366,-4.5745,-4.5187,0.0,0.0,-4.6611,-4.7961,-4.8171,-4.9269,-5.0327,-5.0265,-4.9877,-4.9618,-4.9687,-4.9011,-4.7904,-4.6305,-4.5544,-4.4947,-4.4157,0.0,-4.3159,-4.3723,-4.5416,-4.6802,-4.7257,-4.8963,-4.9994,-4.956,-4.8856,-4.8021,-4.698,-4.6177,-4.5094,-4.3544,-4.2692,-4.1576,-4.0096,-3.8541,-3.7009,-3.5464,-3.3254,0.0,0.0,0.0,0.0,0.0,0.0,0.0,0.0,0.0,0.0,0.0,0.0,0.0,0.0,0.0,0.0,0.0,0.0,0.0,0.0,0.0,0.0,0.0,0.0,0.0,0.0,0.0,0.0,-4.1252,-4.2326,0.0,-4.3064,-4.3599,-4.4395,-4.5435,-4.7293,-4.8724,-4.9543,-5.0824,-5.2139,-5.3526,-5.4778,-5.5713,-5.6261,-5.7007,-5.7457,-5.7706,-5.7602,-5.7703,-5.7997,-5.7997,-5.7997,-5.7997,-5.7997,-5.785,-5.7556,-5.7262,-5.6198,-5.4656,-5.3849,-5.3697,-5.3736,-5.2375,-5.2483,-5.3284,-5.3051,-5.3112,-5.3122,-5.2302,-5.0523,-4.8763,-4.8619,-4.7891,-4.7261,-4.8055,-4.8908,-4.9638,-4.9782,-5.0677,-5.1441,-5.1119,-5.0777,-5.0348,-4.9758,-4.9301,-4.8785,-4.7826,-4.7262,-4.6892,-4.6649,-4.5932,-4.5652,-4.6206,-4.7036,-4.7847,-4.8451,-4.8847,-4.9021,-4.89,-4.8075,-4.7146,-4.6282,-4.5896,-4.506,-4.3477,-4.2726,-4.1847,-4.0865,-3.9377,-3.7889,-3.64,-3.4607,-3.2903,0.0,0.0,0.0,0.0,0.0,0.0,0.0,0.0,0.0,0.0,0.0,0.0,0.0,0.0,0.0,0.0,0.0,0.0,0.0,0.0,0.0,0.0,0.0,0.0,0.0,-4.057,-4.2786,-4.4204,-4.5094,-4.5815,-4.6438,-4.6773,-4.7516,-4.8853,-5.045,-5.1714,-5.2568,-5.3866,-5.4939,-5.5754,-5.6767,-5.7408,-5.7645,-5.8069,-5.826,-5.8179,-5.8088,-5.8042,-5.7997,-5.8042,-5.8189,-5.84,-5.84,-5.8547,-5.8804,-5.8804,-5.818,-5.7116,-5.6014,-5.5784,-5.5848,-5.442,-5.4418,-5.5014,-5.4715,-5.4456,-5.4091,-5.3215,-5.1933,-5.0735,-5.0823,-5.0269,-4.9764,-5.0562,-5.1052,-5.1393,-5.1571,-5.1951,-5.224,-5.1912,-5.1352,-5.0743,-5.001,-4.9714,-4.9493,-4.9079,-4.8594,-4.8211,-4.8211,-4.7761,-4.7523,-4.7869,-4.8277,-4.8676,-4.9014,-4.8931,-4.8739,-4.8465,-4.7578,-4.6685,-4.5909,-4.5252,-4.4485,-4.3443,-4.2489,-4.1711,-4.1238,-4.002,-3.8768,-3.7574,-3.5791,-3.366,-3.119,0.0,0.0,0.0,0.0,0.0,0.0,0.0,0.0,0.0,0.0,0.0,0.0,0.0,0.0,0.0,0.0,0.0,0.0,0.0,0.0,0.0,0.0,0.0,-4.1334,-4.3027,-4.5026,-4.7441,-4.8481,-4.9002,-4.9039,-4.9819,-5.0673,-5.1491,-5.3014,-5.424,-5.5057,-5.5874,-5.6729,-5.7509,-5.7546,-5.7856,-5.8492,-5.8459,-5.8349,-5.8201,-5.8179,-5.8133,-5.802,-5.8133,-5.8589,-5.9208,-5.9221,-5.9661,-6.0419,-6.0419,-6.0419,-6.0236,-5.8694,-5.793,-5.7559,-5.6697,-5.66,-5.6848,-5.6848,-5.6115,-5.5134,-5.4879,-5.3678,-5.2321,-5.2287,-5.2287,-5.2313,-5.2646,-5.2869,-5.3085,-5.3392,-5.3096,-5.2676,-5.251,-5.1661,-5.0784,-5.0612,-5.0257,-5.0011,-5.0011,-4.9369,-4.8826,-4.8826,-4.8826,-4.8751,-4.8591,-4.9065,0.0,-4.8866,-4.9286,-4.9218,-4.8171,-4.7393,-4.6593,-4.5737,-4.4282,-4.3375,-4.3375,-4.1982,-4.117,-4.117,-4.0485,-3.974,-3.8971,-3.6772,-3.418,-3.1292,0.0,0.0,0.0,0.0,0.0,0.0,0.0,0.0,0.0,0.0,0.0,0.0,0.0,0.0,0.0,0.0,0.0,0.0,0.0,0.0,0.0,-4.0591,-4.1928,-4.2359,-4.4899,-4.7144,-4.8407,-4.9856,-5.1156,-5.2345,-5.2679,-5.3423,-5.4834,-5.5354,-5.5949,-5.6766,-5.7063,-5.7546,-5.8364,-5.8364,-5.8454,-5.8635,-5.8502,-5.8415,-5.8422,-5.8268,-5.8238,-5.8305,-5.8238,-5.8598,-5.9384,-5.9856,-6.0199,-6.0456,-6.1043,-6.0933,-6.0346,-5.9905,-5.9578,-5.9258,-5.8591,-5.8017,-5.7675,-5.8457,-5.8016,-5.7084,-5.6708,-5.5912,-5.4973,-5.4264,-5.3621,-5.3111,-5.329,-5.3142,-5.2978,-5.3148,-5.3223,-5.3068,-5.2322,-5.1786,-5.1221,-5.0474,-5.0149,-5.0011,-5.0011,-4.9803,-4.966,-4.966,-4.966,-4.9632,-4.9611,-4.9608,-4.9602,-4.9457,-4.8915,-4.8196,-4.7393,-4.653,-4.576,-4.4987,-4.3978,-4.3166,-4.2625,-4.1238,-4.0392,-4.0417,-3.9681,-3.8937,-3.8227,-3.6479,-3.4923,0.0,0.0,0.0,0.0,0.0,0.0,0.0,0.0,0.0,0.0,0.0,0.0,0.0,0.0,0.0,0.0,0.0,0.0,0.0,0.0,0.0,0.0,-4.3355,-4.4952,-4.5324,-4.6995,-4.8779,-5.0265,-5.1602,-5.2902,-5.4203,-5.4648,-5.5391,-5.6692,-5.6803,-5.7138,-5.7955,-5.7992,-5.8215,-5.8698,-5.8698,-5.8698,-5.8698,-5.8508,-5.865,-5.9048,-5.8917,-5.9036,-5.939,-5.9323,-5.9697,-6.0425,-6.0761,-6.108,-6.1447,-6.1924,-6.1851,-6.1337,0.0,0.0,0.0,0.0,-5.9032,-5.8717,-5.9355,-5.9148,-5.8493,-5.7826,-5.7069,-5.6182,-5.5266,-5.4468,-5.3905,-5.3963,-5.3771,-5.3575,-5.3664,-5.3568,-5.3235,-5.2294,-5.1755,-5.1188,-5.0322,-5.0034,-5.0011,-5.0011,-5.0011,0.0,-5.0011,-5.0011,-4.9982,-4.9889,-4.9767,-4.9649,-4.95,-4.8669,-4.7806,-4.7,-4.6201,-4.5399,-4.4682,-4.3876,0.0,0.0,0.0,-4.0426,-4.0113,-3.9706,0.0,0.0,0.0,0.0,0.0,0.0,0.0,0.0,-3.3592,-3.4269,0.0,0.0,0.0,0.0,0.0,0.0,0.0,0.0,0.0,0.0,0.0,0.0,0.0,0.0,0.0,0.0,-4.5769,-4.8147,-4.9039,-4.9262,-5.0116,-5.2345,-5.3385,-5.424,-5.5094,-5.5949,-5.6766,-5.7583,-5.7658,-5.7955,-5.8661,-5.8698,0.0,0.0,0.0,-5.8698,-5.8698,-5.8572,-5.8937,-5.981,-5.9789,-6.0152,-6.0839,-6.0927,-6.1265,-6.1824,-6.1851,-6.2218,-6.278,-6.2915,-6.289,-6.2633,-6.1202,-6.0579,-6.0432,-6.0169,-5.9979,-5.9802,-5.9979,0.0,0.0,-5.8466,-5.7491,-5.6556,-5.5504,-5.4834,-5.4494,-5.4494,-5.4494,-5.4494,-5.4494,-5.4011,-5.3287,-5.2394,-5.1671,-5.1011,-5.0183,-5.0011,-5.0011,-5.0011,-5.0011,-5.0011,-5.0011,-4.9982,-4.9889,-4.9737,-4.961,-4.9393,-4.9093,-4.8417,-4.764,-4.6781,-4.6075,0.0,-4.4682,-4.3876,-4.3132,-4.2455,-4.1745,-4.1001,-4.0248,-4.0316,-4.0011,-3.9242,-3.9242,-3.8599,-3.7303,-3.7956,-3.8328,-3.8362,-3.6817,-3.6884,0.0,0.0,0.0,0.0,0.0,0.0,0.0,0.0,0.0,0.0,0.0,0.0,0.0,0.0,0.0,-4.4469,-4.6995,-4.9187,-5.0711,-5.1491,-5.2048,-5.2531,-5.3868,-5.5131,-5.5986,-5.6803,-5.7621,-5.8401,-5.8475,-5.8549,-5.8698,-5.8698,-5.8698,-5.8698,-5.8698,-5.8698,-5.8698,-5.8572,-5.898,-5.9881,-5.9832,0.0,-6.1159,-6.1587,-6.1842,-6.2016,-6.3125,-6.3319,-6.2853,-6.3576,-6.3429,-6.2743,-6.235,-6.2077,-6.1985,-6.1933,-6.147,-6.097,-6.1521,-6.1287,-6.0501,-5.9048,-5.8194,-5.7379,-5.5593,-5.4776,0.0,-5.4494,-5.4494,-5.4494,-5.4494,-5.4391,-5.3942,-5.2532,-5.2084,-5.1632,-5.0287,-5.0011,-5.0011,-5.0011,-5.0011,-5.0011,-5.0011,-4.986,-4.9737,-4.9708,-4.8953,-4.8401,-4.8311,-4.7547,-4.6747,-4.5974,-4.5805,-4.5399,-4.4682,-4.3876,-4.3341,-4.32,-4.2489,-4.1745,-4.1035,-4.1542,-4.1508,-4.0798,-4.0764,-4.0629,-4.0358,-4.0493,-4.0865,-4.1407,-3.9893,-3.969,0.0,0.0,0.0,0.0,0.0,0.0,0.0,0.0,0.0,0.0,0.0,-3.7448,-3.99,0.0,-4.4581,-4.6215,-4.8556,-5.045,-5.1268,-5.2457,-5.32,-5.32,-5.4648,-5.5837,-5.6246,-5.7398,-5.8289,-5.8661,-5.8698,-5.8698,-5.8698,-5.8698,-5.8698,-5.8698,-5.8698,-5.8884,-5.9292,-5.9229,-5.986,-6.115,-6.1122,-6.1567,-6.2391,-6.2549,-6.258,-6.2654,-6.3198,-6.3209,-6.2817,-6.3282,-6.3209,-6.278,-6.2654,-6.2603,-6.2578,-6.2578,-6.2347,-6.2029,-6.2303,-6.1974,-6.1163,-5.9481,-5.8401,-5.753,-5.5654,-5.4838,-5.4494,-5.4494,-5.4494,-5.4494,-5.4494,-5.4494,-5.4115,-5.2567,-5.2188,-5.1774,-5.0321,-5.0011,-5.0011,-5.0011,-5.0011,-5.0011,-5.0011,-4.983,-4.9708,-4.9708,-4.891,-4.8285,-4.8137,-4.7097,-4.6196,-4.5737,-4.5365,-4.4993,-4.4649,-4.3876,-4.3375,-4.3375,-4.2726,-4.2117,-4.1779,-4.2083,-4.2117,-4.1745,-4.1745,-4.1745,-4.1745,-4.2523,-4.3064,-4.3464,-4.3436,-4.3267,0.0,0.0,0.0,0.0,0.0,0.0,0.0,-3.1978,-3.3288,-3.5516,-3.7498,-3.9714,-4.25,-4.4544,-4.6252,-4.7701,-4.9893,-5.1454,-5.1602,-5.2865,-5.3794,-5.3794,-5.528,-5.632,-5.632,-5.7769,-5.8698,-5.8698,-5.8698,-5.8698,-5.8698,-5.8698,-5.8698,-5.8698,-5.8698,-5.9107,-5.9865,-5.9903,-6.0741,-6.2413,-6.2413,-6.2822,-6.3579,-6.3474,-6.3379,-6.3208,-6.2904,-6.278,-6.278,-6.278,-6.278,-6.278,-6.2654,-6.2629,-6.2654,-6.2705,-6.273,-6.273,-6.2578,-6.2255,-6.1679,-5.9816,-5.8566,-5.7469,-5.5859,-5.4973,-5.4494,-5.4494,-5.4494,-5.4494,-5.4494,-5.4494,-5.4149,-5.2739,-5.2291,-5.1839,-5.0493,-5.0114,-5.0011,-5.0011,-5.0011,-5.0011,-5.0011,-4.986,-4.9737,-4.9708,-4.8924,-4.8225,-4.7958,-4.6612,-4.5637,-4.5523,-4.4953,-4.4615,-4.4615,-4.4012,-4.3639,-4.3639,-4.3064,-4.2753,-4.2753,-4.2753,-4.2753,-4.2753,-4.2895,-4.2963,-4.2963,-4.4378,-4.5021,-4.5055,-4.638,-4.6278,-2.7688,-2.9395,-3.1381,-3.229,-3.3153,-3.3795,0.0,-3.4996,-3.6408,-3.7411,-4.0085,-4.2575,-4.3652,-4.5807,-4.7738,-4.863,-5.0265,-5.1639,-5.2382,-5.3237,-5.3794,-5.3794,-5.528,-5.632,-5.632,-5.7769,-5.8698,-5.8698,-5.8698,-5.8698,-5.8698,-5.8698,-5.8698,-5.8698,-5.8698,-5.9107,-5.9865,-5.9903,-6.0741,-6.2413,-6.2413,-6.2822,-6.3616,-6.4066,-6.3896,-6.3208,-6.2904,-6.278,-6.278,-6.278,-6.278,-6.278,-6.2654,-6.236,-6.2032,-6.2344,-6.25,-6.2603,-6.2318,-6.2212,-6.1906,-6.0339,-5.8976,-5.7731,-5.6466,-5.5331,-5.4494,-5.4494,-5.4494,-5.4494,-5.4494,-5.4494,-5.4287,-5.346,-5.2735,-5.1981,-5.1149,-5.0459,-5.0011,-5.0011,-5.0011,-5.0011,-5.0011,-4.9982,-4.9889,-4.9737,-4.8357,-4.7352,-4.7324,-4.5914,-4.4912,-4.4912,-4.4732,-4.4615,-4.4615,-4.4513,-4.4479,-4.4479,-4.4412,-4.4344,-4.4344,-4.4344,-4.4344,-4.4344,-4.4993,-4.5331,-4.5331,-4.6143,-4.6549,-4.6549,-4.7394,-4.7361,-2.9874,-3.1493,-3.3377,-3.476,-3.6098,-3.7188,-3.7671,-3.8339,-3.9194,-4.0494,-4.2612,-4.4506,-4.5324,-4.707,-4.8667,-4.9485,-5.0599,-5.1676,-5.2494,-5.3311,-5.3794,-5.3794,-5.4834,-5.5763,-5.6246,-5.7323,-5.8215,-5.8661,-5.8698,-5.8698,-5.8698,-5.8698,-5.8921,-5.9383,-5.9404,-6.0035,-6.1336,-6.1373,-6.1967,-6.3119,-6.3119,-6.3267,-6.3579,-6.3752,-6.3598,-6.3171,-6.3002,-6.288,-6.278,-6.2705,-6.2629,-6.2552,-6.2423,-6.2212,-6.196,-6.2185,-6.2265,-6.2202,-6.2212,-6.2132,-6.1815,-6.0552,-5.907,-5.764,-5.6628,-5.5494,-5.4494,-5.4494,-5.4494,-5.4494,-5.4494,-5.4494,-5.4322,-5.3598,-5.2804,-5.1981,-5.1287,-5.0528,-5.0011,-5.0011,-5.0011,-5.0011,-5.0011,-5.0011,-4.9982,-4.9889,-4.8495,-4.7448,-4.7278,-4.589,-4.4858,-4.4692,-4.4643,-4.4615,-4.4615,-4.4615,-4.4615,-4.4615,-4.4615,-4.4615,-4.4615,-4.4615,-4.4615,-4.4615,-4.5331,-4.5703,-4.5703,-4.6887,-4.7462,-4.7462,-4.8206,-4.8376,-3.1863,-3.3475,-3.519,-3.6912,-3.8586,-3.9937,-4.0568,-4.0903,-4.1386,-4.2575,-4.4135,-4.5547,-4.6364,-4.7627,-4.8927,-4.993,-5.0822,-5.1676,-5.2494,-5.3311,-5.3794,-5.3794,-5.4314,-5.502,-5.5874,-5.6878,-5.7843,-5.8661,-5.8698,-5.8698,-5.8698,-5.8698,-5.9069,-5.9865,-5.9903,-6.0682,-6.2376,-6.2413,-6.2822,-6.3602,-6.3602,-6.3602,-6.3579,-6.3465,-6.3312,-6.3171,-6.3026,-6.283,-6.2567,-6.2412,-6.2202,-6.1987,-6.1933,-6.1823,-6.1712,-6.1942,-6.1996,-6.196,-6.2051,-6.2024,-6.177,-6.0832,-5.9277,-5.7609,-5.6904,-5.5633,-5.4494,-5.4494,-5.4494,-5.4494,-5.4494,-5.4494,-5.4391,-5.3839,-5.2942,-5.205,-5.1498,-5.0666,-5.0011,-5.0011,-5.0011,-5.0011,-5.0011,-5.0011,-5.0011,-5.0011,-4.8872,-4.7858,-4.7398,-4.5945,-4.4858,-4.4643,-4.4615,-4.4615,-4.4615,-4.4615,-4.4615,-4.4615,-4.4615,-4.4615,-4.4615,-4.4615,-4.4615,-4.4615,-4.55,-4.6007,-4.6007,-4.7496,-4.8176,-4.824,-4.8748,-4.9018,-3.3164,-3.5085,-3.6814,-3.8497,-4.0251,-4.1534,-4.1571,-4.2166,-4.2723,-4.2797,-4.4135,-4.5547,-4.6364,-4.7181,-4.8259,-4.9856,-5.0822,-5.1676,-5.2494,-5.3311,-5.3794,-5.3794,-5.3831,-5.4166,-5.4983,-5.6543,-5.7843,-5.8661,-5.8698,-5.8698,-5.8698,-5.8698,-5.9069,-5.9865,-5.9903,-6.0682,-6.2376,-6.2413,-6.2822,-6.3602,-6.3602,-6.3602,-6.3579,-6.3465,-6.3312,-6.3208,-6.2904,-6.2541,-6.2112,-6.1842,-6.1415,-6.0938,-6.1156,-6.1127,-6.0974,-6.1437,-6.1784,-6.1969,-6.184,-6.1895,-6.1887,-6.1292,-5.9692,-5.7902,-5.7409,-5.5955,-5.4494,-5.4494,-5.4494,-5.4494,-5.4494,-5.4494,-5.4494,-5.4494,-5.3322,-5.2188,-5.2153,-5.1045,-5.0011,-5.0011,-5.0011,-5.0011,-5.0011,-5.0011,-5.0011,-5.0011,-4.9292,-4.8443,-4.758,-4.5924,-4.4748,-4.4615,-4.4615,-4.4615,-4.4615,-4.4615,-4.4615,-4.4615,-4.4615,-4.4615,-4.4615,-4.4615,-4.4615,-4.4615,-4.6036,-4.6752,-4.6752,-4.824,-4.8984,-4.8984,-4.8984,-4.9018,-3.4071,-3.5966,-3.7778,-4.0089,-4.1504,-4.2477,-4.3042,-4.3392,-4.3615,-4.3615,-4.4023,-4.4692,-4.5547,-4.6364,-4.7441,-4.9039,-5.0488,-5.1676,-5.2494,-5.3311,-5.3794,-5.3794,-5.3794,-5.4128,-5.4946,-5.6023,-5.7063,-5.7843,-5.8401,-5.8698,-5.8698,-5.8698,-5.9329,-6.0741,-6.0778,-6.1558,-6.3193,-6.3193,-6.3342,-6.3602,-6.3602,-6.3602,-6.3602,-6.3557,-6.3511,-6.3442,-6.3075,-6.2618,-6.2049,-6.1704,-6.1192,-6.0651,-6.0837,-6.0927,-6.0986,-6.1022,-6.1205,-6.1343,-6.1401,-6.1336,-6.1214,-6.0927,-5.9441,-5.7745,-5.7503,-5.605,-5.4494,-5.4494,-5.4494,-5.4494,-5.4494,-5.4494,-5.4494,-5.4494,-5.3291,-5.2188,-5.2188,-5.1045,-5.0011,-5.0011,-5.0011,-5.0011,-5.0011,-5.0011,-4.9809,-4.9143,-4.8335,-4.7523,-4.6679,-4.5443,-4.4671,-4.4615,-4.4615,-4.4615,-4.4615,-4.4615,-4.4615,-4.4615,-4.4615,-4.4615,-4.4615,-4.4615,-4.4615,-4.4615,-4.6041,-4.6786,-4.6786,-4.8274,-4.9018,-4.9018,-4.9018,-4.9018,-3.5772,-3.764,-3.9356,-4.1345,-4.2479,-4.3209,-4.3478,-4.3785,-4.3838,-4.3243,-4.3355,-4.3838,-4.4692,-4.5249,-4.6252,-4.8147,-4.9856,-5.1231,-5.2048,-5.3125,-5.3794,-5.3794,-5.3794,-5.4128,-5.4946,-5.58,-5.6617,-5.7435,-5.8252,-5.8698,-5.8698,-5.8698,-5.9478,-6.115,-6.1187,-6.1967,-6.3602,-6.3602,-6.3602,-6.3602,-6.3602,-6.3602,-6.3602,-6.3602,-6.3579,-6.3511,-6.3099,-6.2479,-6.1715,-6.1308,-6.0686,-5.9969,-6.0258,-6.0477,-6.0626,-6.063,-6.063,-6.0691,-6.0897,-6.0861,-6.0741,-6.0564,-5.9197,-5.7561,-5.7377,-5.5987,-5.4494,-5.4494,-5.4494,-5.4494,-5.4494,-5.4494,-5.4494,-5.4494,-5.3563,-5.2532,-5.2257,-5.1252,-5.0321,-5.0045,-5.0011,-5.0011,-5.0011,-5.0011,-4.9809,-4.9177,-4.8283,-4.7284,-4.6169,-4.5456,-4.4942,-4.4649,-4.4615,-4.4615,-4.4615,-4.4615,-4.4615,-4.4615,-4.4615,-4.4615,-4.4615,-4.4615,-4.4615,-4.4615,-4.6041,-4.6786,-4.6786,-4.8274,-4.9018,-4.9018,-4.9018,-4.9018,-3.816,-3.9984,-4.1461,-4.2271,-4.3176,-4.3696,-4.2897,-4.333,-4.3503,-4.1906,-4.2129,-4.2872,-4.3726,-4.3875,-4.4692,-4.7181,-4.9002,-5.0413,-5.1268,-5.2791,-5.3794,-5.3794,-5.3831,-5.4166,-5.4946,-5.5837,-5.6692,-5.7435,-5.8252,-5.8698,-5.8698,-5.8698,-5.9478,-6.115,-6.1187,-6.1967,-6.3602,-6.3602,-6.3602,-6.3602,-6.3602,-6.3602,-6.3602,-6.3579,-6.3511,-6.3359,-6.2953,-6.2139,-6.1055,-6.0651,-5.9873,-5.9047,-5.9418,-5.9748,-6.0001,-6.0231,-6.0132,-6.0033,-6.0419,-6.0477,-6.0379,-6.0135,-5.886,-5.7409,-5.7094,-5.583,-5.4494,-5.4494,-5.4494,-5.4494,-5.4494,-5.4494,-5.4494,-5.4494,-5.3942,-5.3184,-5.2459,-5.1636,-5.0907,-5.0183,-5.0045,-5.0011,-5.0011,-5.0011,-5.0011,-4.9982,-4.913,-4.787,-4.6192,-4.5926,-4.5563,-4.4682,-4.4615,-4.4615,-4.4615,-4.4615,-4.4615,-4.4615,-4.4615,-4.4615,-4.4615,-4.4615,-4.4615,-4.4682,-4.6041,-4.6819,-4.6853,-4.8308,-4.9018,-4.9018,-4.9018,-4.9018,-3.9827,-4.1238,-4.2226,-4.3085,-4.3467,-4.3496,-4.2865,-4.2875,-4.2758,-4.178,-4.0754,-4.0494,-4.1943,-4.2203,-4.302,-4.5509,-4.8259,-5.0413,-5.1268,-5.2791,-5.3794,-5.3794,-5.4351,-5.476,-5.4983,-5.632,-5.7286,-5.7472,-5.8252,-5.8698,-5.8698,-5.8698,-5.9478,-6.115,-6.1187,-6.1967,-6.3602,-6.3602,-6.3602,-6.3602,-6.3602,-6.3602,-6.3579,-6.3511,-6.3396,-6.3194,-6.2567,-6.1778,-6.0879,-6.041,-5.9748,-5.9012,-5.9285,-5.9584,-5.9844,-5.9816,-5.9814,-5.9811,-5.9683,-5.9518,-5.935,-5.9318,-5.8246,-5.6967,-5.6869,-5.5768,-5.4494,-5.4494,-5.4494,-5.4494,-5.4494,-5.4494,-5.4494,-5.4494,-5.3942,-5.3356,-5.3149,-5.2046,-5.1045,-5.0873,-5.039,-5.0011,-5.0011,-5.0011,-4.9952,-4.9801,-4.9536,-4.8768,-4.7147,-4.6272,-4.5456,-4.4682,-4.4615,-4.4615,-4.4615,-4.4615,-4.4615,-4.4615,-4.4615,-4.4615,-4.4615,-4.4615,-4.4886,-4.5399,-4.6312,-4.7056,-4.7631,-4.8545,-4.9018,-4.9018,-4.9018,-4.9018,-4.1075,-4.2213,-4.2927,-4.3439,-4.3306,-4.2894,-4.2247,-4.1829,-4.1282,-4.0183,-3.9231,-3.8971,-4.0271,-4.0494,-4.1423,-4.4283,-4.6847,-4.9076,-5.0599,-5.2234,-5.3423,-5.3757,-5.45,-5.5169,-5.554,-5.6729,-5.7658,-5.7992,-5.8438,-5.8698,-5.8698,-5.8698,-5.9478,-6.115,-6.1187,-6.1967,-6.3602,-6.3602,-6.3602,-6.3602,-6.3602,-6.3602,-6.3579,-6.3465,-6.3242,-6.2978,-6.235,-6.1584,-6.0711,-6.0258,-5.965,-5.9012,-5.9115,-5.9284,-5.9451,-5.9386,-5.9385,-5.9451,-5.9217,-5.8874,-5.8599,-5.8909,-5.8012,-5.6805,-5.6805,-5.5736,-5.4494,-5.4494,-5.4494,-5.4494,-5.4494,-5.4494,-5.4494,-5.4494,-5.4184,-5.3804,-5.346,-5.2459,-5.139,-5.0769,-5.0287,-5.0011,-5.0011,-5.0011,-4.9982,-4.986,-4.9708,-4.9179,-4.7957,-4.6878,-4.5857,-4.4716,-4.4615,-4.4615,-4.4615,-4.4615,-4.4615,-4.4615,-4.4615,-4.4615,-4.4615,-4.4891,-4.5263,-4.5703,-4.6752,-4.7496,-4.7906,-4.8646,-4.9018,-4.9018,-4.9018,-4.9018,-4.2066,-4.2947,-4.3478,-4.3351,-4.2868,-4.2124,-4.1224,-4.0399,-3.9415,-3.7917,-3.7411,-3.7522,-3.8451,-3.8599,-3.9714,-4.2983,-4.5101,-4.7144,-4.9447,-5.1416,-5.2865,-5.3571,-5.4574,-5.5466,-5.6246,-5.7138,-5.7955,-5.8661,-5.8698,-5.8698,-5.8698,-5.8809,-5.9627,-6.1298,-6.1484,-6.219,-6.3602,-6.3602,-6.3602,-6.3602,-6.3602,-6.3602,-6.3579,-6.3465,-6.3147,-6.2755,-6.2255,-6.1415,-6.0441,-6.0167,-5.9617,-5.9012,-5.9012,-5.9012,-5.9012,-5.9012,-5.9012,-5.9012,-5.9012,-5.8599,-5.815,-5.8702,-5.7874,-5.6633,-5.6633,-5.5632,-5.4494,-5.4494,-5.4494,-5.4494,-5.4494,-5.4494,-5.4494,-5.4494,-5.4494,-5.4322,-5.3667,-5.2839,-5.174,-5.0287,-5.0011,-5.0011,-5.0011,-5.0011,-5.0011,-4.9982,-4.9713,-4.9227,-4.845,-4.7622,-4.6559,-4.5055,-4.4886,-4.4852,-4.475,-4.475,-4.4716,-4.4615,-4.4716,-4.475,-4.475,-4.5466,-4.5906,-4.6007,-4.7259,-4.7939,-4.8041,-4.8714,-4.9018,-4.9018,-4.9018,-4.9018,-4.302,-4.3404,-4.3314,-4.2653,-4.2413,-4.1801,-3.977,-3.8707,-3.7729,-3.6233,-3.481,-3.4339,-3.5863,-3.6123,-3.7201,-4.0508,-4.354,-4.6104,-4.7887,-5.0711,-5.2642,-5.2791,-5.476,-5.6134,-5.6283,-5.7621,-5.8549,-5.8698,-5.8698,-5.8698,-5.8698,-5.9329,-6.0481,-6.2153,-6.2859,-6.3342,-6.3602,-6.3602,-6.3602,-6.3602,-6.3602,-6.3602,-6.3579,-6.3349,-6.3002,-6.2603,-6.1906,-6.114,-6.029,-5.9881,-5.9419,-5.9012,-5.9012,-5.9012,-5.9012,-5.9012,-5.9012,-5.9012,-5.9012,-5.8944,-5.8737,-5.8254,-5.7081,-5.5805,-5.5805,-5.5219,-5.4494,-5.4494,-5.4494,-5.4494,-5.4494,-5.4494,-5.4494,-5.4494,-5.4494,-5.446,-5.4356,-5.3218,-5.174,-5.0287,-5.0011,-5.0011,-5.0011,-5.0011,-4.9918,-4.9801,-4.9708,-4.9316,-4.8298,-4.7886,-4.7424,-4.6515,-4.6413,-4.6177,-4.5568,-4.55,-4.5229,-4.4649,-4.5162,-4.55,-4.55,-4.621,-4.6887,-4.75,-4.777,-4.8206,-4.8815,-4.8951,-4.9018,-4.9018,-4.9018,-4.9018,-4.3167,-4.3515,-4.3314,-4.2506,-4.1662,-4.0682,-3.9217,-3.729,-3.5594,-3.4934,-3.3522,-3.2741,-3.3968,-3.4562,-3.5739,-3.8637,-4.1497,-4.4246,-4.6735,-4.9522,-5.1639,-5.2494,-5.4797,-5.632,-5.632,-5.7398,-5.8252,-5.8661,-5.8326,-5.8438,-5.9292,-6.0518,-6.1373,-6.1781,-6.2562,-6.2784,-6.2376,-6.2784,-6.297,-6.297,-6.3416,-6.3557,-6.3488,-6.3218,-6.283,-6.2344,-6.172,-6.0933,-6.0167,-5.9751,-5.9352,-5.9012,-5.9012,-5.9012,-5.9012,-5.9012,-5.9012,-5.9012,-5.9012,-5.8495,-5.7805,-5.746,-5.684,-5.6219,-5.6219,-5.5426,-5.4494,-5.4494,-5.4494,-5.4494,-5.4494,-5.4494,-5.4494,-5.4494,-5.4494,-5.4287,-5.3494,-5.2705,-5.174,-5.0287,-5.0011,-5.0011,-5.0011,-5.0011,-4.9982,-4.986,-4.9767,-4.9482,-4.8899,-4.8689,-4.8128,-4.695,-4.6786,-4.665,-4.6312,-4.6278,-4.6109,-4.5799,-4.6075,-4.6278,-4.6278,-4.6989,-4.7564,-4.7872,-4.8277,-4.8646,-4.9018,-4.9018,-4.9018,-4.9018,-4.9018,-4.9018,-4.3094,-4.3515,-4.3294,-4.2286,-4.0965,-3.9617,-3.8626,-3.5997,-3.3734,-3.3709,-3.2407,-3.1515,-3.2332,-3.3001,-3.4253,-3.6705,-3.9194,-4.1943,-4.5249,-4.8073,-5.045,-5.2159,-5.4686,-5.632,-5.632,-5.7026,-5.7843,-5.8661,-5.8289,-5.8661,-6.011,-6.1596,-6.2116,-6.1484,-6.2264,-6.2264,-6.1484,-6.2264,-6.2673,-6.2673,-6.3305,-6.3534,-6.3405,-6.3147,-6.2705,-6.2158,-6.1579,-6.0848,-6.0008,-5.9718,-5.9352,-5.9012,-5.9012,-5.8909,-5.8806,-5.8944,-5.8909,-5.8806,-5.8944,-5.815,-5.7047,-5.7047,-5.6702,-5.6322,-5.6322,-5.546,-5.4494,-5.4494,-5.4494,-5.4494,-5.4494,-5.4494,-5.4494,-5.4494,-5.4494,-5.408,-5.2532,-5.2188,-5.174,-5.0287,-5.0011,-5.0011,-5.0011,-5.0011,-5.0011,-5.0011,-4.986,-4.9679,-4.95,-4.935,-4.8757,-4.7424,-4.7259,-4.7192,-4.7056,-4.7022,-4.6955,-4.6819,-4.6955,-4.7022,-4.7022,-4.7767,-4.8142,-4.8142,-4.8714,-4.9018,-4.9018,-4.9018,-4.9018,-4.9018,-4.9154,-4.9255,-4.324,-4.3515,-4.313,-4.1589,-4.0561,-3.9359,-3.7224,-3.4729,-3.2736,-3.215,-3.0734,-2.988,-3.066,-3.0883,-3.1738,-3.4141,-3.663,-3.938,-4.2686,-4.6513,-4.9633,-5.1305,-5.4351,-5.632,-5.632,-5.7026,-5.7843,-5.8661,-5.9329,-6.011,-6.1038,-6.193,-6.2376,-6.2301,-6.3082,-6.3119,-6.2301,-6.3082,-6.349,-6.349,-6.3565,-6.3579,-6.3557,-6.3171,-6.2668,-6.2059,-6.1544,-6.0752,-5.9814,-5.9652,-5.9352,-5.9012,-5.9012,-5.8599,-5.8081,-5.8771,-5.8599,-5.8116,-5.8771,-5.8495,-5.7805,-5.7805,-5.6391,-5.4701,-5.4701,-5.4632,-5.4494,-5.4494,-5.4494,-5.4494,-5.4494,-5.4494,-5.4494,-5.4494,-5.4494,-5.408,-5.2532,-5.2188,-5.174,-5.0287,-5.0011,-5.0011,-5.0011,-5.0011,-5.0011,-5.0011,-4.9982,-4.986,-4.953,-4.9471,-4.9316,-4.8846,-4.8815,-4.8545,-4.7838,-4.7804,-4.753,-4.6819,-4.7428,-4.7804,-4.7804,-4.8511,-4.8917,-4.8917,-4.8984,-4.9018,-4.9018,-4.9018,-4.9018,-4.9018,-4.9695,-4.9999,-4.2433,-4.313,-4.3094,-4.1515,-4.012,-3.8573,-3.6251,-3.3819,-3.1898,-3.1233,-3.0177,-2.9508,-2.9805,-3.0251,-3.1218,-3.315,-3.5566,-3.8302,-4.1609,-4.5175,-4.8073,-4.9707,-5.2791,-5.4797,-5.4797,-5.5986,-5.71,-5.7918,-5.9181,-6.0051,-6.0407,-6.1224,-6.1403,-6.0855,-6.17,-6.1737,-6.0818,-6.2183,-6.2851,-6.2746,-6.3334,-6.3511,-6.3349,-6.3026,-6.2479,-6.1778,-6.1221,-6.0477,-5.965,-5.9486,-5.9251,-5.9012,-5.9012,-5.8564,-5.7943,-5.8254,-5.815,-5.7943,-5.8254,-5.7874,-5.7253,-5.7253,-5.6012,-5.4598,-5.5046,-5.4874,-5.4494,-5.4494,-5.4494,-5.4494,-5.4494,-5.4494,-5.4494,-5.4494,-5.4494,-5.408,-5.2532,-5.2188,-5.174,-5.0287,-5.0011,-5.0011,-5.0011,-5.0011,-5.0011,-5.0011,-5.0011,-4.9923,-4.9649,-4.953,-4.9381,-4.9138,-4.9046,-4.8883,-4.8612,-4.8578,-4.8443,-4.8139,-4.8409,-4.8578,-4.8578,-4.8849,-4.9018,-4.9018,-4.9018,-4.9018,-4.9018,-4.9018,-4.9018,-4.9018,-4.9763,-5.0101,-4.1442,-4.2359,-4.247,-4.1111,-3.9533,-3.7801,-3.5698,-3.3339,-3.1429,-3.075,-2.9954,-2.9396,-2.9396,-2.9842,-3.0772,-3.237,-3.4525,-3.7113,-4.0383,-4.3689,-4.6364,-4.7999,-5.1082,-5.32,-5.3423,-5.5391,-5.6878,-5.7472,-5.8772,-5.9552,-5.9552,-6.0147,-6.0268,-5.9789,-6.0713,-6.075,-5.9789,-6.153,-6.2309,-6.2197,-6.3103,-6.3419,-6.3123,-6.278,-6.2083,-6.114,-6.079,-6.009,-5.9207,-5.9282,-5.9149,-5.9012,-5.9012,-5.8426,-5.7598,-5.784,-5.7633,-5.7253,-5.7495,-5.7081,-5.646,-5.646,-5.5563,-5.4598,-5.515,-5.4908,-5.4494,-5.4494,-5.4494,-5.4494,-5.4494,-5.4494,-5.4494,-5.4494,-5.4356,-5.3804,-5.2463,-5.2015,-5.1498,-5.0252,-5.0011,-5.0011,-5.0011,-5.0011,-5.0011,-5.0011,-5.0011,-4.9918,-4.9708,-4.9619,-4.9471,-4.9229,-4.9107,-4.9015,-4.8984,-4.9018,-4.9018,-4.9018,-4.9018,-4.9018,-4.9018,-4.9018,-4.9018,-4.9018,-4.9018,-4.9018,-4.9018,-4.9018,-4.9018,-4.9018,-4.9965,-5.0676,-4.0451,-4.1132,-4.0912,-4.012,-3.8704,-3.7118,-3.5551,-3.3339,-3.1429,-3.075,-2.9954,-2.9396,-2.9396,-2.9407,-2.9954,-3.1552,-3.3175,-3.5367,-3.8674,-4.1943,-4.4655,-4.6327,-4.941,-5.1751,-5.2531,-5.5577,-5.7509,-5.7509,-5.8252,-5.8735,-5.8735,-5.8735,-5.9043,-5.9789,-6.0713,-6.075,-5.9789,-6.153,-6.2309,-6.2197,-6.3012,-6.3265,-6.3002,-6.2376,-6.138,-6.0139,-6.025,-5.9523,-5.8279,-5.9007,-5.9149,-5.9012,-5.9012,-5.8116,-5.6909,-5.7633,-5.6943,-5.577,-5.6529,-5.6288,-5.56,-5.56,-5.5115,-5.4494,-5.4529,-5.4529,-5.4494,-5.4494,-5.4494,-5.4494,-5.4494,-5.4494,-5.4494,-5.4494,-5.3942,-5.3184,-5.236,-5.1602,-5.0907,-5.0149,-5.0011,-5.0011,-5.0011,-5.0011,-5.0011,-5.0011,-5.0011,-4.9918,-4.9708,-4.9708,-4.959,-4.9229,-4.9199,-4.9138,-4.9018,-4.9018,-4.9018,-4.9018,-4.9018,-4.9018,-4.9018,-4.9018,-4.9018,-4.9018,-4.9018,-4.9018,-4.9018,-4.9018,-4.9018,-4.9052,-5.0507,-5.2029,-3.8102,-3.9056,-3.9276,-3.8484,-3.7,-3.5399,-3.3839,-3.2084,-3.0593,-2.9868,-2.9551,-2.9396,-2.9396,-2.9396,-2.9917,-3.1552,-3.315,-3.533,-3.8637,-4.1943,-4.4618,-4.629,-4.941,-5.2382,-5.4909,-5.606,-5.7138,-5.8252,-5.8549,-5.8698,-5.8698,-5.8614,-5.864,-5.8828,-5.978,-6.0076,-5.9679,-6.0951,-6.1448,-6.1269,-6.1491,-6.1308,-6.0722,-6.0336,-5.9598,-5.8574,-5.844,-5.7942,-5.7318,-5.8045,-5.8287,-5.8254,-5.8254,-5.7667,-5.6771,-5.646,-5.6046,-5.5667,-5.5908,-5.5839,-5.5598,-5.5598,-5.5115,-5.4494,-5.4494,-5.4494,-5.4494,-5.4494,-5.4494,-5.4494,-5.4494,-5.4494,-5.4391,-5.3873,-5.3563,-5.3046,-5.1735,-5.1287,-5.0907,-5.0149,-5.0011,-5.0011,-5.0011,-5.0011,-5.0011,-5.0011,-5.0011,-4.9982,-4.9889,-4.9801,-4.9649,-4.956,-4.935,-4.9138,-4.9018,-4.9018,-4.9018,-4.9018,-4.9018,-4.9018,-4.9018,-4.9018,-4.9018,-4.9018,-4.9018,-4.9018,-4.9018,-4.9018,-4.9526,-5.0509,-5.098,-5.2029,-3.5495,-3.645,-3.6743,-3.6244,-3.5092,-3.377,-3.2525,-3.1286,-3.0164,-2.9439,-2.9334,-2.9376,-2.9396,-2.9396,-2.9917,-3.1552,-3.315,-3.533,-3.8637,-4.1943,-4.5064,-4.7999,-5.0673,-5.3348,-5.606,-5.658,-5.7286,-5.8624,-5.8698,-5.8677,-5.8635,-5.8551,-5.8443,-5.8327,-5.8983,-5.9285,-5.9132,-6.01,-6.0507,-6.0351,-6.0554,-6.0274,-5.9548,-5.924,-5.8452,-5.7319,-5.73,-5.692,0.0,-5.7185,-5.7495,-5.7495,-5.7495,-5.7012,-5.6288,-5.5805,-5.5426,-5.5184,-5.5184,-5.5184,-5.5184,-5.5184,-5.4874,-5.4494,-5.4494,-5.4494,-5.4494,-5.4494,-5.4494,-5.4494,-5.4494,-5.4287,-5.3977,-5.3529,-5.2977,-5.2287,-5.1321,-5.0907,-5.0562,-5.008,-5.0011,-5.0011,-5.0011,-5.0011,-5.0011,-5.0011,-5.0011,-5.0011,-5.0011,-4.9889,-4.9767,-4.9708,-4.95,-4.929,-4.9077,-4.9015,-4.9018,-4.9018,-4.9018,-4.9018,-4.9018,-4.9018,-4.9018,-4.9018,-4.9018,-4.9018,-4.9018,-4.9289,-5.0168,-5.1623,-5.1623,-5.23,0.0,-3.355,-3.3697,-3.3623,-3.3073,-3.2302,-3.1593,-3.0783,0.0,-2.9417,-2.9302,-2.9323,-2.9386,-2.9434,-2.9991,-3.1626,-3.3262,-3.5442,-3.8822,-4.2203,-4.6141,-5.1008,-5.2902,-5.45,-5.6209,-5.7063,-5.7843,-5.8661,-5.8698,-5.8635,-5.8529,-5.8508,-5.8422,-5.8215,-5.8327,-5.8371,-5.8393,-5.9132,-5.9501,-5.9501,-5.9987,-5.9821,-5.9087,-5.8685,-5.7665,-5.6287,-5.6675,-5.6314,-5.5598,-5.6391,-5.6702,-5.6702,-5.6702,-5.6253,-5.5566,-5.5563,-5.5115,-5.4494,-5.4494,-5.4494,-5.4494,-5.4494,-5.4494,-5.4494,-5.4494,-5.4494,-5.4494,-5.4494,-5.4494,-5.4494,-5.4494,-5.3942,-5.3391,-5.3322,-5.2183,-5.1114,-5.1045,-5.0493,-5.0011,-5.0011,-5.0011,-5.0011,-5.0011,-5.0011,-5.0011,-5.0011,-5.0011,-5.0011,-5.0011,-5.0011,-4.9918,-4.9737,-4.9708,-4.959,-4.926,-4.9077,-4.9018,-4.9018,-4.9018,-4.9018,-4.9018,-4.9018,-4.9018,-4.9018,-4.9052,-4.9086,-4.9086,-4.983,-5.0913,-5.23,-5.23,-5.2739,-2.8757,0.0,-3.2742,-3.2118,-3.1837,-3.147,0.0,-2.9938,-2.9321,-2.916,-2.9237,-2.9302,-2.9323,-2.9885,-3.0846,-3.2481,-3.4116,-3.6569,-4.0457,-4.4915,-4.9113,-5.2791,-5.3571,-5.4723,-5.6989,-5.7398,-5.7843,-5.8661,-5.8698,-5.8635,-5.8529,-5.8443,-5.8334,-5.8179,-5.8111,-5.8133,-5.826,-5.8534,-5.8644,-5.8518,-5.845,-5.7897,-5.6975,-5.6687,-5.5983,-5.496,-5.5038,-5.4975,-5.4839,-5.5598,-5.5908,-5.5908,-5.5908,-5.577,-5.5529,-5.4977,-5.4667,-5.4494,-5.4494,-5.4494,-5.4494,-5.4494,-5.4494,-5.4494,-5.4494,-5.4494,-5.4494,-5.4494,-5.4494,-5.4494,-5.4494,-5.3942,-5.3253,-5.2632,-5.177,-5.0976,-5.039,-5.0114,-5.0011,-5.0011,-5.0011,-5.0011,-5.0011,-5.0011,-5.0011,-5.0011,-5.0011,-5.0011,-5.0011,-5.0011,-4.9982,-4.9918,-4.9801,-4.9619,-4.9441,-4.926,-4.9107,-4.9018,-4.9018,-4.9018,-4.9018,-4.9018,-4.9018,-4.9018,-4.956,-4.983,-4.983,-5.0574,-5.142,-5.23,-5.23,-5.2739,-2.6973,-2.8755,-3.0393,-3.032,-3.0283,-3.0173,-2.9757,-2.9352,-2.9055,-2.9078,-2.9182,-2.9348,-2.9772,-3.0557,-3.163,-3.3287,-3.559,-3.8971,-4.4209,-4.8221,-5.1676,-5.4611,-5.528,-5.6172,-5.7881,-5.8066,-5.8252,-5.8661,-5.8698,-5.8614,-5.8465,-5.8437,-5.8327,-5.8111,-5.8042,-5.8065,-5.8179,-5.8201,-5.8201,-5.8215,-5.7881,-5.7202,-5.6276,-5.6007,-5.5378,-5.4494,-5.4494,-5.4494,-5.4529,-5.4943,-5.5115,-5.5115,-5.5115,-5.5115,-5.5046,-5.4667,-5.4494,-5.4494,-5.4494,-5.4494,-5.4494,-5.4494,-5.4494,-5.4494,-5.4494,-5.4494,-5.4494,-5.4494,-5.4494,-5.4425,-5.408,-5.3425,-5.2666,-5.1908,-5.1149,-5.0493,-5.008,-5.0011,-5.0011,-5.0011,-5.0011,-5.0011,-5.0011,-5.0011,-5.0011,-5.0011,-5.0011,-5.0011,-5.0011,-5.0011,-5.0011,-5.0011,-4.9889,-4.9772,-4.95,-4.9381,-4.9229,-4.8984,-4.9018,-4.9154,-4.9492,-4.9492,-4.9661,-4.9999,-5.0067,-5.0439,-5.1116,-5.1522,-5.2097,-5.2841,-5.2841,-5.3078,-2.6334,-2.7189,-2.8007,-2.895,-2.9464,-2.9647,-2.928,-2.917,-2.9145,-2.9104,-2.92,-2.954,-3.0343,-3.1339,-3.2659,-3.4476,-3.7931,-4.2389,-4.811,-5.0933,-5.3385,-5.5986,-5.6766,-5.7546,-5.8624,-5.8698,-5.8698,-5.8698,-5.8677,-5.8572,-5.8415,-5.8371,-5.826,-5.7997,-5.7973,-5.802,-5.8133,-5.8042,-5.8042,-5.8156,-5.7786,-5.7152,-5.6276,-5.6007,-5.5378,-5.4494,-5.4494,-5.4494,-5.4494,-5.4494,-5.4494,-5.4494,-5.4494,-5.4494,-5.4494,-5.4494,-5.4494,-5.4494,-5.4494,-5.4494,-5.4494,-5.4494,-5.4494,-5.4494,-5.4494,-5.4494,-5.4494,-5.4494,-5.4494,-5.4356,-5.3598,-5.2804,-5.2015,-5.1287,-5.0562,-5.0011,-5.0011,-5.0011,-5.0011,-5.0011,-5.0011,-5.0011,-5.0011,-5.0011,-5.0045,-5.0149,-5.0183,-5.0218,-5.0321,-5.0355,-5.0355,-5.0355,-5.0355,-5.0169,-4.9765,-4.9706,-4.9487,-4.908,-4.912,-4.9492,-5.0236,-5.027,-5.0574,-5.1217,-5.071,-5.1048,-5.23,-5.2435,-5.2841,-5.3518,-5.3518,-5.3518,-2.6098,-2.713,-2.8165,-2.9659,-3.1568,-3.2522,-3.0503,-3.0026,-2.9843,-2.9145,-2.9607,-3.0192,-3.0383,-3.2242,-3.4513,-3.6928,-4.2426,-4.6958,-4.8667,-5.045,-5.2754,-5.5912,-5.5763,-5.6283,-5.8475,-5.8698,-5.8698,-5.8698,-5.8593,-5.8486,-5.8393,-5.8305,-5.8156,-5.7997,-5.7904,-5.7857,-5.7881,-5.795,-5.802,-5.802,-5.7763,-5.7152,-5.6276,-5.6007,-5.5378,-5.4494,-5.4494,-5.4494,-5.4494,-5.4494,-5.4494,-5.4494,-5.4494,-5.4494,-5.4494,-5.4494,-5.4494,-5.4494,-5.4494,-5.4494,-5.4494,-5.4494,-5.4494,-5.4494,-5.4494,-5.4494,-5.4494,-5.4494,-5.4494,-5.4356,-5.3598,-5.2804,-5.2015,-5.1287,-5.0562,-5.0011,-5.0011,-5.0011,-5.0011,-5.0011,-5.0011,-5.0011,-5.0011,-5.0011,-5.0218,-5.0838,-5.0942,-5.1183,-5.1774,-5.1843,-5.1843,-5.1843,-5.1843,-5.1542,-5.0772,-5.0518,-5.0093,-4.9202,-4.9622,-5.027,-5.1014,-5.1048,-5.105,-5.1185,-5.1691,-5.2063,-5.23,-5.2976,-5.3382,-5.3518,-5.3518,-5.3518,-2.613,-2.7801,-2.9365,-3.054,-3.1678,-3.2192,-3.1091,-3.0834,-3.0723,-3.0356,-3.0968,-3.1826,-3.2871,-3.5053,-3.8104,-4.2485,-4.5361,-4.7961,-5.0525,-5.1936,-5.3608,-5.6023,-5.632,-5.6989,-5.8549,-5.8698,-5.8656,-5.8593,-5.8513,-5.8443,-5.8305,-5.8238,-5.8133,-5.7997,-5.7881,-5.7679,-5.7425,-5.7401,-5.7522,-5.7786,-5.7437,-5.6907,-5.6174,-5.5808,-5.5229,-5.4494,-5.4494,-5.4494,-5.4494,-5.4494,-5.4494,-5.4494,-5.4494,-5.4494,-5.4494,-5.4494,-5.4494,-5.4494,-5.4494,-5.4494,-5.4494,-5.4494,-5.4494,-5.4494,-5.4494,-5.4494,-5.4494,-5.4494,-5.4494,-5.4253,-5.308,-5.2494,-5.1912,-5.0804,-5.0252,-5.0011,-5.0011,-5.0011,-5.0011,-5.0011,-5.0011,-5.0011,-5.0011,-5.0321,-5.0735,-5.1045,-5.1429,-5.1808,-5.2153,-5.2188,-5.2188,-5.2188,-5.2188,-5.1882,-5.0974,-5.0815,-5.0461,-4.9718,-5.0302,-5.1048,-5.1758,-5.1792,-5.1995,-5.2435,-5.2367,-5.2503,-5.2942,-5.3315,-5.3518,-5.3518,-5.3518,-5.3518,-2.5884,-2.7923,-2.9843,-3.065,-3.1678,-3.2462,-3.2058,-3.2278,-3.2498,-3.2302,-3.3036,-3.4104,-3.5343,-3.7724,-4.1326,-4.683,-4.7516,-4.8556,-5.2085,-5.2977,-5.3905,-5.58,-5.6357,-5.71,-5.8326,-5.8586,-5.8635,-5.8492,-5.8508,-5.84,-5.8201,-5.8156,-5.8015,-5.774,-5.7564,-5.7158,-5.6523,-5.6526,-5.6819,-5.7277,-5.6959,-5.651,-5.5922,-5.5519,-5.5048,-5.4494,-5.4494,-5.4494,-5.4494,-5.4494,-5.4494,-5.4494,-5.4494,-5.4494,-5.4494,-5.4494,-5.4494,-5.4494,-5.4494,-5.4494,-5.4494,-5.4494,-5.4494,-5.4494,-5.4494,-5.4494,-5.4494,-5.4494,-5.4494,-5.4184,-5.2839,-5.2494,-5.2149,-5.0838,-5.0528,-5.0528,-5.0528,-5.0528,-5.0528,-5.0528,-5.0528,-5.0528,-5.0528,-5.1011,-5.1425,-5.1632,-5.2114,-5.2563,-5.2705,-5.2739,-5.2739,-5.2739,-5.2739,-5.2398,-5.1489,-5.1222,-5.094,-5.0704,-5.098,-5.1623,-5.2536,-5.257,-5.2875,-5.3484,-5.2909,-5.2875,-5.3518,-5.3518,-5.3518,-5.3518,-5.3518,-5.3518,-2.5157,-2.6664,-2.8154,-2.8987,-3.2596,-3.5532,-3.399,-3.4835,-3.5716,-3.4894,-3.6009,-3.6956,-3.6403,-3.9054,-4.269,-4.7016,-4.889,-5.0488,-5.2345,-5.2011,-5.2457,-5.4834,-5.45,-5.4983,-5.736,-5.8252,-5.8635,-5.8492,-5.8422,-5.8349,-5.8215,-5.8065,-5.7666,-5.6932,-5.6629,-5.5946,-5.4796,-5.5276,-5.5785,-5.6384,-5.6229,-5.5894,-5.5461,-5.5284,-5.4957,-5.4494,-5.4494,-5.4494,-5.4494,-5.4494,-5.4494,-5.4494,-5.4494,-5.4494,-5.4494,-5.4494,-5.4494,-5.4494,-5.4494,-5.4494,-5.4494,-5.4494,-5.4494,-5.4494,-5.4494,-5.4494,-5.4494,-5.4494,-5.4494,-5.4322,-5.3529,-5.3322,-5.3115,-5.2222,-5.2015,-5.2015,-5.2015,-5.2015,-5.2015,-5.2015,-5.2015,-5.2015,-5.2015,-5.2084,-5.239,-5.3115,-5.3287,-5.3563,-5.4253,-5.4356,-5.4356,-5.4356,-5.4356,-5.3983,-5.3035,-5.2127,-5.1836,-5.2393,-5.1654,-5.1894,-5.3348,-5.3416,-5.345,-5.3518,-5.345,-5.345,-5.3518,-5.3518,-5.3518,-5.3518,-5.3518,-5.3518,-2.5884,-2.7288,-2.8851,-3.0173,-3.2632,-3.4724,-3.4564,-3.5459,-3.6486,-3.7169,-3.8615,-4.0152,-4.1445,-4.2823,-4.4913,-4.8543,-4.9672,-5.0859,-5.3051,-5.3534,-5.3794,-5.4203,-5.4426,-5.4723,-5.5169,-5.5466,-5.5572,-5.541,-5.5348,-5.5281,-5.5089,-5.5045,-5.5097,-5.5317,-5.5035,-5.4652,-5.4179,-5.4189,-5.4323,-5.453,-5.5308,-5.5519,-5.5254,-5.5053,-5.4776,-5.4494,-5.4494,-5.4494,-5.4494,-5.4494,-5.4494,-5.4494,-5.4494,-5.4494,-5.4494,-5.4494,-5.4494,-5.4494,-5.4494,-5.4494,-5.4494,-5.4494,-5.4494,-5.4494,-5.4494,-5.4494,-5.4494,-5.4494,-5.4494,-5.4356,-5.3598,-5.3391,-5.3218,-5.2394,-5.2188,-5.2188,-5.2188,-5.2188,-5.2188,-5.2188,-5.2188,-5.2188,-5.2188,-5.2632,-5.3046,-5.3356,-5.3804,-5.4184,-5.446,-5.4494,-5.4494,-5.4494,-5.4115,-5.367,-5.3297,-5.2327,-5.197,-5.2689,-5.2226,-5.2367,-5.345,-5.3518,-5.3518,-5.3518,-5.3518,-5.3518,-5.3518,-5.3518,-5.3518,-5.3518,-5.3518,-5.3518,-2.6397,-2.7581,-2.9023,-3.0613,-3.2228,-3.3903,-3.5738,-3.6817,-3.7808,-3.9203,-4.0744,-4.2577,-4.4868,-4.4969,-4.5938,-4.975,-5.0025,-5.0673,-5.3423,-5.4054,-5.4054,-5.3497,-5.3905,-5.4054,-5.346,-5.3607,-5.3659,-5.3461,-5.342,-5.3334,-5.3146,-5.336,-5.3616,-5.3952,-5.3877,-5.3604,-5.3119,-5.306,-5.3041,-5.3046,-5.4196,-5.4834,-5.4957,-5.4776,-5.4655,-5.4494,-5.4494,-5.4494,-5.4494,-5.4494,-5.4494,-5.4494,-5.4494,-5.4494,-5.4494,-5.4494,-5.4494,-5.4494,-5.4494,-5.4494,-5.4494,-5.4494,-5.4494,-5.4494,-5.4494,-5.4494,-5.4494,-5.4494,-5.4494,-5.4391,-5.3873,-5.377,-5.3632,-5.308,-5.2942,-5.2942,-5.2942,-5.2942,-5.2942,-5.2942,-5.2942,-5.2942,-5.2942,-5.3391,-5.377,-5.377,-5.4184,-5.4494,-5.4494,-5.4494,-5.4494,-5.4494,-5.4046,-5.377,-5.377,-5.2972,-5.268,-5.316,-5.2902,-5.2975,-5.3484,-5.3281,-5.3247,-5.3518,-5.3247,-5.3247,-5.3518,-5.3518,-5.3518,-5.3518,-5.3518,-5.3518,-2.6527,-2.7156,-2.8227,-2.9843,-3.1445,-3.372,-3.7808,-3.9313,-4.012,-4.0948,-4.2396,-4.4009,-4.5752,-4.4844,-4.5463,-5.038,-4.9914,-5.0079,-5.3348,-5.3125,-5.2605,-5.2605,-5.2605,-5.2605,-5.2605,-5.3272,-5.3561,-5.3285,-5.3198,-5.3109,-5.298,-5.3602,-5.3675,-5.3017,-5.3274,-5.2772,-5.1398,-5.1793,-5.2044,-5.2188,-5.3011,-5.377,-5.4494,-5.4494,-5.4494,-5.4494,-5.4494,-5.4494,-5.4494,-5.4494,-5.4494,-5.4494,-5.4494,-5.4494,-5.4494,-5.4494,-5.4494,-5.4494,-5.4494,-5.4494,-5.4494,-5.4494,-5.4494,-5.4494,-5.4494,-5.4494,-5.4494,-5.4494,-5.4494,-5.4494,-5.4494,-5.4494,-5.4494,-5.4494,-5.4494,-5.4494,-5.4494,-5.4494,-5.4494,-5.4494,-5.4494,-5.4494,-5.4494,-5.4494,-5.4494,-5.4494,-5.4494,-5.4494,-5.4494,-5.4494,-5.4494,-5.4494,-5.4494,-5.4494,-5.4494,-5.4303,-5.4143,-5.4013,-5.3816,-5.3617,-5.3518,-5.2739,-5.2706,-5.3484,-5.2706,-5.2706,-5.3518,-5.3518,-5.3518,-5.3518,-5.3518,-5.3518,-2.7926,-2.928,-3.0834,-3.3023,-3.4835,-3.6817,-3.9717,-4.012,-4.0598,-4.313,-4.3571,-4.3845,-4.4928,-4.5768,-4.6998,-4.9104,-5.0602,-5.2011,-5.3493,-5.3551,-5.3199,-5.2529,-5.2549,-5.2345,-5.1677,-5.173,-5.1607,-5.1098,-5.1155,-5.1128,-5.0897,-5.1173,-5.1449,-5.1732,-5.1654,-5.1379,-5.0991,-5.1021,-5.1157,-5.1459,-5.1666,-5.2735,-5.4494,-5.4494,-5.4494,-5.4494,-5.4494,-5.4494,-5.4494,-5.4494,-5.4494,-5.4494,-5.4494,-5.4494,-5.4494,-5.4494,-5.4494,-5.4494,-5.4494,-5.4494,-5.4494,-5.4494,-5.4494,-5.4494,-5.4494,-5.4494,-5.4494,-5.4494,-5.4494,-5.4494,-5.4494,-5.4494,-5.4494,-5.4494,-5.4494,-5.4494,-5.4494,-5.4494,-5.4494,-5.4494,-5.4494,-5.4494,-5.4494,-5.4494,-5.4494,-5.4494,-5.4494,-5.4494,-5.4494,-5.4494,-5.4494,-5.4494,-5.4494,-5.4494,-5.4494,-5.4303,-5.4207,-5.4143,-5.3882,-5.3617,-5.3518,-5.3281,-5.3281,-5.3518,-5.3281,-5.3281,-5.3518,-5.3518,-5.3518,-5.3518,-5.3518,-5.3518,-2.9427,-3.065,-3.2045,-3.4821,-3.6743,-3.8689,-4.1442,-4.1662,-4.1956,-4.4232,-4.4305,-4.4121,-4.4635,-4.6157,-4.7757,-4.8993,-5.0787,-5.2399,-5.3528,-5.3696,-5.3363,-5.2509,-5.2454,-5.214,-5.1287,-5.1005,-5.0652,-5.0069,-5.0105,-5.0097,-4.9839,-5.0141,-5.0538,-5.1017,-5.0964,-5.0835,-5.0721,-5.053,-5.0667,-5.1114,-5.1114,-5.1977,-5.3598,-5.3598,-5.3598,-5.3598,-5.3598,-5.377,-5.408,-5.408,-5.4253,-5.4494,-5.4494,-5.4494,-5.4494,-5.4494,-5.4494,-5.4494,-5.4494,-5.4494,-5.4494,-5.4494,-5.4494,-5.4494,-5.4494,-5.4494,-5.4494,-5.4494,-5.4494,-5.4494,-5.4494,-5.4494,-5.4494,-5.4494,-5.4494,-5.4494,-5.4494,-5.4494,-5.4494,-5.4494,-5.4494,-5.4494,-5.4494,-5.4494,-5.4494,-5.4494,-5.4494,-5.4494,-5.4494,-5.4494,-5.4494,-5.4494,-5.4494,-5.4494,-5.4494,-5.4367,-5.4303,-5.4207,-5.398,-5.375,-5.3584,-5.3213,-5.3179,-5.3484,-5.3179,-5.3179,-5.3518,-5.3518,-5.3518,-5.3518,-5.3518,-5.3518,-3.0736,-3.158,-3.2485,-3.5716,-3.7845,-3.9937,-4.3037,-4.3662,-4.3791,-4.4452,-4.4654,-4.4691,-4.4691,-4.625,-4.8034,-4.9621,-5.0674,-5.1875,-5.3452,-5.3578,-5.3262,-5.2544,-5.2449,-5.2134,-5.1471,-5.1109,-5.0686,-5.0095,-4.9997,-4.9896,-4.9733,-5.0258,-5.0615,-5.0797,-5.0915,-5.083,-5.053,-5.0313,-5.0466,-5.1011,-5.1011,-5.1326,-5.1981,-5.2119,-5.2188,-5.2188,-5.2188,-5.2632,-5.3287,-5.3356,-5.3804,-5.4425,-5.4494,-5.4494,-5.4494,-5.4494,-5.4494,-5.4494,-5.4494,-5.4494,-5.4494,-5.4494,-5.4494,-5.4494,-5.4494,-5.4494,-5.4494,-5.4494,-5.4494,-5.4494,-5.4494,-5.4494,-5.4494,-5.4494,-5.4494,-5.4494,-5.4494,-5.4494,-5.4494,-5.4494,-5.4494,-5.4494,-5.4494,-5.4494,-5.4494,-5.4494,-5.4494,-5.4494,-5.4494,-5.4494,-5.4494,-5.4494,-5.4494,-5.4494,-5.4494,-5.4494,-5.4399,-5.4239,-5.4078,-5.3915,-5.375,-5.2873,-5.2739,-5.3484,-5.2773,-5.2773,-5.3518,-5.3518,-5.3518,-5.3518,-5.3518,-5.3551,-3.0577,-3.2779,-3.4857,-3.7514,-4.0341,-4.2983,-4.4929,-4.4892,-4.4305,-4.3864,-4.4268,-4.4691,-4.4691,-4.7169,-4.9304,-4.9674,-5.1595,-5.3091,-5.3363,-5.344,-5.3387,-5.3121,-5.3182,-5.3128,-5.2863,-5.2637,-5.2148,-5.1322,-5.1225,-5.1002,-5.0576,-5.0769,-5.084,-5.0823,-5.0724,-5.0537,-5.012,-5.0063,-5.0109,-5.0252,-5.0252,-5.0321,-5.0528,-5.1671,-5.2188,-5.2188,-5.2188,-5.2291,-5.2528,-5.3149,-5.3494,-5.3701,-5.4287,-5.4494,-5.4494,-5.4494,-5.4494,-5.4494,-5.4494,-5.4494,-5.4494,-5.4494,-5.4494,-5.4494,-5.4494,-5.4494,-5.4494,-5.4494,-5.4494,-5.4494,-5.4494,-5.4494,-5.4494,-5.4494,-5.4494,-5.4494,-5.4494,-5.4494,-5.4494,-5.4494,-5.4494,-5.4494,-5.4494,-5.4494,-5.4494,-5.4494,-5.4494,-5.4494,-5.4494,-5.4494,-5.4494,-5.4494,-5.4494,-5.4494,-5.4494,-5.4494,-5.4463,-5.4431,-5.4143,-5.398,-5.3948,-5.3482,-5.3315,-5.3518,-5.3348,-5.3348,-5.3518,-5.3518,-5.3518,-5.3518,-5.3518,-5.3822,-3.1458,-3.3757,-3.6068,-4.0471,-4.1956,-4.2983,-4.5369,-4.4966,-4.4011,-4.3571,-4.3828,-4.4232,-4.4635,-4.7058,-4.9173,-4.9636,-5.1772,-5.3355,-5.3318,-5.3318,-5.3355,-5.3318,-5.3318,-5.3355,-5.3318,-5.3066,-5.2545,-5.1651,-5.1525,-5.127,-5.0721,-5.0694,-5.0694,-5.0694,-5.0502,-5.0257,-5.0011,-5.0011,-5.0011,-5.0011,-5.0011,-5.0011,-5.0045,-5.0804,-5.1149,-5.1149,-5.1149,-5.1356,-5.1735,-5.2149,-5.2735,-5.3425,-5.3839,-5.4184,-5.4494,-5.4494,-5.4494,-5.4494,-5.4494,-5.4494,-5.4494,-5.4494,-5.4494,-5.4494,-5.4494,-5.4494,-5.4494,-5.4494,-5.4494,-5.4494,-5.4494,-5.4494,-5.4494,-5.4494,-5.4494,-5.4494,-5.4494,-5.4494,-5.4494,-5.4494,-5.4494,-5.4494,-5.4494,-5.4494,-5.4494,-5.4494,-5.4494,-5.4494,-5.4494,-5.4494,-5.4494,-5.4494,-5.4494,-5.4494,-5.4494,-5.4494,-5.4431,-5.437,-5.411,-5.3948,-5.3849,-5.3618,-5.3518,-5.3518,-5.3518,-5.3518,-5.3518,-5.3518,-5.3518,-5.3518,-5.3518,-5.389,-3.1959,-3.4243,-3.6868,-4.3115,-4.2915,-4.2052,-4.5003,-4.4654,-4.3664,-4.3534,-4.3608,-4.3901,-4.4599,-4.6801,-4.8766,-4.9561,-5.1671,-5.3209,-5.3256,-5.323,-5.3172,-5.3093,-5.301,-5.2952,-5.2872,-5.2709,-5.2236,-5.1437,-5.1378,-5.1114,-5.0502,-5.0397,-5.0369,-5.0474,-5.0285,-5.012,-5.0011,-5.0011,-5.0011,-5.0011,-5.0011,-5.0011,-5.0011,-5.0011,-5.0011,-5.0011,-5.0011,-5.0355,-5.0942,-5.1045,-5.1873,-5.3046,-5.3287,-5.377,-5.4322,-5.446,-5.4494,-5.4494,-5.4494,-5.4494,-5.4494,-5.4494,-5.4494,-5.4494,-5.4494,-5.4494,-5.4494,-5.4494,-5.4494,-5.4494,-5.4494,-5.4494,-5.4494,-5.4494,-5.4494,-5.4494,-5.4494,-5.4494,-5.4494,-5.4494,-5.4494,-5.4494,-5.4494,-5.4494,-5.4494,-5.4494,-5.4494,-5.4494,-5.4494,-5.4494,-5.4494,-5.4494,-5.4494,-5.4494,-5.4494,-5.4463,-5.4402,-5.4209,-5.4013,-5.3882,-5.3717,-5.3584,-5.3518,-5.3518,-5.3518,-5.3518,-5.3518,-5.3518,-5.3518,-5.3518,-5.3518,-5.3957,-2.9869,-3.3679,-3.8125,-4.316,-4.316,-4.2375,-4.4345,-4.462,-4.4272,-4.3627,-4.4048,-4.4544,-4.4654,-4.7241,-4.9407,-4.9593,-5.161,-5.3188,-5.3188,-5.3225,-5.2931,-5.2254,-5.2181,-5.1867,-5.1189,-5.1532,-5.1402,-5.0615,-5.0957,-5.0884,-5.012,-5.0068,-5.0068,-5.0063,-5.0068,-5.004,-5.0011,-5.0011,-5.0011,-5.0011,-5.0011,-5.0011,-5.0011,-5.0011,-5.0011,-5.0011,-5.0011,-5.008,-5.0218,-5.0838,-5.1218,-5.1563,-5.2873,-5.346,-5.3632,-5.4253,-5.4494,-5.4494,-5.4494,-5.4494,-5.4494,-5.4494,-5.4494,-5.4494,-5.4494,-5.4494,-5.4494,-5.4494,-5.4494,-5.4494,-5.4494,-5.4494,-5.4494,-5.4494,-5.4494,-5.4494,-5.4494,-5.4494,-5.4494,-5.4494,-5.4494,-5.4494,-5.4494,-5.4494,-5.4494,-5.4494,-5.4494,-5.4494,-5.4494,-5.4494,-5.4494,-5.4494,-5.4494,-5.4494,-5.4494,-5.4338,-5.4242,-5.4209,-5.3915,-5.375,-5.3717,-5.3584,-5.3518,-5.3518,-5.3518,-5.3518,-5.3518,-5.3518,-5.3518,-5.3518,-5.3518,-5.4262,-3.0823,-3.4685,-3.8483,-4.2279,-4.2768,-4.2755,-4.4577,-4.4727,-4.4437,-4.4233,-4.4085,-4.4158,-4.4618,-4.6599,-4.8453,-4.937,-5.1206,-5.2711,-5.3151,-5.3124,-5.281,-5.1967,-5.1831,-5.1459,-5.0655,-5.1057,-5.1007,-5.035,-5.0716,-5.0667,-5.004,-5.0011,-5.0011,-5.0011,-5.0011,-5.0011,-5.0011,-5.0011,-5.0011,-5.0011,-5.0011,-5.0011,-5.0011,-5.0011,-5.0011,-5.0011,-5.0011,-5.0011,-5.0045,-5.0355,-5.0735,-5.1183,-5.1873,-5.2632,-5.3425,-5.377,-5.4149,-5.4494,-5.4494,-5.4494,-5.4494,-5.4494,-5.4494,-5.4494,-5.4494,-5.4494,-5.4494,-5.4494,-5.4494,-5.4494,-5.4494,-5.4494,-5.4494,-5.4494,-5.4494,-5.4494,-5.4494,-5.4494,-5.4494,-5.4494,-5.4494,-5.4494,-5.4494,-5.4494,-5.4494,-5.4494,-5.4494,-5.4335,-5.3982,-5.4274,-5.4494,-5.4494,-5.4494,-5.4494,-5.4494,-5.4239,-5.4014,-5.3817,-5.3717,-5.3684,-5.3584,-5.3517,-5.3518,-5.3518,-5.3518,-5.3518,-5.3518,-5.3518,-5.3518,-5.3518,-5.3518,-5.4296,-3.1769,-3.4873,-3.7572,-4.0948,-4.1884,-4.2416,-4.4275,-4.4665,-4.4636,-4.462,-4.4161,-4.3904,-4.4545,-4.5993,-4.748,-4.871,-5.0618,-5.2197,-5.2821,-5.2935,-5.2593,-5.1469,-5.1231,-5.0649,-4.9349,-4.9839,-4.9972,-4.9238,-4.9952,-5.0223,-4.9729,-4.9907,-5.0011,-5.0011,-5.0011,-5.0011,-5.0011,-5.0011,-5.0011,-5.0011,-5.0011,-5.0011,-5.0011,-5.0011,-5.0011,-5.0011,-5.0011,-5.0011,-5.0011,-5.0011,-5.0321,-5.0838,-5.1045,-5.1942,-5.3115,-5.3322,-5.3873,-5.4494,-5.4494,-5.4494,-5.4494,-5.4494,-5.4494,-5.4494,-5.4494,-5.4494,-5.4494,-5.4494,-5.4494,-5.4494,-5.4494,-5.4494,-5.4494,-5.4494,-5.4494,-5.4494,-5.4494,-5.4494,-5.4494,-5.4494,-5.4494,-5.4494,-5.4494,-5.4494,-5.4494,-5.4494,-5.4335,-5.408,-5.3551,-5.3949,-5.4303,-5.4463,-5.4494,-5.4494,-5.4494,-5.411,-5.3784,-5.3518,-5.3584,-5.3618,-5.3518,-5.3518,-5.3518,-5.3518,-5.3518,-5.3518,-5.3518,-5.3518,-5.3518,-5.3518,-5.3687,-5.4465,-3.1461,-3.2944,-3.465,-3.9229,-4.0417,-4.0869,-4.2646,-4.4169,-4.5098,-4.4526,-4.4381,-4.4418,-4.4583,-4.5957,-4.7113,-4.7223,-4.9921,-5.2013,-5.205,-5.259,-5.2287,-5.0344,-5.0045,-4.8942,-4.6217,-4.7237,-4.7606,-4.6488,-4.8373,-4.9373,-4.8872,-4.9597,-5.0011,-5.0011,-5.0011,-5.0011,-5.0011,-5.0011,-5.0011,-5.0011,-5.0011,-5.0011,-5.0011,-5.0011,-5.0011,-5.0011,-5.0011,-5.0011,-5.0011,-5.0011,-5.0011,-5.0149,-5.0838,-5.1597,-5.2326,-5.3115,-5.3873,-5.4494,-5.4494,-5.4494,-5.4494,-5.4494,-5.4494,-5.4494,-5.4494,-5.4494,-5.4494,-5.4494,-5.4494,-5.4494,-5.4494,-5.4494,-5.4494,-5.4494,-5.4494,-5.4494,-5.4494,-5.4494,-5.4494,-5.4494,-5.4494,-5.4494,-5.4494,-5.4494,-5.4494,-5.4494,-5.3949,-5.3551,-5.3518,-5.3551,-5.3784,-5.4431,-5.4494,-5.4494,-5.4494,-5.3916,-5.3551,-5.3518,-5.3518,-5.3518,-5.3518,-5.3518,-5.3518,-5.3518,-5.3518,-5.3518,-5.3518,-5.3518,-5.3518,-5.3518,-5.4228,-5.4972,-2.9251,-3.108,-3.3137,-3.6148,-3.8132,-3.9584,-4.0664,-4.221,-4.3492,-4.3728,-4.3468,-4.3404,-4.4084,-4.4837,-4.5571,-4.6176,-4.7621,-4.8862,-4.9431,-5.0387,-5.0488,-4.9131,-4.9625,-4.9257,-4.7193,-4.7756,-4.7875,-4.685,-4.832,-4.9118,-4.8838,-4.9562,-5.0011,-5.0011,-5.0011,-5.0011,-5.0011,-5.0011,-5.0011,-5.0011,-5.0011,-5.0011,-5.0011,-5.0011,-5.0011,-5.0011,-5.0011,-5.0011,-5.0011,-5.0011,-5.0011,-5.0045,-5.0287,-5.1149,-5.2222,-5.2528,-5.3425,-5.4494,-5.4494,-5.4494,-5.4494,-5.4494,-5.4494,-5.4494,-5.4494,-5.4494,-5.4494,-5.4494,-5.4494,-5.4494,-5.4494,-5.4494,-5.4494,-5.4494,-5.4494,-5.4701,-5.5322,-5.4977,-5.4494,-5.4494,-5.4494,-5.4494,-5.4494,-5.4494,-5.4989,-5.6474,-5.6468,-5.5649,-5.3754,-5.3518,-5.3584,-5.3817,-5.385,-5.385,-5.385,-5.3618,-5.3518,-5.3518,-5.3518,-5.3518,-5.3518,-5.3518,-5.3518,-5.3518,-5.3518,-5.3518,-5.3518,-5.3518,-5.3518,-5.3518,-5.4262,-5.5006,-2.7755,-2.9462,-3.1348,-3.3498,-3.57,-3.756,-3.8563,-4.0245,-4.198,-4.315,-4.3089,-4.3124,-4.4097,-4.418,-4.4336,-4.5092,-4.6037,-4.6812,-4.7239,-4.8251,-4.8595,-4.7757,-4.834,-4.8211,-4.6685,-4.7079,-4.7021,-4.5898,-4.7557,-4.8467,-4.8079,-4.9286,-5.0011,-5.0011,-5.0011,-5.0011,-5.0011,-5.0011,-5.0011,-5.0011,-5.0011,-5.0011,-5.0011,-5.0011,-5.0011,-5.0011,-5.0011,-5.0011,-5.0011,-5.0011,-5.0011,-5.0011,-5.0011,-5.0907,-5.2188,-5.2188,-5.3184,-5.4494,-5.4494,-5.4494,-5.4494,-5.4494,-5.4494,-5.4494,-5.4494,-5.4494,-5.4494,-5.4494,-5.4494,-5.4494,-5.4494,-5.477,-5.5046,-5.5219,-5.5391,-5.5667,-5.6184,-5.5357,-5.4598,-5.4943,-5.4736,-5.4494,-5.4494,-5.513,-5.6167,-5.7649,-5.7881,-5.7171,-5.5243,-5.4972,-5.4972,-5.4972,-5.4093,-5.3518,-5.3518,-5.3518,-5.3518,-5.3518,-5.3518,-5.3518,-5.3518,-5.3518,-5.3518,-5.3518,-5.3518,-5.3518,-5.3518,-5.3518,-5.3619,-5.389,-5.4634,-5.5513,0.0,0.0,0.0,-3.1496,-3.3181,-3.4722,-3.6325,-3.842,-4.0584,-4.2802,-4.3301,-4.3671,-4.4626,-4.4035,-4.3498,-4.3943,-4.5228,-4.6059,-4.5738,-4.632,-4.6648,-4.6174,-4.6084,-4.5566,-4.444,-4.4975,-4.4803,-4.3345,-4.5941,-4.732,-4.6665,-4.8769,-5.0011,-5.0011,-5.0011,-5.0011,-5.0011,-5.0011,-5.0011,-5.0011,-5.0011,-5.0011,-5.0011,-5.0011,-5.0011,-5.0011,-5.0011,-5.0011,-5.0011,-5.0011,-5.0011,-5.0011,-5.0011,-5.0907,-5.2188,-5.2188,-5.3184,-5.4494,-5.4494,-5.4494,-5.4494,-5.4494,-5.4494,-5.4494,-5.4494,-5.4494,-5.4494,-5.4494,-5.4529,-5.4563,-5.4563,-5.5288,-5.615,-5.6667,-5.7116,-5.7357,-5.6874,-5.5598,-5.4805,-5.577,-5.5184,-5.4529,-5.4632,-5.6474,-5.7918,-5.7881,-5.7881,-5.7881,-5.7881,-5.7881,-5.7881,-5.7881,-5.5243,-5.3518,-5.3518,-5.3518,-5.3518,-5.3518,-5.3518,-5.3518,-5.3518,-5.3518,-5.3518,-5.3518,-5.3518,-5.3551,-5.3551,-5.3518,-5.389,-5.46,-5.5378,-5.6528,-2.6596,0.0,0.0,0.0,0.0,0.0,-3.3927,-3.599,-3.7953,-3.9211,-4.0044,-4.094,-4.2206,-4.2277,-4.2178,-4.2221,-4.2825,-4.3194,-4.301,-4.4018,-4.4636,-4.4423,-4.5705,-4.6204,-4.5182,-4.5259,-4.501,-4.4069,-4.4794,-4.563,-4.6562,-4.8769,-5.0011,-5.0011,-5.0011,-5.0011,-5.0011,-5.0011,-5.0011,-5.0011,-5.0011,-5.0011,-5.0011,-5.0011,-5.0011,-5.0011,-5.0011,-5.0011,-5.0011,-5.0011,-5.0011,-5.0011,-5.0011,-5.0907,-5.2188,-5.2188,-5.3184,-5.4494,-5.4494,-5.4494,-5.4494,-5.4494,-5.4494,-5.4494,-5.4494,-5.4494,-5.4494,-5.4494,-5.4908,-5.5426,-5.6012,-5.6357,-5.6529,-5.6288,-5.6322,-5.6495,-5.6736,-5.5598,-5.4598,-5.4874,-5.4701,-5.5184,-5.7391,-5.829,-5.8526,-5.7991,-5.7881,-5.7881,-5.7881,-5.7881,-5.7881,-5.7881,-5.5243,-5.3518,-5.3518,-5.3518,-5.3518,-5.3518,-5.3518,-5.3518,-5.3518,-5.3518,-5.3518,-5.3518,-5.4025,-5.4296,-5.4296,-5.3754,-5.389,-5.4634,-5.5919,-5.7002,-2.6869,-2.742,-2.8117,-2.9402,0.0,0.0,-3.2173,-3.3851,-3.5681,-3.7379,-3.8455,-3.9499,-4.0955,-4.1251,-4.1124,-4.0686,-4.075,-4.094,-4.142,-4.2137,-4.2718,-4.296,-4.4064,-4.4699,-4.4492,-4.4492,-4.4147,-4.3414,-4.3931,-4.5105,-4.6975,-4.8321,-4.9355,-4.9976,-5.0011,-5.0011,-5.0011,-5.0011,-5.0011,-5.0011,-5.0011,-5.0011,-5.0011,-5.0011,-5.0011,-5.0011,-5.0011,-5.0011,-5.0011,-5.0011,-5.0011,-5.0011,-5.0011,-5.0907,-5.2188,-5.2188,-5.3184,-5.4494,-5.4494,-5.4494,-5.4494,-5.4494,-5.4494,-5.4494,-5.4494,-5.4494,-5.4563,-5.4874,-5.5529,-5.6288,-5.7081,-5.7253,-5.7253,-5.7253,-5.7253,-5.7357,-5.7667,-5.7012,-5.6391,-5.6391,-5.6391,-5.6943,-5.8702,-5.9012,-5.884,-5.8421,-5.8099,-5.7881,-5.7881,-5.7881,-5.7881,-5.7881,-5.5243,-5.3518,-5.3518,-5.3518,-5.3518,-5.3518,-5.3518,-5.3518,-5.3518,-5.3518,-5.3653,-5.3957,-5.4363,-5.46,-5.46,-5.416,-5.4329,-5.5108,-5.6562,-5.7476,-2.786,-2.8081,-2.8227,-2.895,-2.9563,0.0,-3.0925,-3.2059,-3.3723,-3.6399,-3.7573,-3.8567,-4.0111,-4.0303,-3.9982,-3.9221,-3.9042,-3.9403,-4.0607,-4.0791,-4.1032,-4.1792,-4.1964,-4.2275,-4.3,-4.3069,-4.2758,-4.2043,-4.3345,-4.5079,-4.7217,-4.7562,-4.839,-4.9838,-4.9942,-5.0011,-5.0011,-5.0011,-5.0011,-5.0011,-5.0011,-5.0011,-5.0011,-5.0011,-5.0011,-5.0011,-5.0011,-5.0011,-5.0011,-5.0011,-5.0011,-5.0011,-5.0011,-5.0907,-5.2188,-5.2188,-5.3184,-5.4494,-5.4494,-5.4494,-5.4494,-5.4494,-5.4494,-5.4494,-5.4494,-5.4563,-5.4805,-5.5632,-5.6391,-5.7081,-5.784,-5.8012,-5.8185,-5.884,-5.9012,-5.9012,-5.9012,-5.9012,-5.9012,-5.9012,-5.9012,-5.9012,-5.9012,-5.9012,-5.9012,-5.9012,-5.8456,-5.7991,-5.7918,-5.7881,-5.7746,-5.7442,-5.5074,-5.3518,-5.3518,-5.3518,-5.3518,-5.3518,-5.3518,-5.3518,-5.3518,-5.3518,-5.3856,-5.4566,-5.4769,-5.4837,-5.4837,-5.4769,-5.5006,-5.5615,-5.7103,-5.778,-2.9696,-2.9732,-2.9769,-2.9953,-2.9599,0.0,-3.0198,-3.1062,-3.2142,-3.3743,-3.4643,-3.5553,-3.6862,-3.7532,-3.7749,-3.7391,-3.8258,-3.9216,-3.9848,-3.9939,-4.0215,-4.1032,-4.1654,-4.2068,-4.224,-4.224,-4.2171,-4.2009,-4.2896,-4.3862,-4.4932,-4.67,-4.8086,-4.8982,-4.9666,-5.0011,-5.0011,-5.0011,-5.0011,-5.0011,-5.0011,-5.0011,-5.0011,-5.0011,-5.0011,-5.0011,-5.0011,-5.0011,-5.0011,-5.0011,-5.0011,-5.0011,-5.0011,-5.0907,-5.2188,-5.2188,-5.3184,-5.4494,-5.4494,-5.4494,-5.4494,-5.4494,-5.4494,-5.4494,-5.4494,-5.4908,-5.5667,-5.7081,-5.7564,-5.7874,-5.8599,-5.8806,-5.884,-5.8978,-5.9012,-5.9012,-5.9012,-5.9012,-5.9012,-5.9012,-5.9012,-5.9012,-5.9012,-5.9012,-5.9012,-5.9012,-5.8875,-5.8562,-5.7991,-5.7881,-5.6968,-5.46,-5.3856,-5.3518,-5.3518,-5.3518,-5.3518,-5.3518,-5.3518,-5.3518,-5.3518,-5.3518,-5.3856,-5.4566,-5.575,-5.6359,-5.6359,-5.5784,-5.5243,-5.4837,-5.6325,-5.7002,-3.0797,-3.0797,-3.0687,-3.0283,-2.9916,0.0,0.0,-3.0174,-3.111,-3.2565,-3.3364,-3.4238,-3.5641,-3.6025,-3.6075,-3.5833,-3.6601,-3.7422,-3.7948,-3.8974,-4.0008,-4.0791,-4.124,-4.1447,-4.1447,-4.1447,-4.1447,-4.1447,-4.1826,-4.2551,-4.369,-4.5182,-4.6527,-4.7672,-4.8459,-4.8872,-4.8872,-4.8872,-4.9045,-4.9424,-4.9424,-4.9631,-5.0011,-5.0011,-5.0011,-5.0011,-5.0011,-5.0011,-5.0011,-5.0011,-5.0011,-5.0011,-5.0011,-5.0907,-5.2188,-5.2188,-5.3184,-5.4494,-5.4494,-5.4494,-5.4494,-5.4494,-5.4494,-5.4494,-5.4494,-5.5322,-5.6357,-5.715,-5.7874,-5.853,-5.8909,-5.9012,-5.9012,-5.9012,-5.9012,-5.9012,-5.9012,-5.9012,-5.9012,-5.9012,-5.9012,-5.9012,-5.9012,-5.9012,-5.9012,-5.9012,-5.9012,-5.8736,-5.7991,-5.6596,-5.5141,-5.3653,-5.3518,-5.3518,-5.3518,-5.3518,-5.3518,-5.3518,-5.3518,-5.3518,-5.3518,-5.3518,-5.4025,-5.5141,-5.6596,-5.7171,-5.6799,-5.6427,-5.6055,-5.5716,-5.6833,-5.734,-3.2351,-3.2131,-3.1678,-3.087,-3.043,-2.9989,0.0,0.0,0.0,-3.1681,-3.236,-3.3103,-3.446,-3.4585,-3.4391,-3.4147,-3.4646,-3.5268,-3.5808,-3.756,-3.9215,-4.0342,-4.0584,-4.0687,-4.0687,-4.0687,-4.0722,-4.0894,-4.0894,-4.1516,-4.2896,-4.3828,-4.4967,-4.6355,-4.7113,-4.7603,-4.7913,-4.7913,-4.8293,-4.9016,-4.9016,-4.9361,-5.0011,-5.0011,-5.0011,-5.0011,-5.0011,-5.0011,-5.0011,-5.0011,-5.0011,-5.0011,-5.0011,-5.0907,-5.2188,-5.2188,-5.3184,-5.4494,-5.4494,-5.4494,-5.4494,-5.4494,-5.4494,-5.4529,-5.4667,-5.5598,-5.6598,-5.6771,-5.7667,-5.8599,-5.8599,-5.8668,-5.8737,-5.8737,-5.8875,-5.884,-5.8254,-5.8599,-5.9012,-5.9012,-5.9012,-5.884,-5.8254,-5.815,-5.815,-5.815,-5.815,-5.7878,-5.7143,-5.4972,-5.3518,-5.3518,-5.3518,-5.3518,-5.3518,-5.3518,-5.3518,-5.3518,-5.3518,-5.3518,-5.3518,-5.3788,-5.4566,-5.5919,-5.7205,-5.7611,-5.7002,-5.7002,-5.6867,-5.6596,-5.734,-5.7679,-3.5752,-3.4651,-3.333,-3.2522,-3.1262,-2.9989,-2.917,0.0,-2.9379,-3.0259,0.0,-3.0682,-3.1384,0.0,0.0,-3.1698,-3.2686,-3.3726,-3.4254,-3.5145,-3.649,-3.8617,-3.9422,-3.9836,-3.9836,-3.9836,-4.0112,-4.086,-4.0894,-4.1274,-4.2102,-4.3517,-4.4665,-4.55,-4.6293,-4.7327,-4.8637,-4.8672,-4.9079,-4.9873,-4.9873,-4.9907,-5.0011,-5.0011,-5.0011,-5.0011,-5.0011,-5.0011,-5.0011,-5.0011,-5.0011,-5.0011,-5.0011,-5.0907,-5.2188,-5.2188,-5.3184,-5.4494,-5.4494,-5.4494,-5.4494,-5.4494,-5.4494,-5.4632,-5.5288,-5.5598,-5.5908,-5.6598,-5.6909,-5.7047,-5.7047,-5.7357,-5.7667,-5.7667,-5.8357,-5.8288,-5.5598,-5.7116,-5.9012,-5.9012,-5.9012,-5.815,-5.5495,-5.5012,-5.5012,-5.5012,-5.5012,-5.4754,-5.4093,-5.3721,-5.3518,-5.3518,-5.3518,-5.3518,-5.3518,-5.3518,-5.3518,-5.3518,-5.3518,-5.3518,-5.3518,-5.4769,-5.5852,-5.6664,-5.7476,-5.7848,-5.778,-5.778,-5.7103,-5.5817,-5.6596,-5.6934,-3.7015,-3.5752,-3.4197,-3.2913,-3.1751,-3.0577,-2.928,-2.9318,-2.9881,-3.0662,0.0,0.0,0.0,0.0,0.0,0.0,-3.2562,-3.325,-3.3371,-3.4076,-3.5214,-3.7042,-3.7939,-3.8594,-3.9008,-3.8663,-3.8755,-3.9514,-3.9939,-4.0526,-4.1343,-4.2827,-4.4,-4.4734,-4.5079,-4.5975,-4.75,-4.7527,-4.812,-4.9292,-4.9292,-4.9562,-5.0011,-5.0011,-5.0011,-5.0011,-5.0011,-5.0011,-5.0011,-5.0011,-5.0011,-5.0011,-5.0011,-5.0907,-5.2188,-5.2188,-5.3184,-5.4494,-5.4494,-5.4494,-5.4494,-5.4494,-5.4494,-5.4563,-5.4874,-5.5288,-5.577,-5.6564,-5.7116,-5.7529,-5.7978,-5.7909,-5.7564,-5.6805,-5.6978,-5.6771,-5.4908,-5.5495,-5.6391,-5.6391,-5.6391,-5.6012,-5.4736,-5.4494,-5.4494,-5.4494,-5.4494,-5.4274,-5.3618,-5.3518,-5.3518,-5.3518,-5.3518,-5.3518,-5.3518,-5.3518,-5.3518,-5.3518,-5.3518,-5.3687,-5.4126,-5.5141,-5.6055,-5.6799,-5.7509,-5.7881,-5.7881,-5.7881,-5.7577,-5.6968,-5.7273,-5.7442,-3.8227,-3.6964,-3.5224,-3.339,-3.2155,-3.098,-2.9354,-2.9563,-3.0234,-3.0768,-3.1451,0.0,0.0,0.0,-3.2301,-3.2055,0.0,-3.2703,-3.2555,-3.3057,-3.4007,-3.5525,-3.6559,-3.7478,-3.8237,-3.7823,-3.7823,-3.8525,-3.9491,-4.0284,-4.086,-4.2344,-4.3448,-4.3966,-4.4,-4.4863,-4.6596,-4.6803,-4.7638,-4.912,-4.912,-4.943,-5.0011,-5.0011,-5.0011,-5.0011,-5.0011,-5.0011,-5.0011,-5.0011,-5.0011,-5.0011,-5.0011,-5.0907,-5.2188,-5.2188,-5.3184,-5.4494,-5.4494,-5.4494,-5.4494,-5.4494,-5.4494,-5.4494,-5.4494,-5.4874,-5.546,-5.6253,-5.6874,-5.746,-5.8219,-5.784,-5.7047,-5.6115,-5.5736,-5.5391,-5.4667,-5.4494,-5.4494,-5.4494,-5.4494,-5.4494,-5.4494,-5.4494,-5.4494,-5.4494,-5.4335,-5.4047,-5.3551,-5.3518,-5.3518,-5.3518,-5.3518,-5.3518,-5.3518,-5.3518,-5.3518,-5.3518,-5.3687,-5.4126,-5.4871,-5.5615,-5.6359,-5.7103,-5.7611,-5.7881,-5.7881,-5.7881,-5.7881,-5.7881,-5.7881,-5.7881,-4.001,-3.8667,-3.6831,-3.4357,-3.2559,-3.098,-2.9354,-2.9563,-3.0038,-2.9797,-3.0836,-3.1684,-3.1243,-3.1689,0.0,0.0,0.0,0.0,0.0,-3.1779,-3.2455,-3.3992,-3.5456,-3.6663,-3.7478,-3.7512,-3.7823,-3.8525,-3.9997,-4.086,-4.0894,-4.2344,-4.3207,-4.3241,-4.3241,-4.4311,-4.6596,-4.7293,-4.8459,-4.9976,-4.9976,-4.9976,-5.0011,-5.0011,-5.0011,-5.0011,-5.0011,-5.0011,-5.0011,-5.0011,-5.0011,-5.0011,-5.0011,-5.0907,-5.2188,-5.2188,-5.3184,-5.4494,-5.4494,-5.4494,-5.4494,-5.4494,-5.4494,-5.4494,-5.4494,-5.4529,-5.4701,-5.546,-5.5667,-5.5874,-5.6667,-5.6288,-5.5667,-5.5632,-5.5081,-5.4563,-5.4529,-5.4494,-5.4494,-5.4494,-5.4494,-5.4494,-5.4494,-5.4494,-5.4494,-5.4494,-5.3949,-5.3517,-5.3518,-5.3518,-5.3518,-5.3518,-5.3518,-5.3518,-5.3518,-5.3518,-5.3518,-5.3518,-5.416,-5.4905,-5.5614,-5.6393,-5.7103,-5.7848,-5.7881,-5.7881,-5.7881,-5.7881,-5.7881,-5.7881,-5.7881,-5.7881,-4.1552,-4.0304,-3.8631,-3.6721,-3.5436,-3.4064,-3.1885,-3.1905,-3.2516,-3.2871,-3.3512,-3.4245,-3.494,-3.4681,0.0,0.0,0.0,0.0,0.0,-3.1726,-3.1972,-3.2524,-3.3455,-3.4559,-3.5835,-3.5545,-3.5766,-3.6973,-3.8491,-3.9825,-4.086,-4.2344,-4.3414,-4.3897,-4.3931,-4.4527,-4.5776,-4.6569,-4.7707,-4.9189,-4.9189,-4.9493,-5.0011,-5.0011,-5.0011,-5.0011,-5.0011,-5.0011,-5.0011,-5.0011,-5.0011,-5.0011,-5.0011,-5.0907,-5.2188,-5.2188,-5.3184,-5.4494,-5.4494,-5.4494,-5.4494,-5.4494,-5.4494,-5.4494,-5.4494,-5.4494,-5.477,-5.6046,-5.6391,-5.6702,-5.7943,-5.7322,-5.6391,-5.6391,-5.5426,-5.4494,-5.4494,-5.4494,-5.4494,-5.4494,-5.4494,-5.4494,-5.4494,-5.4494,-5.4494,-5.4494,-5.4145,-5.3751,-5.3551,-5.3518,-5.3518,-5.3518,-5.3518,-5.3518,-5.3518,-5.3518,-5.3518,-5.3518,-5.4194,-5.4938,-5.5683,-5.6427,-5.7137,-5.7881,-5.7881,-5.7881,-5.7881,-5.7881,-5.7881,-5.7881,-5.7881,-5.7881,-4.324,-4.2176,-4.0797,-3.9166,-3.7734,-3.6229,-3.4357,-3.4224,-3.4681,-3.5333,-3.6259,-3.7255,-3.8153,-3.7261,0.0,0.0,0.0,0.0,0.0,-3.1763,-3.18,-3.18,-3.2455,-3.3283,-3.4283,-3.4214,-3.4614,-3.5801,-3.7318,-3.8755,-4.0032,-4.1792,-4.2861,-4.3069,-4.3621,-4.4276,-4.501,-4.5803,-4.7052,-4.881,-4.881,-4.9223,-5.0011,-5.0011,-5.0011,-5.0011,-5.0011,-5.0011,-5.0011,-5.0011,-5.0149,-5.039,-5.039,-5.1321,-5.2567,-5.2321,-5.3184,-5.4494,-5.4494,-5.4494,-5.4494,-5.4494,-5.4494,-5.4494,-5.4494,-5.4494,-5.4839,-5.6357,-5.6805,-5.715,-5.8633,-5.7909,-5.6805,-5.6805,-5.5632,-5.4494,-5.4494,-5.4494,-5.4494,-5.4494,-5.4494,-5.4598,-5.4874,-5.4908,-5.4805,-5.4563,-5.4175,-5.3849,-5.3651,-5.3517,-5.3585,-5.3856,-5.389,-5.389,-5.389,-5.389,-5.3788,-5.3518,-5.4431,-5.5209,-5.5647,-5.6664,-5.7408,-5.7881,-5.7881,-5.7881,-5.7881,-5.7881,-5.7881,-5.7881,-5.7881,-5.7881]},{"header":{"parameterUnit":"m.s-1","parameterCategory":1,"la1":30.6,"la2":29.2853,"lo1":-89.7004,"lo2":-87.6739,"dy":0.0162,"dx":0.0183,"nx":112,"ny":82,"refTime":"2026-05-22T12:00:00:Z","depth":0,"parameterNumber":3,"parameterNumberName":"V-component_of_WINDS"},"data":[0.0,0.0,0.0,0.0,0.0,0.0,0.0,0.0,0.0,0.0,0.0,0.0,0.0,0.0,0.0,0.0,0.0,0.0,0.0,0.0,0.0,0.0,0.0,0.0,0.0,0.0,0.0,0.0,0.0,0.0,0.0,0.0,0.0,0.0,0.0,0.0,0.0,0.0,0.0,0.0,0.0,0.0,0.0,0.0,0.0,0.0,0.0,0.0,0.0,0.0,0.0,0.0,0.0,0.0,0.0,0.0,0.0,0.0,0.0,0.0,0.0,0.0,0.0,0.0,0.0,0.0,0.0,0.0,0.0,0.0,0.0,0.0,0.0,0.0,0.0,0.0,0.0,0.0,0.0,0.0,0.0,0.0,0.0,0.0,0.0,0.0,0.0,0.0,0.0,0.0,1.6491,1.7823,1.8745,1.9038,1.8423,1.8028,1.7311,1.614,0.0,0.0,0.0,0.0,0.0,0.0,0.0,0.0,0.0,0.0,0.0,0.0,0.0,0.0,0.0,0.0,0.0,0.0,0.0,0.0,0.0,0.0,0.0,0.0,0.0,0.0,0.0,0.0,0.0,0.0,0.0,0.0,0.0,0.0,0.0,0.0,0.0,0.0,0.0,0.0,0.0,0.0,0.0,0.0,0.0,0.0,0.0,0.0,0.0,0.0,0.0,0.0,0.0,0.0,0.0,0.0,0.0,0.0,0.0,0.0,0.0,0.0,0.0,0.0,0.0,0.0,0.0,0.0,0.0,0.0,0.0,0.0,0.0,0.0,0.0,0.0,0.0,0.0,0.0,0.0,0.0,0.0,0.0,0.0,0.0,0.0,0.0,0.0,0.0,0.0,0.0,0.0,0.0,0.0,0.0,0.0,0.0,0.0,0.0,0.0,0.0,0.0,0.0,0.0,1.6901,1.8467,1.9023,1.9125,1.8745,1.816,1.7501,1.68,0.0,0.0,0.0,0.0,0.0,0.0,0.0,0.0,0.0,0.0,0.0,0.0,0.0,0.0,0.0,0.0,0.0,0.0,0.0,0.0,0.0,0.0,0.0,0.0,0.0,0.0,0.0,0.0,0.0,0.0,0.0,0.0,0.0,0.0,0.0,0.0,0.0,0.0,0.0,0.0,0.0,0.0,0.0,0.0,0.0,0.0,0.0,0.0,0.0,0.0,0.0,0.0,0.0,0.0,0.0,0.0,0.0,0.0,0.0,0.0,0.0,0.0,0.0,0.0,0.0,0.0,0.0,0.0,0.0,0.0,0.0,0.0,0.0,0.0,0.0,0.0,0.0,0.0,0.0,0.0,0.0,0.0,0.0,0.0,0.0,0.0,0.0,0.0,0.0,0.0,0.0,0.0,0.0,0.0,0.0,0.0,0.0,0.0,0.0,0.0,0.0,0.0,0.0,1.7223,1.8233,1.8979,1.9345,1.933,1.8833,1.8189,1.7472,1.6683,1.5624,0.0,0.0,0.0,0.0,0.0,0.0,0.0,0.0,0.0,0.0,0.0,0.0,0.0,0.0,0.0,0.0,0.0,0.0,0.0,0.0,0.0,0.0,0.0,0.0,0.0,0.0,0.0,0.0,0.0,0.0,0.0,0.0,0.0,0.0,0.0,0.0,0.0,0.0,0.0,0.0,0.0,0.0,0.0,0.0,0.0,0.0,0.0,0.0,0.0,0.0,0.0,0.0,0.0,0.0,0.0,0.0,0.0,0.0,0.0,0.0,0.0,0.0,0.0,0.0,0.0,0.0,0.0,0.0,0.0,0.0,0.0,0.0,0.0,0.0,0.0,0.0,0.0,0.0,0.0,0.0,0.0,0.0,0.0,0.0,0.0,0.0,0.0,0.0,0.0,0.0,0.0,0.0,0.0,0.0,0.0,0.0,0.0,0.0,0.0,0.0,0.0,0.0,1.8429,1.9441,1.9441,1.9661,1.9588,1.895,1.8233,1.7399,1.6477,1.5467,0.0,0.0,0.0,0.0,0.0,0.0,0.0,0.0,0.0,0.0,0.0,0.0,0.0,0.0,0.0,0.0,0.0,0.0,0.0,0.0,0.0,0.0,0.0,0.0,0.0,0.0,0.0,0.0,0.0,0.0,0.0,0.0,0.0,0.0,0.0,0.0,0.0,0.0,0.0,0.0,0.0,0.0,0.0,0.0,0.0,0.0,0.0,0.0,0.0,0.0,0.0,0.0,0.0,0.0,0.0,0.0,0.0,0.0,0.0,0.0,0.0,0.0,0.0,0.0,0.0,0.0,0.0,0.0,0.0,0.0,0.0,0.0,0.0,0.0,0.0,0.0,0.0,0.0,0.0,0.0,0.0,0.0,0.0,0.0,0.0,0.0,0.0,0.0,0.0,0.0,0.0,0.0,0.0,0.0,0.0,0.0,0.0,0.0,0.0,0.0,0.0,0.0,1.8716,1.9779,1.9779,1.9808,1.9676,1.9324,1.8364,1.7399,1.6477,1.5467,0.0,0.0,0.0,0.0,0.0,0.0,0.0,0.0,0.0,0.0,0.0,0.0,0.0,0.0,0.0,0.0,0.0,0.0,0.0,0.0,0.0,0.0,0.0,0.0,0.0,0.0,0.0,0.0,0.0,0.0,0.0,0.0,0.0,0.0,0.0,0.0,0.0,0.0,0.0,0.0,0.0,0.0,0.0,0.0,0.0,0.0,0.0,0.0,0.0,0.0,0.0,0.0,0.0,0.0,0.0,0.0,0.0,0.0,0.0,0.0,0.0,0.0,0.0,0.0,0.0,0.0,0.0,0.0,0.0,0.0,0.0,0.0,0.0,0.0,0.0,0.0,0.0,0.0,0.0,0.0,0.0,0.0,0.0,0.0,0.0,0.0,0.0,0.0,0.0,0.0,0.0,0.0,0.0,0.0,0.0,0.0,0.0,0.0,0.0,0.0,0.0,0.0,1.9052,2.0135,2.034,2.0369,2.0258,1.9888,1.8845,1.7958,1.7356,0.0,0.0,0.0,0.0,0.0,0.0,0.0,0.0,0.0,0.0,0.0,0.0,0.0,0.0,0.0,0.0,0.0,0.0,0.0,0.0,0.0,0.0,0.0,0.0,0.0,0.0,0.0,0.0,0.0,0.0,0.0,0.0,0.0,0.0,0.0,0.0,0.0,0.0,0.0,0.0,0.0,0.0,0.0,0.0,0.0,0.0,0.0,0.0,0.0,0.0,0.0,0.0,0.0,0.0,0.0,0.0,0.0,0.0,0.0,0.0,0.0,0.0,0.0,0.0,0.0,0.0,0.0,0.0,0.0,0.0,0.0,0.0,0.0,0.0,0.0,0.0,0.0,0.0,0.0,0.0,0.0,0.0,0.0,0.0,0.0,0.0,0.0,0.0,0.0,0.0,0.0,0.0,0.0,0.0,0.0,0.0,0.0,0.0,0.0,0.0,0.0,0.0,1.7691,1.9176,2.03,2.0691,2.072,2.0623,2.0332,1.9445,1.8691,1.8147,0.0,0.0,0.0,0.0,0.0,0.0,0.0,0.0,0.0,0.0,0.0,0.0,0.0,0.0,0.0,0.0,0.0,0.0,0.0,0.0,0.0,0.0,0.0,0.0,0.0,0.0,0.0,0.0,0.0,0.0,0.0,0.0,0.0,0.0,0.0,0.0,0.0,0.0,0.0,0.0,0.0,0.0,0.0,0.0,0.0,0.0,0.0,0.0,0.0,0.0,0.0,0.0,0.0,0.0,0.0,0.0,0.0,0.0,0.0,0.0,0.0,0.0,0.0,0.0,0.0,0.0,0.0,0.0,0.0,0.0,0.0,0.0,0.0,0.0,0.0,0.0,0.0,0.0,0.0,0.0,0.0,0.0,0.0,0.0,0.0,0.0,0.0,0.0,0.0,0.0,0.0,0.0,0.0,0.0,0.0,0.0,0.0,0.0,0.0,0.0,0.0,0.0,1.7691,1.9242,2.03,2.0691,2.072,2.0678,2.0598,2.0112,1.9445,0.0,0.0,0.0,0.0,0.0,0.0,0.0,0.0,0.0,0.0,0.0,0.0,0.0,0.0,0.0,0.0,0.0,0.0,0.0,0.0,0.0,0.0,0.0,0.0,0.0,0.0,0.0,0.0,0.0,0.0,0.0,0.0,0.0,0.0,0.0,0.0,0.0,0.0,0.0,0.0,0.0,0.0,0.0,0.0,0.0,0.0,0.0,0.0,0.0,0.0,0.0,0.0,0.0,0.0,0.0,0.0,0.0,0.0,0.0,0.0,0.0,0.0,0.0,0.0,0.0,0.0,0.0,0.0,0.0,0.0,0.0,0.0,0.0,0.0,0.0,0.0,0.0,0.0,0.0,0.0,0.0,0.0,0.0,0.0,0.0,0.0,0.0,0.0,0.0,0.0,0.0,0.0,0.0,0.0,0.0,0.0,0.0,0.0,0.0,0.0,0.0,0.0,0.0,1.7999,1.9374,2.0498,2.1353,2.1568,2.1744,2.1793,2.1424,2.0934,2.0241,0.0,0.0,0.0,0.0,0.0,0.0,0.0,0.0,0.0,0.0,0.0,0.0,0.0,0.0,0.0,0.0,0.0,0.0,0.0,0.0,0.0,0.0,0.0,0.0,0.0,0.0,0.0,0.0,0.0,0.0,0.0,0.0,0.0,0.0,0.0,0.0,0.0,0.0,0.0,0.0,0.0,0.0,0.0,0.0,0.0,0.0,0.0,0.0,0.0,0.0,0.0,0.0,0.0,0.0,0.0,0.0,0.0,0.0,0.0,0.0,0.0,0.0,0.0,0.0,0.0,0.0,0.0,0.0,0.0,0.0,0.0,0.0,0.0,0.0,0.0,0.0,0.0,0.0,0.0,0.0,0.0,0.0,0.0,0.0,0.0,0.0,0.0,0.0,0.0,0.0,0.0,0.0,0.0,0.0,0.0,0.0,0.0,0.0,0.0,0.0,0.0,0.0,1.8032,1.938,2.0652,2.1771,2.2214,2.2553,2.2794,2.274,2.2302,2.1536,0.0,0.0,0.0,0.0,0.0,0.0,0.0,0.0,0.0,0.0,0.0,0.0,0.0,0.0,0.0,0.0,0.0,0.0,0.0,0.0,0.0,0.0,0.0,0.0,0.0,0.0,0.0,0.0,0.0,0.0,0.0,0.0,0.0,0.0,0.0,0.0,0.0,0.0,0.0,0.0,0.0,0.0,0.0,0.0,0.0,0.0,0.0,0.0,0.0,0.0,0.0,0.0,0.0,0.0,0.0,0.0,0.0,0.0,0.0,0.0,0.0,0.0,0.0,0.0,0.0,0.0,0.0,0.0,0.0,0.0,0.0,0.0,0.0,0.0,0.0,0.0,0.0,0.0,0.0,0.0,0.0,0.0,0.0,0.0,0.0,0.0,0.0,0.0,0.0,0.0,0.0,0.0,0.0,0.0,0.0,0.0,0.0,0.0,0.0,0.0,0.0,0.0,1.7929,1.9342,2.0762,2.2096,2.2765,2.3298,2.3717,2.3934,2.3599,2.2492,0.0,0.0,0.0,0.0,0.0,0.0,0.0,0.0,0.0,0.0,0.0,0.0,0.0,0.0,0.0,0.0,0.0,0.0,0.0,0.0,0.0,0.0,0.0,0.0,0.0,0.0,0.0,0.0,0.0,0.0,0.0,0.0,0.0,0.0,0.0,0.0,0.0,0.0,0.0,0.0,0.0,0.0,0.0,0.0,0.0,0.0,0.0,0.0,0.0,0.0,0.0,0.0,0.0,0.0,0.0,0.0,0.0,0.0,0.0,0.0,1.4734,1.4559,0.0,0.0,0.0,0.0,0.0,0.0,0.0,0.0,0.0,0.0,0.0,0.0,0.0,0.0,0.0,0.0,0.0,0.0,0.0,0.0,0.0,0.0,0.0,0.0,0.0,0.0,0.0,0.0,0.0,0.0,0.0,0.0,0.0,0.0,0.0,0.0,0.0,0.0,0.0,0.0,1.8496,2.0016,2.1462,2.2927,2.3888,2.447,2.4614,2.4937,2.4466,2.284,2.1593,0.0,0.0,0.0,0.0,0.0,0.0,0.0,0.0,0.0,0.0,0.0,0.0,0.0,0.0,0.0,0.0,0.0,0.0,0.0,0.0,0.0,0.0,0.0,0.0,0.0,0.0,0.0,0.0,0.0,0.0,0.0,0.0,0.0,0.0,0.0,0.0,0.0,0.0,0.0,0.0,0.0,0.0,0.0,0.0,0.0,0.0,0.0,0.0,0.0,0.0,0.0,0.0,0.0,0.0,0.0,0.0,0.0,0.0,0.0,1.5952,1.5498,0.0,0.0,0.0,0.0,0.0,0.0,0.0,0.0,0.0,0.0,0.0,0.0,0.0,0.0,0.0,0.0,0.0,0.0,0.0,0.0,0.0,0.0,0.0,0.0,0.0,0.0,0.0,0.0,0.0,0.0,0.0,0.0,0.0,0.0,0.0,0.0,0.0,0.0,0.0,0.0,1.8684,2.0468,2.2157,2.3877,2.5,2.5684,2.5798,2.5875,2.5285,2.3687,2.2084,0.0,0.0,0.0,0.0,0.0,0.0,0.0,0.0,0.0,0.0,0.0,0.0,0.0,0.0,0.0,0.0,0.0,0.0,0.0,0.0,0.0,0.0,0.0,0.0,0.0,0.0,0.0,0.0,0.0,0.0,0.0,0.0,0.0,0.0,0.0,0.0,0.0,0.0,0.0,0.0,0.0,0.0,0.0,0.0,0.0,0.0,0.0,0.0,0.0,0.0,0.0,0.0,0.0,1.7179,1.746,1.7527,1.7809,1.8036,1.8182,1.7542,1.6847,1.6184,1.642,0.0,0.0,0.0,0.0,0.0,0.0,0.0,0.0,0.0,0.0,0.0,0.0,0.0,0.0,0.0,0.0,0.0,0.0,0.0,0.0,0.0,0.0,1.9458,1.8957,1.8345,1.7515,1.617,0.0,0.0,0.0,0.0,0.0,0.0,0.0,0.0,0.0,0.0,0.0,1.9009,2.1055,2.302,2.482,2.599,2.6623,2.674,2.6589,2.5879,2.4394,2.2578,2.0957,0.0,0.0,0.0,0.0,0.0,0.0,0.0,0.0,0.0,0.0,0.0,0.0,0.0,0.0,0.0,0.0,0.0,0.0,0.0,0.0,0.0,0.0,0.0,0.0,0.0,0.0,0.0,0.0,0.0,0.0,0.0,0.0,1.1242,1.1322,0.0,0.0,0.0,0.0,0.0,0.0,0.0,0.0,0.0,0.0,0.0,0.0,0.0,1.6246,1.6526,1.7074,1.7502,1.7796,1.8143,1.845,1.8704,1.8998,1.9158,1.9199,1.9332,0.0,1.7689,1.7502,0.0,0.0,0.0,0.0,0.0,0.0,0.0,0.0,0.0,0.0,0.0,0.0,0.0,0.0,0.0,0.0,0.0,0.0,0.0,0.0,0.0,0.0,2.2077,2.1528,2.0783,2.0049,1.963,1.869,1.7568,1.6418,1.6191,1.5732,0.0,0.0,0.0,0.0,0.0,0.0,2.0233,2.2319,2.4244,2.5735,2.6554,2.6833,2.6634,2.6788,2.6055,2.4004,2.3262,2.219,2.0507,1.9102,0.0,0.0,0.0,0.0,0.0,0.0,0.0,0.0,0.0,0.0,0.0,0.0,0.0,0.0,0.0,0.0,0.0,0.0,0.0,0.0,0.0,0.0,0.0,0.0,0.0,0.0,0.0,0.0,0.0,1.161,1.2135,1.2002,1.2033,1.205,0.0,0.0,0.0,0.0,0.0,0.0,0.0,0.0,0.0,1.551,1.6663,1.7395,1.7702,1.845,1.8891,1.9025,1.9492,1.9786,1.992,2.0214,2.0347,2.0347,2.0481,2.0147,1.9466,1.8664,1.7916,1.7194,0.0,0.0,0.0,0.0,1.8646,1.9512,2.0507,2.0917,2.1064,2.1163,0.0,0.0,0.0,0.0,0.0,0.0,0.0,1.9748,2.0156,2.1366,2.2493,2.2231,2.1788,2.1299,2.1004,2.0455,1.9481,1.7759,1.7159,1.6536,1.5247,1.4365,0.0,0.0,0.0,1.9061,2.1142,2.3419,2.5272,2.6282,2.7043,2.7336,2.6987,2.6994,2.6406,2.498,2.4023,2.2993,2.1719,2.0176,1.9007,0.0,0.0,0.0,0.0,0.0,0.0,0.0,0.0,0.0,0.0,0.0,0.0,0.0,0.0,0.0,0.0,0.0,0.0,0.0,0.0,0.0,0.0,0.0,0.0,0.0,0.0,0.0,0.0,1.2315,1.2765,1.2647,1.2763,1.2798,0.0,0.0,0.0,0.0,0.0,0.0,1.4176,1.5019,1.5753,1.6278,1.7383,1.8216,1.8712,1.9429,1.9887,2.0027,2.0468,2.0722,2.0802,2.1015,2.1109,2.1109,2.1109,2.0949,2.0601,1.9653,1.8918,1.8317,1.7569,1.7909,1.8823,1.9529,2.0395,2.1239,2.2055,2.2471,2.254,2.2645,2.2418,2.1959,2.1466,0.0,0.0,0.0,0.0,2.0499,2.0596,2.1491,2.2393,2.2516,2.2516,2.2489,2.2176,2.2099,2.137,1.8996,1.8097,1.7399,1.6281,1.5359,0.0,1.6529,1.831,2.0164,2.2105,2.4298,2.5991,2.6735,2.7273,2.7473,2.7207,2.6936,2.6484,2.5625,2.4551,2.3574,2.2715,2.123,2.0019,1.9141,0.0,0.0,0.0,0.0,0.0,0.0,0.0,0.0,0.0,0.0,0.0,0.0,0.0,0.0,0.0,0.0,0.0,0.0,0.0,0.0,0.0,0.0,0.0,0.0,0.0,0.0,0.0,0.0,0.0,1.3248,1.3592,0.0,0.0,0.0,0.0,1.3459,1.4183,1.4887,1.5382,1.5692,1.633,1.7406,1.7735,1.834,1.9259,1.9572,1.9994,2.0628,2.0668,2.0815,2.1082,2.1096,2.1109,2.1109,2.1109,2.0949,2.0655,2.0307,1.9826,1.9265,1.8945,1.9163,1.9948,2.168,2.2506,2.2999,2.4507,2.4811,2.4584,2.4907,2.4861,2.4459,2.3623,2.2652,0.0,0.0,2.1119,2.1354,2.1071,2.1679,2.2473,2.2709,2.3457,2.3999,2.3766,2.364,2.2785,2.0074,1.8865,1.816,1.7505,0.0,1.6947,1.8055,1.9865,2.1638,2.3049,2.4881,2.6373,2.726,2.7081,2.6893,2.6987,2.666,2.6035,2.5204,2.4648,2.4004,2.3208,2.2308,2.1367,2.0527,1.9199,0.0,0.0,0.0,0.0,0.0,0.0,0.0,0.0,0.0,0.0,0.0,0.0,0.0,0.0,0.0,0.0,0.0,0.0,0.0,0.0,0.0,0.0,0.0,0.0,0.0,0.0,0.0,0.0,1.3853,1.4213,0.0,1.4096,1.4219,1.4425,1.4763,1.5366,1.589,1.6277,1.6882,1.7509,1.804,1.8728,1.9251,1.9578,2.0047,2.0417,2.0648,2.0823,2.1002,2.1109,2.1109,2.1109,2.1109,2.1109,2.1056,2.0949,2.0842,2.0454,1.9893,1.9599,2.001,2.0897,2.257,2.3298,2.3515,2.4598,2.4837,2.463,2.5087,2.5604,2.5859,2.5377,2.4402,2.3306,2.2921,2.2482,2.21,2.1775,2.1969,2.2367,2.3094,2.3745,2.4285,2.4336,2.438,2.3926,2.2493,2.129,2.0389,2.0163,1.9853,1.9909,2.0875,2.2246,2.3531,2.4421,2.57,2.6616,2.6758,2.6717,2.6538,2.6319,2.6365,2.6016,2.5165,2.4668,2.416,2.3594,2.2734,2.1875,2.1016,1.998,1.8948,0.0,0.0,0.0,0.0,0.0,0.0,0.0,0.0,0.0,0.0,0.0,0.0,0.0,0.0,0.0,0.0,0.0,0.0,0.0,0.0,0.0,0.0,0.0,0.0,0.0,1.3673,1.4316,1.463,1.4924,1.5108,1.5089,1.5197,1.5439,1.5873,1.6392,1.6803,1.708,1.7762,1.8249,1.852,1.9063,1.9487,1.9638,2.0207,2.0488,2.0602,2.0856,2.0982,2.1109,2.0982,2.1036,2.1256,2.1256,2.1309,2.1403,2.1403,2.1176,2.0788,2.0388,2.0787,2.1718,2.3451,2.3944,2.3849,2.4432,2.4531,2.458,2.5169,2.6105,2.6976,2.681,2.6099,2.5288,2.5003,2.4351,2.3624,2.3231,2.2859,2.2783,2.3521,2.4082,2.4544,2.4798,2.5126,2.5218,2.4738,2.3243,2.2035,2.2035,2.1892,2.2034,2.2768,2.3808,2.4668,2.5379,2.6291,2.6808,2.6658,2.6645,2.648,2.6106,2.5995,2.5684,2.5145,2.4531,2.4082,2.3809,2.3105,2.2383,2.1639,2.0664,1.9434,1.8008,0.0,0.0,0.0,0.0,0.0,0.0,0.0,0.0,0.0,0.0,0.0,0.0,0.0,0.0,0.0,0.0,0.0,0.0,0.0,0.0,0.0,0.0,0.0,1.373,1.4084,1.463,1.5415,1.5753,1.5922,1.5934,1.6187,1.6465,1.673,1.7225,1.7624,1.7889,1.8155,1.8432,1.8686,1.8698,1.9008,1.9571,1.9915,2.0234,2.0539,2.0602,2.0729,2.1046,2.0729,2.0963,2.155,2.1628,2.1789,2.1991,2.1991,2.1991,2.1924,2.1363,2.1515,2.2383,2.4286,2.461,2.4131,2.4131,2.4254,2.4547,2.5299,2.6544,2.782,2.7801,2.7801,2.7669,2.7115,2.6504,2.5891,2.5252,2.4407,2.3729,2.3999,2.4434,2.4906,2.5165,2.5953,2.6591,2.6591,2.4682,2.3028,2.3028,2.3028,2.3188,2.3699,2.4329,0.0,2.5914,2.6621,2.7072,2.7185,2.6814,2.6563,2.6406,2.5566,2.5106,2.5106,2.4238,2.3769,2.3769,2.3315,2.2886,2.25,2.123,1.9783,1.8066,0.0,0.0,0.0,0.0,0.0,0.0,0.0,0.0,0.0,0.0,0.0,0.0,0.0,0.0,0.0,0.0,0.0,0.0,0.0,0.0,0.0,1.3238,1.3674,1.3865,1.4643,1.5318,1.5728,1.6199,1.6622,1.7008,1.7117,1.7358,1.7817,1.7986,1.8179,1.8444,1.8541,1.8698,1.8963,1.8963,1.9063,1.9264,1.9788,2.0043,1.9903,2.0348,2.0552,2.0361,2.0552,2.0822,2.1175,2.1712,2.1911,2.2004,2.2218,2.2178,2.1964,2.1804,2.2127,2.297,2.4419,2.4776,2.4482,2.4438,2.4477,2.4673,2.5619,2.7044,2.8313,2.8323,2.8286,2.8165,2.7741,2.7004,2.6198,2.585,2.5244,2.4746,2.4956,2.5258,2.5608,2.5787,2.6245,2.6591,2.6591,2.6064,2.5576,2.5576,2.5576,2.5631,2.5757,2.61,2.6443,2.6714,2.6974,2.706,2.6814,2.6594,2.6287,2.5908,2.5391,2.4922,2.4609,2.3809,2.332,2.3276,2.291,2.248,2.207,2.1114,2.0214,0.0,0.0,0.0,0.0,0.0,0.0,0.0,0.0,0.0,0.0,0.0,0.0,0.0,0.0,0.0,0.0,0.0,0.0,0.0,0.0,0.0,0.0,1.4087,1.4606,1.4727,1.527,1.5849,1.6332,1.6767,1.7189,1.7612,1.7756,1.7998,1.842,1.8456,1.8565,1.8831,1.8843,1.8915,1.9072,1.9072,1.9072,1.9072,1.9647,1.9838,1.9757,2.0143,2.04,2.045,2.0644,2.0993,2.1397,2.1965,2.2231,2.2365,2.2539,2.2512,2.2325,0.0,0.0,0.0,0.0,2.4376,2.4321,2.4207,2.4198,2.4453,2.5218,2.6612,2.8088,2.8084,2.8354,2.8586,2.8392,2.7917,2.7445,2.727,2.6854,2.647,2.643,2.637,2.6363,2.6336,2.6464,2.6591,2.6591,2.6591,0.0,2.6591,2.6591,2.6646,2.6736,2.6881,2.7098,2.7368,2.7256,2.7116,2.6795,2.654,2.6211,2.5732,2.5332,0.0,0.0,0.0,2.334,2.3101,2.2867,0.0,0.0,0.0,0.0,0.0,0.0,0.0,0.0,1.9394,1.9785,0.0,0.0,0.0,0.0,0.0,0.0,0.0,0.0,0.0,0.0,0.0,0.0,0.0,0.0,0.0,0.0,1.4871,1.5644,1.5934,1.6006,1.6284,1.7008,1.7346,1.7624,1.7901,1.8179,1.8444,1.871,1.8734,1.8831,1.906,1.9072,0.0,0.0,0.0,1.9072,1.9072,1.9456,1.972,1.994,2.0005,2.0273,2.08,2.0905,2.1245,2.1893,2.2283,2.2645,2.2928,2.2899,2.2968,2.2874,2.2351,2.2349,2.2745,2.3323,2.3702,2.3934,2.3702,0.0,0.0,2.4517,2.5973,2.7508,2.7522,2.8241,2.8975,2.8975,2.8975,2.8975,2.8975,2.8718,2.8333,2.7932,2.7546,2.7123,2.6683,2.6591,2.6591,2.6591,2.6591,2.6591,2.6591,2.6646,2.6736,2.6935,2.7006,2.7239,2.7776,2.7463,2.7091,2.6941,2.6602,0.0,2.5732,2.5332,2.4902,2.4512,2.4102,2.3672,2.3179,2.3218,2.3042,2.2656,2.2656,2.2285,2.1483,2.1914,2.2129,2.2148,2.131,2.1349,0.0,0.0,0.0,0.0,0.0,0.0,0.0,0.0,0.0,0.0,0.0,0.0,0.0,0.0,0.0,1.4449,1.527,1.5982,1.6477,1.673,1.6911,1.7068,1.7503,1.7913,1.8191,1.8456,1.8722,1.8976,1.9,1.9024,1.9072,1.9072,1.9072,1.9072,1.9072,1.9072,1.9072,1.9456,1.9591,1.9601,1.9875,0.0,2.0093,2.0906,2.1369,2.1581,2.2664,2.3046,2.2954,2.314,2.3086,2.2914,2.3079,2.3364,2.3716,2.3851,2.375,2.3634,2.4156,2.4219,2.4291,2.5445,2.6597,2.7599,2.7869,2.8439,0.0,2.8975,2.8975,2.8975,2.8975,2.892,2.8682,2.8005,2.7767,2.7453,2.6738,2.6591,2.6591,2.6591,2.6591,2.6591,2.6591,2.6791,2.6935,2.6989,2.7066,2.7175,2.7333,2.7176,2.6922,2.6543,2.6445,2.6211,2.5732,2.5332,2.5086,2.4941,2.4531,2.4102,2.3691,2.3984,2.3965,2.3555,2.3535,2.3457,2.3301,2.3379,2.3594,2.3906,2.309,2.2973,0.0,0.0,0.0,0.0,0.0,0.0,0.0,0.0,0.0,0.0,0.0,1.2168,1.2964,0.0,1.4485,1.5016,1.5777,1.6392,1.6658,1.7044,1.7286,1.7286,1.7756,1.8143,1.8275,1.865,1.8939,1.906,1.9072,1.9072,1.9072,1.9072,1.9072,1.9072,1.9072,1.9132,1.9265,1.9459,1.9666,1.9869,2.0081,2.0227,2.0347,2.1233,2.1624,2.165,2.2691,2.3006,2.2941,2.3033,2.3006,2.2928,2.327,2.3406,2.3475,2.3475,2.3311,2.3269,2.376,2.4178,2.4634,2.5325,2.6615,2.7826,2.7748,2.8319,2.8975,2.8975,2.8975,2.8975,2.8975,2.8975,2.8773,2.8024,2.7822,2.7601,2.6756,2.6591,2.6591,2.6591,2.6591,2.6591,2.6591,2.6845,2.6989,2.6989,2.6902,2.6902,2.7165,2.6782,2.647,2.6406,2.6191,2.5977,2.5713,2.5332,2.5106,2.5106,2.4668,2.4316,2.4121,2.4297,2.4316,2.4102,2.4102,2.4102,2.4102,2.4551,2.4863,2.5031,2.5078,2.498,0.0,0.0,0.0,0.0,0.0,0.0,0.0,1.0545,1.0937,1.154,1.2139,1.2904,1.3809,1.4473,1.5028,1.5499,1.6211,1.6718,1.6767,1.7177,1.7479,1.7479,1.7962,1.83,1.83,1.877,1.9072,1.9072,1.9072,1.9072,1.9072,1.9072,1.9072,1.9072,1.9072,1.9205,1.9524,1.9536,1.9736,2.0279,2.0279,2.0412,2.0735,2.1546,2.1823,2.1841,2.2585,2.2928,2.2928,2.2928,2.2928,2.2928,2.327,2.3338,2.327,2.3133,2.3065,2.3065,2.3475,2.421,2.492,2.5237,2.6536,2.7952,2.7774,2.8313,2.8975,2.8975,2.8975,2.8975,2.8975,2.8975,2.8792,2.8116,2.7877,2.7563,2.6848,2.6646,2.6591,2.6591,2.6591,2.6591,2.6591,2.6791,2.6935,2.6989,2.6633,2.6526,2.6926,2.6372,2.5952,2.6151,2.5888,2.5693,2.5693,2.541,2.5195,2.5195,2.4863,2.4621,2.4621,2.4621,2.4621,2.4621,2.4766,2.4805,2.4805,2.5557,2.5927,2.5947,2.6777,2.6719,1.0043,1.0373,1.0729,1.0843,1.0972,1.1021,0.0,1.1371,1.183,1.2155,1.3025,1.3833,1.4183,1.4883,1.5511,1.5801,1.6332,1.6779,1.702,1.7298,1.7479,1.7479,1.7962,1.83,1.83,1.877,1.9072,1.9072,1.9072,1.9072,1.9072,1.9072,1.9072,1.9072,1.9072,1.9205,1.9524,1.9536,1.9736,2.0279,2.0279,2.0412,2.0747,2.1747,2.2001,2.1841,2.2585,2.2928,2.2928,2.2928,2.2928,2.2928,2.327,2.3938,2.467,2.4088,2.3679,2.3406,2.4156,2.4428,2.4776,2.6002,2.6955,2.7769,2.8307,2.8727,2.8975,2.8975,2.8975,2.8975,2.8975,2.8975,2.8865,2.8425,2.804,2.7711,2.7196,2.683,2.6591,2.6591,2.6591,2.6591,2.6591,2.6646,2.6736,2.6935,2.6529,2.6248,2.6299,2.5779,2.541,2.541,2.5567,2.5693,2.5693,2.5635,2.5615,2.5615,2.5577,2.5538,2.5538,2.5538,2.5538,2.5538,2.5977,2.6172,2.6172,2.6641,2.6875,2.6875,2.7363,2.7344,1.0542,1.0882,1.1289,1.1462,1.1772,1.2083,1.224,1.2457,1.2735,1.3157,1.3845,1.4461,1.4727,1.5294,1.5813,1.6079,1.6441,1.6791,1.7056,1.7322,1.7479,1.7479,1.7817,1.8118,1.8275,1.8625,1.8915,1.906,1.9072,1.9072,1.9072,1.9072,1.9145,1.9366,1.9301,1.9507,1.9929,1.9941,2.0134,2.0509,2.0509,2.0557,2.0735,2.1331,2.1666,2.1829,2.231,2.2654,2.2928,2.3133,2.3338,2.3543,2.3884,2.4428,2.4955,2.4495,2.4292,2.4345,2.4428,2.4631,2.4897,2.5703,2.6842,2.7957,2.8157,2.8581,2.8975,2.8975,2.8975,2.8975,2.8975,2.8975,2.8883,2.8498,2.8077,2.7711,2.727,2.6866,2.6591,2.6591,2.6591,2.6591,2.6591,2.6591,2.6646,2.6736,2.6194,2.5829,2.6139,2.5503,2.5186,2.5479,2.5645,2.5693,2.5693,2.5693,2.5693,2.5693,2.5693,2.5693,2.5693,2.5693,2.5693,2.5693,2.6172,2.6387,2.6387,2.707,2.7402,2.7402,2.7832,2.793,1.1127,1.1486,1.1903,1.2172,1.2584,1.2976,1.3181,1.329,1.3447,1.3833,1.434,1.4799,1.5065,1.5475,1.5897,1.6223,1.6513,1.6791,1.7056,1.7322,1.7479,1.7479,1.7648,1.7877,1.8155,1.8481,1.8794,1.906,1.9072,1.9072,1.9072,1.9072,1.9193,1.9524,1.9536,1.979,2.0267,2.0279,2.0412,2.0665,2.0665,2.0665,2.0735,2.1081,2.1415,2.1829,2.2242,2.2791,2.3393,2.3802,2.4345,2.4887,2.5022,2.5292,2.5562,2.5105,2.497,2.4955,2.4834,2.4902,2.5113,2.5743,2.6858,2.802,2.8216,2.8653,2.8975,2.8975,2.8975,2.8975,2.8975,2.8975,2.892,2.8627,2.815,2.7748,2.7454,2.694,2.6591,2.6591,2.6591,2.6591,2.6591,2.6591,2.6591,2.6591,2.5986,2.5648,2.6003,2.5402,2.5186,2.5645,2.5693,2.5693,2.5693,2.5693,2.5693,2.5693,2.5693,2.5693,2.5693,2.5693,2.5693,2.5693,2.6269,2.6562,2.6562,2.7422,2.7885,2.7851,2.8144,2.8301,1.1785,1.2209,1.2586,1.2974,1.3273,1.3495,1.3507,1.3701,1.3882,1.3906,1.434,1.4799,1.5065,1.533,1.568,1.6199,1.6513,1.6791,1.7056,1.7322,1.7479,1.7479,1.7491,1.7599,1.7865,1.8372,1.8794,1.906,1.9072,1.9072,1.9072,1.9072,1.9193,1.9524,1.9536,1.979,2.0267,2.0279,2.0412,2.0665,2.0665,2.0665,2.0735,2.1081,2.1415,2.1841,2.2585,2.3461,2.4467,2.5143,2.6069,2.6972,2.6671,2.6737,2.6988,2.6316,2.5592,2.5037,2.5457,2.5322,2.524,2.6651,2.7361,2.7773,2.878,2.9051,2.8975,2.8975,2.8975,2.8975,2.8975,2.8975,2.8975,2.8975,2.8352,2.7822,2.7803,2.7141,2.6591,2.6591,2.6591,2.6591,2.6591,2.6591,2.6591,2.6591,2.6278,2.5961,2.5834,2.5521,2.5382,2.5693,2.5693,2.5693,2.5693,2.5693,2.5693,2.5693,2.5693,2.5693,2.5693,2.5693,2.5693,2.5693,2.6512,2.6992,2.6992,2.7851,2.8281,2.8281,2.8281,2.8301,1.2149,1.2648,1.3146,1.3511,1.3837,1.4007,1.4037,1.4099,1.4171,1.4171,1.4304,1.4521,1.4799,1.5065,1.5415,1.5934,1.6404,1.6791,1.7056,1.7322,1.7479,1.7479,1.7479,1.7587,1.7853,1.8203,1.8541,1.8794,1.8976,1.9072,1.9072,1.9072,1.9277,1.9736,1.9748,2.0002,2.0533,2.0533,2.0581,2.0665,2.0665,2.0665,2.0665,2.0804,2.0943,2.1151,2.2104,2.3256,2.452,2.548,2.6686,2.78,2.7485,2.7286,2.7153,2.7169,2.6851,2.6435,2.6301,2.6352,2.6537,2.7286,2.7718,2.8009,2.8591,2.8867,2.8975,2.8975,2.8975,2.8975,2.8975,2.8975,2.8975,2.8975,2.841,2.7822,2.7822,2.7141,2.6591,2.6591,2.6591,2.6591,2.6591,2.6591,2.6554,2.6474,2.6244,2.5937,2.5609,2.558,2.5596,2.5693,2.5693,2.5693,2.5693,2.5693,2.5693,2.5693,2.5693,2.5693,2.5693,2.5693,2.5693,2.5693,2.6582,2.7012,2.7012,2.7871,2.8301,2.8301,2.8301,2.8301,1.2843,1.3421,1.384,1.4186,1.4368,1.4405,1.4337,1.4279,1.4244,1.4051,1.4087,1.4244,1.4521,1.4702,1.5028,1.5644,1.6199,1.6646,1.6911,1.7261,1.7479,1.7479,1.7479,1.7587,1.7853,1.8131,1.8396,1.8662,1.8927,1.9072,1.9072,1.9072,1.9326,1.9869,1.9881,2.0134,2.0665,2.0665,2.0665,2.0665,2.0665,2.0665,2.0665,2.0665,2.0735,2.0943,2.2035,2.3515,2.5248,2.6419,2.7816,2.933,2.8822,2.8362,2.7949,2.8031,2.8031,2.7899,2.7352,2.7336,2.7602,2.8081,2.8235,2.8386,2.8842,2.899,2.8975,2.8975,2.8975,2.8975,2.8975,2.8975,2.8975,2.8975,2.848,2.8005,2.7858,2.7251,2.6756,2.6609,2.6591,2.6591,2.6591,2.6591,2.6554,2.6493,2.642,2.621,2.5724,2.5718,2.5751,2.5713,2.5693,2.5693,2.5693,2.5693,2.5693,2.5693,2.5693,2.5693,2.5693,2.5693,2.5693,2.5693,2.6582,2.7012,2.7012,2.7871,2.8301,2.8301,2.8301,2.8301,1.3936,1.4405,1.4682,1.4969,1.4867,1.4673,1.4353,1.4288,1.4135,1.3616,1.3688,1.393,1.4208,1.4256,1.4521,1.533,1.5922,1.638,1.6658,1.7153,1.7479,1.7479,1.7491,1.7599,1.7853,1.8143,1.842,1.8662,1.8927,1.9072,1.9072,1.9072,1.9326,1.9869,1.9881,2.0134,2.0665,2.0665,2.0665,2.0665,2.0665,2.0665,2.0665,2.0735,2.0943,2.1276,2.2448,2.4399,2.6706,2.78,2.9526,3.1313,3.0602,2.9952,2.9265,2.8971,2.9085,2.9199,2.8576,2.8362,2.8477,2.9168,2.9107,2.878,2.9484,2.9374,2.8975,2.8975,2.8975,2.8975,2.8975,2.8975,2.8975,2.8975,2.8682,2.8278,2.7893,2.7528,2.7068,2.6683,2.6609,2.6591,2.6591,2.6591,2.6591,2.6646,2.6745,2.6603,2.6002,2.5918,2.5844,2.5732,2.5693,2.5693,2.5693,2.5693,2.5693,2.5693,2.5693,2.5693,2.5693,2.5693,2.5693,2.5732,2.6582,2.7031,2.7051,2.7891,2.8301,2.8301,2.8301,2.8301,1.4496,1.4958,1.5213,1.5363,1.5339,1.5136,1.4447,1.4294,1.4151,1.3625,1.3242,1.3157,1.3628,1.3713,1.3978,1.4787,1.568,1.638,1.6658,1.7153,1.7479,1.7479,1.766,1.7793,1.7865,1.83,1.8613,1.8674,1.8927,1.9072,1.9072,1.9072,1.9326,1.9869,1.9881,2.0134,2.0665,2.0665,2.0665,2.0665,2.0665,2.0665,2.0735,2.0943,2.1289,2.176,2.3393,2.5196,2.7105,2.8411,2.9952,3.1377,3.0944,3.0278,2.9674,2.9905,2.9822,2.9739,3.0083,3.0408,3.0649,3.0797,3.0402,2.9813,3.0,2.9575,2.8975,2.8975,2.8975,2.8975,2.8975,2.8975,2.8975,2.8975,2.8682,2.837,2.826,2.7673,2.7141,2.705,2.6793,2.6591,2.6591,2.6591,2.67,2.6899,2.6896,2.6755,2.6134,2.6179,2.6112,2.5732,2.5693,2.5693,2.5693,2.5693,2.5693,2.5693,2.5693,2.5693,2.5693,2.5693,2.5849,2.6211,2.6738,2.7168,2.75,2.8027,2.8301,2.8301,2.8301,2.8301,1.495,1.5364,1.5571,1.565,1.5442,1.5084,1.4444,1.4097,1.3763,1.3105,1.2747,1.2662,1.3085,1.3157,1.3459,1.4389,1.5221,1.5946,1.6441,1.6972,1.7358,1.7467,1.7708,1.7925,1.8046,1.8432,1.8734,1.8843,1.8988,1.9072,1.9072,1.9072,1.9326,1.9869,1.9881,2.0134,2.0665,2.0665,2.0665,2.0665,2.0665,2.0665,2.0735,2.1081,2.1622,2.2379,2.3856,2.5667,2.7668,2.8822,3.0148,3.1377,3.1184,3.0861,3.0538,3.075,3.0667,3.0538,3.0991,3.1139,3.1157,3.1322,3.0846,3.0204,3.0204,2.9635,2.8975,2.8975,2.8975,2.8975,2.8975,2.8975,2.8975,2.8975,2.881,2.8608,2.8425,2.7893,2.7325,2.6995,2.6738,2.6591,2.6591,2.6591,2.6646,2.6791,2.6989,2.698,2.6446,2.6455,2.6276,2.5752,2.5693,2.5693,2.5693,2.5693,2.5693,2.5693,2.5693,2.5693,2.5693,2.5918,2.6133,2.6387,2.6992,2.7422,2.7728,2.8086,2.8301,2.8301,2.8301,2.8301,1.5311,1.5631,1.5771,1.5778,1.5391,1.4917,1.4295,1.3812,1.3188,1.2366,1.2155,1.2192,1.2493,1.2542,1.2904,1.3966,1.4654,1.5318,1.6066,1.6706,1.7177,1.7406,1.7732,1.8022,1.8275,1.8565,1.8831,1.906,1.9072,1.9072,1.9072,1.9108,1.9374,1.9917,1.9977,2.0207,2.0665,2.0665,2.0665,2.0665,2.0665,2.0665,2.0735,2.1081,2.1897,2.2996,2.421,2.6069,2.8345,2.9102,3.0213,3.1377,3.1377,3.1377,3.1377,3.1377,3.1377,3.1377,3.1377,3.1157,3.0919,3.1212,3.0772,3.0112,3.0112,2.958,2.8975,2.8975,2.8975,2.8975,2.8975,2.8975,2.8975,2.8975,2.8975,2.8883,2.8535,2.8095,2.7583,2.6738,2.6591,2.6591,2.6591,2.6591,2.6591,2.6646,2.7062,2.7217,2.6926,2.6806,2.6543,2.5947,2.5849,2.583,2.5771,2.5771,2.5752,2.5693,2.5752,2.5771,2.5771,2.625,2.6504,2.6562,2.7285,2.7748,2.7806,2.8125,2.8301,2.8301,2.8301,2.8301,1.5658,1.5744,1.5765,1.5524,1.5385,1.5008,1.384,1.3328,1.2807,1.186,1.131,1.1116,1.1609,1.1694,1.2042,1.3113,1.4147,1.498,1.5559,1.6477,1.7105,1.7153,1.7793,1.8239,1.8287,1.8722,1.9024,1.9072,1.9072,1.9072,1.9072,1.9277,1.9652,2.0195,2.0424,2.0581,2.0665,2.0665,2.0665,2.0665,2.0665,2.0665,2.0735,2.1427,2.231,2.3406,2.509,2.6902,2.8757,2.9774,3.0685,3.1377,3.1377,3.1377,3.1377,3.1377,3.1377,3.1377,3.1377,3.1341,3.1231,3.0974,3.0351,2.9672,2.9672,2.936,2.8975,2.8975,2.8975,2.8975,2.8975,2.8975,2.8975,2.8975,2.8975,2.8957,2.8902,2.8297,2.7583,2.6738,2.6591,2.6591,2.6591,2.6591,2.6682,2.6899,2.6989,2.7056,2.7118,2.7369,2.7312,2.6855,2.6797,2.666,2.6309,2.6269,2.6113,2.5713,2.6074,2.6269,2.6269,2.668,2.707,2.7493,2.765,2.7832,2.8184,2.8262,2.8301,2.8301,2.8301,2.8301,1.5712,1.5784,1.5765,1.5471,1.5164,1.4657,1.3647,1.2885,1.2169,1.1435,1.0851,1.0599,1.0996,1.1188,1.1612,1.2554,1.3483,1.4377,1.5185,1.6091,1.6779,1.7056,1.7805,1.83,1.83,1.865,1.8927,1.906,1.8951,1.8988,1.9265,1.9664,1.9941,2.0074,2.0327,2.04,2.0267,2.04,2.046,2.046,2.0605,2.0804,2.1012,2.1691,2.2791,2.4088,2.5644,2.7368,2.9102,3.0035,3.0815,3.1377,3.1377,3.1377,3.1377,3.1377,3.1377,3.1377,3.1377,3.1102,3.0736,3.0552,3.0222,2.9892,2.9892,2.947,2.8975,2.8975,2.8975,2.8975,2.8975,2.8975,2.8975,2.8975,2.8975,2.8865,2.8443,2.8097,2.7583,2.6738,2.6591,2.6591,2.6591,2.6591,2.6646,2.6791,2.6881,2.7077,2.7245,2.7617,2.7577,2.7039,2.7012,2.6934,2.6738,2.6719,2.6621,2.6376,2.6602,2.6719,2.6719,2.7129,2.7461,2.7708,2.7943,2.8086,2.8301,2.8301,2.8301,2.8301,2.8301,2.8301,1.5685,1.5784,1.5704,1.5391,1.491,1.4273,1.3442,1.2439,1.1574,1.1034,1.0491,1.0202,1.0466,1.0683,1.1129,1.1926,1.2735,1.3628,1.4702,1.562,1.6392,1.6948,1.7768,1.83,1.83,1.8529,1.8794,1.906,1.8939,1.906,1.9531,2.0014,2.0183,1.9977,2.0231,2.0231,1.9977,2.0231,2.0364,2.0364,2.0569,2.0873,2.1138,2.1897,2.3133,2.4563,2.5981,2.765,2.943,3.01,3.0815,3.1377,3.1377,3.1322,3.1267,3.1341,3.1322,3.1267,3.1341,3.0919,3.0332,3.0332,3.0149,2.9947,2.9947,2.9489,2.8975,2.8975,2.8975,2.8975,2.8975,2.8975,2.8975,2.8975,2.8975,2.8755,2.8005,2.7822,2.7583,2.6738,2.6591,2.6591,2.6591,2.6591,2.6591,2.6591,2.6791,2.7043,2.7368,2.7638,2.7656,2.7312,2.7285,2.7246,2.7168,2.7148,2.7109,2.7031,2.7109,2.7148,2.7148,2.7578,2.7865,2.7865,2.8125,2.8301,2.8301,2.8301,2.8301,2.8301,2.8379,2.8437,1.5738,1.5784,1.5698,1.5137,1.4763,1.418,1.2954,1.2043,1.1232,1.0524,0.9949,0.9672,0.9925,0.9997,1.0274,1.1093,1.1902,1.2795,1.387,1.5113,1.6127,1.667,1.766,1.83,1.83,1.8529,1.8794,1.906,1.9277,1.9531,1.9833,2.0122,2.0267,2.0243,2.0496,2.0509,2.0243,2.0496,2.0629,2.0629,2.0653,2.0735,2.0804,2.1829,2.3119,2.4602,2.5965,2.7766,2.9822,3.023,3.0815,3.1377,3.1377,3.1157,3.0882,3.1249,3.1157,3.0901,3.1249,3.1102,3.0736,3.0736,2.9984,2.9085,2.9085,2.9048,2.8975,2.8975,2.8975,2.8975,2.8975,2.8975,2.8975,2.8975,2.8975,2.8755,2.8005,2.7822,2.7583,2.6738,2.6591,2.6591,2.6591,2.6591,2.6591,2.6591,2.6646,2.6791,2.7314,2.7422,2.7618,2.813,2.8184,2.8027,2.7689,2.7669,2.7441,2.7031,2.7383,2.7669,2.7669,2.8008,2.8242,2.8242,2.8281,2.8301,2.8301,2.8301,2.8301,2.8301,2.8691,2.8867,1.5444,1.5698,1.5685,1.511,1.4603,1.3944,1.266,1.1686,1.0906,1.0186,0.9769,0.9552,0.9648,0.9793,1.0106,1.0731,1.1513,1.2445,1.3519,1.4678,1.562,1.6151,1.7153,1.7805,1.7805,1.8191,1.8553,1.8819,1.9229,1.9584,1.9627,1.9893,2.0099,2.0141,2.0197,2.0209,2.0128,2.0355,2.0573,2.0767,2.0731,2.0943,2.1427,2.2242,2.3515,2.5196,2.662,2.8362,3.0148,3.0555,3.1009,3.1377,3.1377,3.1139,3.0809,3.0974,3.0919,3.0809,3.0974,3.0772,3.0442,3.0442,2.9782,2.903,2.9269,2.9177,2.8975,2.8975,2.8975,2.8975,2.8975,2.8975,2.8975,2.8975,2.8975,2.8755,2.8005,2.7822,2.7583,2.6738,2.6591,2.6591,2.6591,2.6591,2.6591,2.6591,2.6591,2.6755,2.7098,2.7314,2.7584,2.8014,2.8174,2.8223,2.8066,2.8047,2.7969,2.7793,2.7949,2.8047,2.8047,2.8203,2.8301,2.8301,2.8301,2.8301,2.8301,2.8301,2.8301,2.8301,2.873,2.8926,1.5084,1.5418,1.5458,1.4963,1.4389,1.3665,1.2466,1.152,1.0707,1.0028,0.9697,0.9516,0.9516,0.966,0.9961,1.0478,1.1176,1.2059,1.3121,1.4195,1.5065,1.5596,1.6598,1.7286,1.7358,1.7998,1.8481,1.8674,1.9096,1.935,1.935,1.9543,1.9801,2.0005,1.9947,1.9959,2.0005,2.0215,2.0471,2.0811,2.0808,2.122,2.1966,2.2928,2.4221,2.5716,2.7304,2.8903,3.033,3.0696,3.112,3.1377,3.1377,3.1066,3.0626,3.0754,3.0644,3.0442,3.0571,3.0351,3.002,3.002,2.9544,2.903,2.9324,2.9195,2.8975,2.8975,2.8975,2.8975,2.8975,2.8975,2.8975,2.8975,2.8902,2.8608,2.7969,2.773,2.7454,2.6719,2.6591,2.6591,2.6591,2.6591,2.6591,2.6591,2.6591,2.6682,2.6989,2.7152,2.7422,2.7853,2.8067,2.8228,2.8281,2.8301,2.8301,2.8301,2.8301,2.8301,2.8301,2.8301,2.8301,2.8301,2.8301,2.8301,2.8301,2.8301,2.8301,2.8301,2.8848,2.9258,1.4723,1.5022,1.4941,1.4603,1.4039,1.3372,1.2415,1.152,1.0707,1.0028,0.9697,0.9516,0.9516,0.9484,0.9697,1.0214,1.0779,1.1492,1.2566,1.3628,1.4509,1.5052,1.6054,1.6815,1.7068,1.8058,1.8686,1.8686,1.8927,1.9084,1.9084,1.9084,1.9398,2.0005,1.9947,1.9959,2.0005,2.0215,2.0471,2.0811,2.1083,2.1553,2.231,2.3788,2.5033,2.6071,2.8015,2.9353,3.0338,3.0717,3.112,3.1377,3.1377,3.0901,3.0259,3.0644,3.0277,2.9654,3.0057,2.9929,2.9641,2.9641,2.9305,2.8975,2.8993,2.8993,2.8975,2.8975,2.8975,2.8975,2.8975,2.8975,2.8975,2.8975,2.8682,2.8278,2.7914,2.7509,2.7068,2.6664,2.6591,2.6591,2.6591,2.6591,2.6591,2.6591,2.6591,2.6682,2.6989,2.6989,2.7206,2.7853,2.7906,2.8014,2.8301,2.8301,2.8301,2.8301,2.8301,2.8301,2.8301,2.8301,2.8301,2.8301,2.8301,2.8301,2.8301,2.8301,2.8301,2.832,2.916,3.0039,1.3868,1.4215,1.4295,1.3959,1.3467,1.2841,1.1983,1.1204,1.0497,0.9958,0.9673,0.9516,0.9516,0.9516,0.9684,1.0214,1.0731,1.1479,1.2554,1.3628,1.4497,1.504,1.6054,1.702,1.7841,1.8215,1.8565,1.8927,1.9024,1.9072,1.9072,1.9328,1.9621,2.0041,1.9785,1.9883,2.0331,2.0099,2.0337,2.0872,2.0948,2.171,2.3081,2.4072,2.5451,2.708,2.8188,2.9284,3.0236,3.0701,3.091,3.0974,3.0974,3.0662,3.0185,3.002,2.98,2.9599,2.9727,2.969,2.9562,2.9562,2.9305,2.8975,2.8975,2.8975,2.8975,2.8975,2.8975,2.8975,2.8975,2.8975,2.892,2.8645,2.848,2.8205,2.7508,2.727,2.7068,2.6664,2.6591,2.6591,2.6591,2.6591,2.6591,2.6591,2.6591,2.6646,2.6736,2.6899,2.7098,2.726,2.7638,2.8014,2.8301,2.8301,2.8301,2.8301,2.8301,2.8301,2.8301,2.8301,2.8301,2.8301,2.8301,2.8301,2.8301,2.8301,2.8594,2.9235,2.9434,3.0039,1.2919,1.3267,1.3373,1.3147,1.2772,1.2291,1.1598,1.1002,1.0423,0.9886,0.9708,0.958,0.9516,0.9516,0.9684,1.0214,1.0731,1.1479,1.2554,1.3628,1.4642,1.5596,1.6465,1.7334,1.8215,1.8384,1.8613,1.9048,1.9072,1.9136,1.9264,1.952,1.9839,2.0297,1.995,1.9909,2.0361,2.0182,2.0319,2.078,2.1147,2.2161,2.3833,2.469,2.6025,2.7724,2.8647,2.9395,0.0,3.0406,3.0571,3.0571,3.0571,3.0314,2.9929,2.9672,2.947,2.9342,2.9342,2.9342,2.9342,2.9342,2.9177,2.8975,2.8975,2.8975,2.8975,2.8975,2.8975,2.8975,2.8975,2.8865,2.87,2.8462,2.8168,2.7801,2.7288,2.7068,2.6885,2.6628,2.6591,2.6591,2.6591,2.6591,2.6591,2.6591,2.6591,2.6591,2.6591,2.6736,2.6881,2.6989,2.7368,2.7745,2.8121,2.8228,2.8301,2.8301,2.8301,2.8301,2.8301,2.8301,2.8301,2.8301,2.8301,2.8301,2.8301,2.8457,2.8965,2.9805,2.9805,3.0195,0.0,1.2211,1.2265,1.2238,1.2037,1.1757,1.1304,1.0901,0.0,0.995,0.9804,0.974,0.9548,0.9528,0.9709,1.0238,1.0767,1.1516,1.2614,1.3713,1.4992,1.6573,1.7189,1.7708,1.8263,1.8541,1.8794,1.906,1.9072,1.9264,1.9584,1.9647,1.9903,2.0615,2.0297,2.017,2.0106,2.0361,2.0488,2.0488,2.1464,2.2813,2.455,2.5593,2.6813,2.814,2.9189,2.9628,2.9562,2.9984,3.0149,3.0149,3.0149,2.991,2.9623,2.9544,2.9305,2.8975,2.8975,2.8975,2.8975,2.8975,2.8975,2.8975,2.8975,2.8975,2.8975,2.8975,2.8975,2.8975,2.8975,2.8682,2.8388,2.8352,2.7746,2.7178,2.7141,2.6848,2.6591,2.6591,2.6591,2.6591,2.6591,2.6591,2.6591,2.6591,2.6591,2.6591,2.6591,2.6591,2.6682,2.6935,2.6989,2.7206,2.7799,2.8121,2.8301,2.8301,2.8301,2.8301,2.8301,2.8301,2.8301,2.8301,2.832,2.834,2.834,2.8769,2.9394,3.0195,3.0195,3.0449,1.0645,0.0,1.1917,1.169,1.1549,1.1415,0.0,1.0712,1.0347,1.0219,0.9996,0.9804,0.974,0.9782,0.9985,1.0515,1.1044,1.1838,1.3145,1.4594,1.5958,1.7153,1.7406,1.7781,1.8517,1.865,1.8794,1.906,1.9072,1.9264,1.9584,1.9839,2.0157,2.0602,2.0792,2.0729,2.0488,2.0298,2.0336,2.0579,2.1346,2.2806,2.4922,2.5759,2.7078,2.8763,2.9034,2.9154,2.9159,2.9562,2.9727,2.9727,2.9727,2.9654,2.9525,2.9232,2.9067,2.8975,2.8975,2.8975,2.8975,2.8975,2.8975,2.8975,2.8975,2.8975,2.8975,2.8975,2.8975,2.8975,2.8975,2.8682,2.8315,2.7985,2.7526,2.7105,2.6793,2.6646,2.6591,2.6591,2.6591,2.6591,2.6591,2.6591,2.6591,2.6591,2.6591,2.6591,2.6591,2.6591,2.6646,2.6682,2.6899,2.7152,2.7476,2.7799,2.8067,2.8301,2.8301,2.8301,2.8301,2.8301,2.8301,2.8301,2.8613,2.8769,2.8769,2.9199,2.9687,3.0195,3.0195,3.0449,0.9951,1.0537,1.1062,1.1035,1.1022,1.0982,1.0868,1.0611,1.0396,1.0333,1.0155,1.0034,0.9998,1.0113,1.0353,1.0816,1.1564,1.2662,1.4364,1.5668,1.6791,1.7744,1.7962,1.8251,1.8807,1.8867,1.8927,1.906,1.9072,1.9328,1.9775,1.9979,2.0297,2.0792,2.0982,2.0919,2.0602,2.0539,2.0539,2.0615,2.1425,2.2966,2.5056,2.5745,2.7159,2.8975,2.8975,2.8975,2.8993,2.9214,2.9305,2.9305,2.9305,2.9305,2.9269,2.9067,2.8975,2.8975,2.8975,2.8975,2.8975,2.8975,2.8975,2.8975,2.8975,2.8975,2.8975,2.8975,2.8975,2.8938,2.8755,2.8407,2.8003,2.76,2.7196,2.6848,2.6628,2.6591,2.6591,2.6591,2.6591,2.6591,2.6591,2.6591,2.6591,2.6591,2.6591,2.6591,2.6591,2.6591,2.6591,2.6591,2.6736,2.6954,2.7368,2.7584,2.7853,2.8281,2.8301,2.8379,2.8574,2.8574,2.8672,2.8867,2.8906,2.9121,2.9512,2.9746,3.0078,3.0508,3.0508,3.0644,0.965,0.993,1.0194,1.0573,1.076,1.0827,1.0693,1.0653,1.0608,1.0378,1.034,1.0316,1.0263,1.0486,1.0848,1.1202,1.2324,1.3773,1.5632,1.6549,1.7346,1.8191,1.8444,1.8698,1.9048,1.9072,1.9072,1.9072,1.9136,1.9456,2.0043,2.017,2.0488,2.1109,2.1172,2.1046,2.0729,2.0982,2.0982,2.0666,2.1677,2.3091,2.5056,2.5745,2.7159,2.8975,2.8975,2.8975,2.8975,2.8975,2.8975,2.8975,2.8975,2.8975,2.8975,2.8975,2.8975,2.8975,2.8975,2.8975,2.8975,2.8975,2.8975,2.8975,2.8975,2.8975,2.8975,2.8975,2.8975,2.8902,2.8498,2.8077,2.773,2.727,2.6885,2.6591,2.6591,2.6591,2.6591,2.6591,2.6591,2.6591,2.6591,2.6591,2.6609,2.6664,2.6683,2.6701,2.6756,2.6774,2.6774,2.6774,2.6774,2.6957,2.7373,2.7481,2.7714,2.8194,2.8359,2.8574,2.9004,2.9023,2.9199,2.957,2.9277,2.9473,3.0195,3.0273,3.0508,3.0898,3.0898,3.0898,0.9725,0.9975,1.0217,1.0795,1.149,1.1837,1.1102,1.0929,1.0862,1.0608,1.0594,1.058,1.0388,1.0866,1.1464,1.1999,1.3785,1.5258,1.5813,1.6392,1.7141,1.8167,1.8118,1.8287,1.9,1.9072,1.9072,1.9072,1.9392,1.9711,2.0106,2.0361,2.0666,2.1109,2.1362,2.1488,2.1425,2.1235,2.1046,2.1046,2.174,2.3091,2.5056,2.5745,2.7159,2.8975,2.8975,2.8975,2.8975,2.8975,2.8975,2.8975,2.8975,2.8975,2.8975,2.8975,2.8975,2.8975,2.8975,2.8975,2.8975,2.8975,2.8975,2.8975,2.8975,2.8975,2.8975,2.8975,2.8975,2.8902,2.8498,2.8077,2.773,2.727,2.6885,2.6591,2.6591,2.6591,2.6591,2.6591,2.6591,2.6591,2.6591,2.6591,2.6701,2.7031,2.7086,2.7215,2.7601,2.7638,2.7638,2.7638,2.7638,2.7622,2.7567,2.7787,2.791,2.7979,2.8505,2.9023,2.9453,2.9473,2.9548,2.9626,2.9844,3.0059,3.0195,3.0586,3.082,3.0898,3.0898,3.0898,0.964,1.0188,1.0688,1.1116,1.153,1.1717,1.1316,1.1223,1.1182,1.1049,1.1195,1.1348,1.1319,1.1942,1.2796,1.3856,1.4739,1.5584,1.6416,1.6875,1.7418,1.8203,1.83,1.8517,1.9024,1.9072,1.92,1.9392,1.9507,1.9839,2.0361,2.0552,2.0729,2.1109,2.1425,2.1853,2.2404,2.2466,2.2153,2.1677,2.248,2.379,2.5378,2.6172,2.7461,2.8975,2.8975,2.8975,2.8975,2.8975,2.8975,2.8975,2.8975,2.8975,2.8975,2.8975,2.8975,2.8975,2.8975,2.8975,2.8975,2.8975,2.8975,2.8975,2.8975,2.8975,2.8975,2.8975,2.8975,2.8847,2.8223,2.7911,2.7675,2.7013,2.6719,2.6591,2.6591,2.6591,2.6591,2.6591,2.6591,2.6591,2.6591,2.6756,2.6976,2.7141,2.7417,2.762,2.7803,2.7822,2.7822,2.7822,2.7822,2.7731,2.7605,2.7734,2.7971,2.8416,2.8969,2.9473,2.9883,2.9902,3.0019,3.0273,3.0234,3.0312,3.0566,3.0781,3.0898,3.0898,3.0898,3.0898,0.9517,1.0198,1.0862,1.1156,1.153,1.1775,1.1628,1.1708,1.1788,1.1757,1.2024,1.2287,1.2299,1.2943,1.3878,1.5273,1.5439,1.5777,1.6923,1.7213,1.7515,1.8131,1.8312,1.8553,1.8951,1.9036,1.9264,1.9571,1.9647,1.9966,2.0539,2.0666,2.0829,2.1015,2.1379,2.2012,2.298,2.3486,2.339,2.2779,2.3666,2.4718,2.5928,2.6779,2.7822,2.8975,2.8975,2.8975,2.8975,2.8975,2.8975,2.8975,2.8975,2.8975,2.8975,2.8975,2.8975,2.8975,2.8975,2.8975,2.8975,2.8975,2.8975,2.8975,2.8975,2.8975,2.8975,2.8975,2.8975,2.881,2.8095,2.7911,2.7728,2.7031,2.6866,2.6866,2.6866,2.6866,2.6866,2.6866,2.6866,2.6866,2.6866,2.7123,2.7343,2.7453,2.771,2.7948,2.8097,2.8116,2.8116,2.8116,2.8116,2.8008,2.7884,2.7884,2.8236,2.9053,2.9434,2.9805,3.0332,3.0351,3.0527,3.0879,3.0547,3.0527,3.0898,3.0898,3.0898,3.0898,3.0898,3.0898,0.9343,0.9771,1.0247,1.0586,1.1864,1.2933,1.2371,1.2679,1.2999,1.2744,1.3106,1.336,1.2936,1.34,1.4232,1.5333,1.5885,1.6404,1.7008,1.6899,1.7044,1.7817,1.7708,1.7865,1.8638,1.8927,1.9264,1.9571,1.9903,2.0234,2.0615,2.0919,2.0989,2.0722,2.1314,2.1897,2.2557,2.3535,2.4328,2.481,2.5256,2.5989,2.69,2.7263,2.8002,2.8975,2.8975,2.8975,2.8975,2.8975,2.8975,2.8975,2.8975,2.8975,2.8975,2.8975,2.8975,2.8975,2.8975,2.8975,2.8975,2.8975,2.8975,2.8975,2.8975,2.8975,2.8975,2.8975,2.8975,2.8883,2.8462,2.8352,2.8242,2.784,2.773,2.773,2.773,2.773,2.773,2.773,2.773,2.773,2.773,2.7767,2.7856,2.8242,2.8333,2.848,2.8847,2.8902,2.8902,2.8902,2.8902,2.8855,2.8721,2.8672,2.8955,2.9718,2.9672,2.9961,3.0801,3.084,3.0859,3.0898,3.0859,3.0859,3.0898,3.0898,3.0898,3.0898,3.0898,3.0898,0.9517,0.9999,1.0501,1.0982,1.1877,1.2639,1.2623,1.2906,1.328,1.3574,1.4055,1.4515,1.4727,1.4693,1.4973,1.6066,1.6259,1.6525,1.7237,1.7394,1.7479,1.7612,1.7684,1.7781,1.7925,1.8022,1.8325,1.8809,1.899,1.9305,1.9847,1.9967,2.0054,2.0134,2.0782,2.1873,2.3417,2.4268,2.5476,2.7113,2.6678,2.6779,2.7323,2.79,2.8439,2.8975,2.8975,2.8975,2.8975,2.8975,2.8975,2.8975,2.8975,2.8975,2.8975,2.8975,2.8975,2.8975,2.8975,2.8975,2.8975,2.8975,2.8975,2.8975,2.8975,2.8975,2.8975,2.8975,2.8975,2.8902,2.8498,2.8388,2.8297,2.7932,2.7822,2.7822,2.7822,2.7822,2.7822,2.7822,2.7822,2.7822,2.7822,2.7985,2.8205,2.837,2.8608,2.881,2.8957,2.8975,2.8975,2.8975,2.8773,2.8612,2.8563,2.8633,2.8956,2.9432,2.9774,3.0234,3.0859,3.0898,3.0898,3.0898,3.0898,3.0898,3.0898,3.0898,3.0898,3.0898,3.0898,3.0898,0.9706,1.0107,1.06,1.1142,1.173,1.2382,1.3052,1.34,1.3761,1.4269,1.483,1.5392,1.5944,1.5539,1.5482,1.6646,1.6435,1.6465,1.7358,1.7563,1.7563,1.7382,1.7515,1.7563,1.737,1.7547,1.7889,1.8473,1.859,1.8952,1.9475,1.9685,1.978,1.9771,2.0749,2.2067,2.3789,2.4672,2.6157,2.8205,2.7689,2.7639,2.8002,2.8439,2.8755,2.8975,2.8975,2.8975,2.8975,2.8975,2.8975,2.8975,2.8975,2.8975,2.8975,2.8975,2.8975,2.8975,2.8975,2.8975,2.8975,2.8975,2.8975,2.8975,2.8975,2.8975,2.8975,2.8975,2.8975,2.892,2.8645,2.859,2.8517,2.8223,2.815,2.815,2.815,2.815,2.815,2.815,2.815,2.815,2.815,2.8388,2.859,2.859,2.881,2.8975,2.8975,2.8975,2.8975,2.8975,2.8737,2.859,2.859,2.8836,2.9126,2.9467,3.0007,3.0431,3.0879,3.0762,3.0742,3.0898,3.0742,3.0742,3.0898,3.0898,3.0898,3.0898,3.0898,3.0898,0.9918,1.0018,1.0274,1.0862,1.1484,1.2315,1.3761,1.4309,1.4603,1.4955,1.5431,1.5909,1.6258,1.566,1.5543,1.6857,1.6399,1.6272,1.7334,1.7261,1.7092,1.7092,1.7092,1.7092,1.7092,1.7566,1.8181,1.8739,1.91,1.9461,1.9809,2.0375,2.0403,1.9822,2.1322,2.2536,2.3424,2.4704,2.6232,2.7822,2.8187,2.859,2.8975,2.8975,2.8975,2.8975,2.8975,2.8975,2.8975,2.8975,2.8975,2.8975,2.8975,2.8975,2.8975,2.8975,2.8975,2.8975,2.8975,2.8975,2.8975,2.8975,2.8975,2.8975,2.8975,2.8975,2.8975,2.8975,2.8975,2.8975,2.8975,2.8975,2.8975,2.8975,2.8975,2.8975,2.8975,2.8975,2.8975,2.8975,2.8975,2.8975,2.8975,2.8975,2.8975,2.8975,2.8975,2.8975,2.8975,2.8975,2.8975,2.8975,2.8975,2.8975,2.8975,2.9331,2.9627,2.9863,3.0216,3.0567,3.0898,3.0449,3.043,3.0879,3.043,3.043,3.0898,3.0898,3.0898,3.0898,3.0898,3.0898,1.0302,1.0693,1.1223,1.206,1.2679,1.34,1.4456,1.4603,1.4776,1.5698,1.5858,1.5904,1.6241,1.6095,1.6125,1.6728,1.6808,1.7025,1.7769,1.7594,1.7414,1.7449,1.7265,1.7134,1.7165,1.7497,1.8212,1.9487,1.9445,1.9626,2.0113,2.0158,2.0202,2.0443,2.1264,2.2607,2.439,2.4954,2.5995,2.7361,2.7471,2.804,2.8975,2.8975,2.8975,2.8975,2.8975,2.8975,2.8975,2.8975,2.8975,2.8975,2.8975,2.8975,2.8975,2.8975,2.8975,2.8975,2.8975,2.8975,2.8975,2.8975,2.8975,2.8975,2.8975,2.8975,2.8975,2.8975,2.8975,2.8975,2.8975,2.8975,2.8975,2.8975,2.8975,2.8975,2.8975,2.8975,2.8975,2.8975,2.8975,2.8975,2.8975,2.8975,2.8975,2.8975,2.8975,2.8975,2.8975,2.8975,2.8975,2.8975,2.8975,2.8975,2.8975,2.9331,2.9509,2.9627,3.0098,3.0567,3.0898,3.0762,3.0762,3.0898,3.0762,3.0762,3.0898,3.0898,3.0898,3.0898,3.0898,3.0898,1.0747,1.1156,1.1663,1.2717,1.3373,1.4082,1.5084,1.5164,1.5271,1.6099,1.6126,1.6059,1.6246,1.6402,1.6561,1.681,1.7116,1.7469,1.791,1.7901,1.779,1.7633,1.7551,1.7382,1.7223,1.7687,1.8561,1.9975,1.999,2.0114,2.0644,2.0833,2.0998,2.1067,2.2094,2.3435,2.4944,2.5331,2.6095,2.7178,2.7178,2.7636,2.8498,2.8498,2.8498,2.8498,2.8498,2.859,2.8755,2.8755,2.8847,2.8975,2.8975,2.8975,2.8975,2.8975,2.8975,2.8975,2.8975,2.8975,2.8975,2.8975,2.8975,2.8975,2.8975,2.8975,2.8975,2.8975,2.8975,2.8975,2.8975,2.8975,2.8975,2.8975,2.8975,2.8975,2.8975,2.8975,2.8975,2.8975,2.8975,2.8975,2.8975,2.8975,2.8975,2.8975,2.8975,2.8975,2.8975,2.8975,2.8975,2.8975,2.8975,2.8975,2.8975,2.9213,2.9331,2.9509,2.9922,3.0333,3.0704,3.0645,3.0703,3.0879,3.0703,3.0703,3.0898,3.0898,3.0898,3.0898,3.0898,3.0898,1.1149,1.1455,1.1824,1.2999,1.3774,1.4536,1.5611,1.5838,1.5939,1.6179,1.6308,1.6321,1.6321,1.6605,1.6951,1.7146,1.7448,1.7799,1.8015,1.8252,1.821,1.7772,1.7932,1.7888,1.741,1.8099,1.914,2.0431,2.0773,2.1115,2.1496,2.2245,2.2403,2.189,2.354,2.4723,2.5331,2.5844,2.6481,2.7123,2.7123,2.7362,2.7711,2.7785,2.7822,2.7822,2.7822,2.7985,2.8333,2.837,2.8608,2.8938,2.8975,2.8975,2.8975,2.8975,2.8975,2.8975,2.8975,2.8975,2.8975,2.8975,2.8975,2.8975,2.8975,2.8975,2.8975,2.8975,2.8975,2.8975,2.8975,2.8975,2.8975,2.8975,2.8975,2.8975,2.8975,2.8975,2.8975,2.8975,2.8975,2.8975,2.8975,2.8975,2.8975,2.8975,2.8975,2.8975,2.8975,2.8975,2.8975,2.8975,2.8975,2.8975,2.8975,2.8975,2.9153,2.945,2.9745,3.0039,3.0333,3.0296,3.0449,3.0879,3.0469,3.0469,3.0898,3.0898,3.0898,3.0898,3.0898,3.0918,1.1129,1.1931,1.273,1.3654,1.4683,1.5645,1.6353,1.6339,1.6126,1.5965,1.6112,1.6321,1.6321,1.6935,1.746,1.7469,1.7892,1.8346,1.8635,1.8532,1.8448,1.8616,1.8442,1.8358,1.8525,1.9158,2.0345,2.2249,2.2473,2.2975,2.3988,2.3944,2.3978,2.4105,2.4671,2.5404,2.63,2.6409,2.6573,2.6719,2.6719,2.6756,2.6866,2.7546,2.7822,2.7822,2.7822,2.7877,2.793,2.826,2.8443,2.8553,2.8865,2.8975,2.8975,2.8975,2.8975,2.8975,2.8975,2.8975,2.8975,2.8975,2.8975,2.8975,2.8975,2.8975,2.8975,2.8975,2.8975,2.8975,2.8975,2.8975,2.8975,2.8975,2.8975,2.8975,2.8975,2.8975,2.8975,2.8975,2.8975,2.8975,2.8975,2.8975,2.8975,2.8975,2.8975,2.8975,2.8975,2.8975,2.8975,2.8975,2.8975,2.8975,2.8975,2.8975,2.9035,2.9094,2.9627,2.9922,2.9981,3.049,3.0781,3.0898,3.0801,3.0801,3.0898,3.0898,3.0898,3.0898,3.0898,3.1074,1.145,1.2328,1.3172,1.478,1.5271,1.5645,1.6513,1.6366,1.6019,1.5858,1.5952,1.6099,1.6246,1.7012,1.7595,1.7577,1.8333,1.8894,1.8881,1.8881,1.8894,1.8881,1.8881,1.8894,1.8881,1.9577,2.0831,2.2862,2.3143,2.3704,2.4944,2.5,2.5,2.5,2.5386,2.5953,2.6591,2.6591,2.6591,2.6591,2.6591,2.6591,2.6609,2.7013,2.7196,2.7196,2.7196,2.7306,2.7508,2.7728,2.804,2.8407,2.8627,2.881,2.8975,2.8975,2.8975,2.8975,2.8975,2.8975,2.8975,2.8975,2.8975,2.8975,2.8975,2.8975,2.8975,2.8975,2.8975,2.8975,2.8975,2.8975,2.8975,2.8975,2.8975,2.8975,2.8975,2.8975,2.8975,2.8975,2.8975,2.8975,2.8975,2.8975,2.8975,2.8975,2.8975,2.8975,2.8975,2.8975,2.8975,2.8975,2.8975,2.8975,2.8975,2.8975,2.9094,2.929,2.9686,2.9981,3.0157,3.0645,3.0898,3.0898,3.0898,3.0898,3.0898,3.0898,3.0898,3.0898,3.0898,3.1113,1.1672,1.259,1.3601,1.5853,1.5832,1.5462,1.6491,1.6308,1.5946,1.5845,1.5872,1.5979,1.6233,1.7034,1.7689,1.7672,1.8615,1.9301,1.9055,1.9243,1.9287,1.8932,1.9163,1.9208,1.8853,1.9642,2.0972,2.2767,2.3279,2.4039,2.5386,2.5679,2.5734,2.5441,2.5898,2.63,2.6591,2.6591,2.6591,2.6591,2.6591,2.6591,2.6591,2.6591,2.6591,2.6591,2.6591,2.6774,2.7086,2.7141,2.7581,2.8205,2.8333,2.859,2.8883,2.8957,2.8975,2.8975,2.8975,2.8975,2.8975,2.8975,2.8975,2.8975,2.8975,2.8975,2.8975,2.8975,2.8975,2.8975,2.8975,2.8975,2.8975,2.8975,2.8975,2.8975,2.8975,2.8975,2.8975,2.8975,2.8975,2.8975,2.8975,2.8975,2.8975,2.8975,2.8975,2.8975,2.8975,2.8975,2.8975,2.8975,2.8975,2.8975,2.8975,2.9035,2.9231,2.9587,2.9863,3.0098,3.0392,3.0704,3.0898,3.0898,3.0898,3.0898,3.0898,3.0898,3.0898,3.0898,3.0898,3.1152,1.113,1.276,1.4587,1.6513,1.6513,1.616,1.658,1.6627,1.6443,1.5933,1.6032,1.6268,1.6308,1.7194,1.7983,1.7928,1.8784,1.9359,1.9359,1.9372,1.9265,1.8954,1.8928,1.8878,1.8568,1.9331,2.0638,2.2403,2.3357,2.4612,2.63,2.6482,2.6482,2.6409,2.6482,2.6537,2.6591,2.6591,2.6591,2.6591,2.6591,2.6591,2.6591,2.6591,2.6591,2.6591,2.6591,2.6628,2.6701,2.7031,2.7233,2.7416,2.8113,2.8425,2.8517,2.8847,2.8975,2.8975,2.8975,2.8975,2.8975,2.8975,2.8975,2.8975,2.8975,2.8975,2.8975,2.8975,2.8975,2.8975,2.8975,2.8975,2.8975,2.8975,2.8975,2.8975,2.8975,2.8975,2.8975,2.8975,2.8975,2.8975,2.8975,2.8975,2.8975,2.8975,2.8975,2.8975,2.8975,2.8975,2.8975,2.8975,2.8975,2.8975,2.8975,2.935,2.9527,2.9587,3.0039,3.0333,3.0392,3.0704,3.0898,3.0898,3.0898,3.0898,3.0898,3.0898,3.0898,3.0898,3.0898,3.1328,1.2025,1.3838,1.5597,1.7459,1.7606,1.7328,1.7503,1.7225,1.678,1.6209,1.6046,1.6072,1.6295,1.7018,1.7635,1.7969,1.8637,1.9185,1.9345,1.9533,1.9483,1.9172,1.9314,1.9304,1.9002,1.9919,2.1193,2.2615,2.3784,2.5055,2.6537,2.6591,2.6591,2.6591,2.6591,2.6591,2.6591,2.6591,2.6591,2.6591,2.6591,2.6591,2.6591,2.6591,2.6591,2.6591,2.6591,2.6591,2.6609,2.6774,2.6976,2.7215,2.7581,2.7985,2.8407,2.859,2.8792,2.8975,2.8975,2.8975,2.8975,2.8975,2.8975,2.8975,2.8975,2.8975,2.8975,2.8975,2.8975,2.8975,2.8975,2.8975,2.8975,2.8975,2.8975,2.8975,2.8975,2.8975,2.8975,2.8975,2.8975,2.8975,2.8975,2.8975,2.8975,2.8975,2.8975,2.9272,3.0,2.9468,2.8975,2.8975,2.8975,2.8975,2.8975,2.945,2.9941,3.0294,3.0392,3.045,3.0704,3.082,3.0898,3.0898,3.0898,3.0898,3.0898,3.0898,3.0898,3.0898,3.0898,3.1348,1.2715,1.4311,1.5755,1.7699,1.7995,1.7841,1.7945,1.7707,1.7246,1.6627,1.6292,1.6197,1.6378,1.6854,1.734,1.7729,1.8424,1.8998,1.9225,1.9594,1.9729,1.95,1.9794,1.9888,1.9564,2.0644,2.1729,2.2699,2.4027,2.5246,2.6372,2.6536,2.6591,2.6591,2.6591,2.6591,2.6591,2.6591,2.6591,2.6591,2.6591,2.6591,2.6591,2.6591,2.6591,2.6591,2.6591,2.6591,2.6591,2.6591,2.6756,2.7031,2.7141,2.7618,2.8242,2.8352,2.8645,2.8975,2.8975,2.8975,2.8975,2.8975,2.8975,2.8975,2.8975,2.8975,2.8975,2.8975,2.8975,2.8975,2.8975,2.8975,2.8975,2.8975,2.8975,2.8975,2.8975,2.8975,2.8975,2.8975,2.8975,2.8975,2.8975,2.8975,2.8975,2.8975,2.9272,2.9823,3.0762,3.0058,2.9331,2.9035,2.8975,2.8975,2.8975,2.9686,3.0352,3.0898,3.0704,3.0645,3.0898,3.0898,3.0898,3.0898,3.0898,3.0898,3.0898,3.0898,3.0898,3.0898,3.0996,3.1445,1.2432,1.3352,1.4441,1.6551,1.7052,1.7085,1.7284,1.779,1.7992,1.7204,1.7036,1.694,1.6724,1.6954,1.7206,1.7246,1.817,1.8931,1.8945,1.9401,1.9875,2.0022,2.0347,2.046,2.0276,2.1155,2.1947,2.2486,2.3789,2.5021,2.5986,2.6371,2.6591,2.6591,2.6591,2.6591,2.6591,2.6591,2.6591,2.6591,2.6591,2.6591,2.6591,2.6591,2.6591,2.6591,2.6591,2.6591,2.6591,2.6591,2.6591,2.6664,2.7031,2.7435,2.7895,2.8242,2.8645,2.8975,2.8975,2.8975,2.8975,2.8975,2.8975,2.8975,2.8975,2.8975,2.8975,2.8975,2.8975,2.8975,2.8975,2.8975,2.8975,2.8975,2.8975,2.8975,2.8975,2.8975,2.8975,2.8975,2.8975,2.8975,2.8975,2.8975,2.8975,2.8975,3.0058,3.084,3.0898,3.084,3.0352,2.9094,2.8975,2.8975,2.8975,3.0117,3.084,3.0898,3.0898,3.0898,3.0898,3.0898,3.0898,3.0898,3.0898,3.0898,3.0898,3.0898,3.0898,3.0898,3.1309,3.1738,1.1855,1.2953,1.4109,1.5905,1.6729,1.7212,1.747,1.8026,1.8405,1.8449,1.806,1.7702,1.7476,1.7267,1.7095,1.715,1.7746,1.833,1.8482,1.9594,2.0398,2.0414,2.1449,2.1995,2.1631,2.2459,2.3028,2.3168,2.4421,2.5433,2.5968,2.6353,2.6591,2.6591,2.6591,2.6591,2.6591,2.6591,2.6591,2.6591,2.6591,2.6591,2.6591,2.6591,2.6591,2.6591,2.6591,2.6591,2.6591,2.6591,2.6591,2.6609,2.6738,2.7196,2.784,2.793,2.8407,2.8975,2.8975,2.8975,2.8975,2.8975,2.8975,2.8975,2.8975,2.8975,2.8975,2.8975,2.8975,2.8975,2.8975,2.8975,2.8975,2.8975,2.8975,2.9085,2.9415,2.9232,2.8975,2.8975,2.8975,2.8975,2.8975,2.8975,2.9624,3.1546,3.2192,3.2129,3.1035,3.0898,3.0704,3.0294,3.0235,3.0235,3.0235,3.0645,3.0898,3.0898,3.0898,3.0898,3.0898,3.0898,3.0898,3.0898,3.0898,3.0898,3.0898,3.0898,3.0898,3.0898,3.1328,3.1758,1.1179,1.2166,1.3226,1.4652,1.5662,1.638,1.6818,1.7551,1.8362,1.9099,1.8848,1.8472,1.8378,1.8075,1.7688,1.7366,1.7845,1.844,1.8846,1.9986,2.0878,2.1138,2.2221,2.2867,2.2707,2.3409,2.37,2.3323,2.4625,2.55,2.5564,2.6206,2.6591,2.6591,2.6591,2.6591,2.6591,2.6591,2.6591,2.6591,2.6591,2.6591,2.6591,2.6591,2.6591,2.6591,2.6591,2.6591,2.6591,2.6591,2.6591,2.6591,2.6591,2.7068,2.7822,2.7822,2.8278,2.8975,2.8975,2.8975,2.8975,2.8975,2.8975,2.8975,2.8975,2.8975,2.8975,2.8975,2.8975,2.8975,2.8975,2.9122,2.9269,2.936,2.9452,2.9599,2.9874,2.9434,2.903,2.9214,2.9104,2.8975,2.8975,2.9855,3.1134,3.3116,3.3418,3.3008,3.1894,3.1738,3.1738,3.1738,3.123,3.0898,3.0898,3.0898,3.0898,3.0898,3.0898,3.0898,3.0898,3.0898,3.0898,3.0898,3.0898,3.0898,3.0898,3.0898,3.0957,3.1113,3.1543,3.2051,0.0,0.0,0.0,1.2765,1.3702,1.4471,1.5093,1.6358,1.7752,1.9112,1.9335,1.9272,1.9231,1.9318,1.9083,1.8034,1.8503,1.9255,2.0006,2.0623,2.132,2.2148,2.2601,2.3029,2.3505,2.3914,2.3822,2.2986,2.4427,2.5161,2.4812,2.5931,2.6591,2.6591,2.6591,2.6591,2.6591,2.6591,2.6591,2.6591,2.6591,2.6591,2.6591,2.6591,2.6591,2.6591,2.6591,2.6591,2.6591,2.6591,2.6591,2.6591,2.6591,2.7068,2.7822,2.7822,2.8278,2.8975,2.8975,2.8975,2.8975,2.8975,2.8975,2.8975,2.8975,2.8975,2.8975,2.8975,2.8993,2.9012,2.9012,2.9397,2.9855,3.013,3.0369,3.0497,3.0241,2.9562,2.914,2.9654,2.9342,2.8993,2.9048,3.1465,3.3355,3.3418,3.3418,3.3418,3.3418,3.3418,3.3418,3.3418,3.1894,3.0898,3.0898,3.0898,3.0898,3.0898,3.0898,3.0898,3.0898,3.0898,3.0898,3.0898,3.0898,3.0918,3.0918,3.0898,3.1113,3.1523,3.1973,3.2637,0.9845,0.0,0.0,0.0,0.0,0.0,1.3837,1.5184,1.6749,1.8598,1.8939,1.9145,1.9849,1.9883,1.9724,1.9632,1.9347,1.9288,1.9601,2.0585,2.147,2.1907,2.31,2.3925,2.4024,2.4128,2.3932,2.337,2.3755,2.4262,2.4757,2.5931,2.6591,2.6591,2.6591,2.6591,2.6591,2.6591,2.6591,2.6591,2.6591,2.6591,2.6591,2.6591,2.6591,2.6591,2.6591,2.6591,2.6591,2.6591,2.6591,2.6591,2.6591,2.7068,2.7822,2.7822,2.8278,2.8975,2.8975,2.8975,2.8975,2.8975,2.8975,2.8975,2.8975,2.8975,2.8975,2.8975,2.9195,2.947,2.9782,2.9965,3.0057,2.9929,2.9947,3.0039,3.0167,2.9562,2.903,2.9177,2.9085,2.9342,3.0516,3.1402,3.2275,3.3228,3.3418,3.3418,3.3418,3.3418,3.3418,3.3418,3.1894,3.0898,3.0898,3.0898,3.0898,3.0898,3.0898,3.0898,3.0898,3.0898,3.0898,3.0898,3.1191,3.1348,3.1348,3.1035,3.1113,3.1543,3.2285,3.291,0.978,0.998,1.0234,1.0701,0.0,0.0,1.2755,1.4022,1.5607,1.7629,1.8188,1.8629,1.948,1.9676,1.967,1.9679,1.9546,1.9692,2.0314,2.1066,2.1649,2.1948,2.2877,2.3517,2.3657,2.3657,2.3474,2.3023,2.3297,2.3919,2.4977,2.5693,2.6243,2.6573,2.6591,2.6591,2.6591,2.6591,2.6591,2.6591,2.6591,2.6591,2.6591,2.6591,2.6591,2.6591,2.6591,2.6591,2.6591,2.6591,2.6591,2.6591,2.6591,2.7068,2.7822,2.7822,2.8278,2.8975,2.8975,2.8975,2.8975,2.8975,2.8975,2.8975,2.8975,2.8975,2.9012,2.9177,2.9525,2.9929,3.0351,3.0442,3.0442,3.0442,3.0442,3.0497,3.0662,3.0314,2.9984,2.9984,2.9984,3.0277,3.1212,3.1377,3.1699,3.2466,3.3038,3.3418,3.3418,3.3418,3.3418,3.3418,3.1894,3.0898,3.0898,3.0898,3.0898,3.0898,3.0898,3.0898,3.0898,3.0898,3.0976,3.1152,3.1387,3.1523,3.1523,3.1269,3.1367,3.1816,3.2656,3.3184,1.014,1.0221,1.0274,1.0573,1.0943,0.0,1.1871,1.2831,1.4228,1.6206,1.7024,1.7576,1.8332,1.8847,1.907,1.876,1.9306,2.0239,2.1478,2.1632,2.176,2.2163,2.2254,2.2419,2.2803,2.284,2.2675,2.2355,2.2986,2.3969,2.5106,2.5289,2.5729,2.6499,2.6554,2.6591,2.6591,2.6591,2.6591,2.6591,2.6591,2.6591,2.6591,2.6591,2.6591,2.6591,2.6591,2.6591,2.6591,2.6591,2.6591,2.6591,2.6591,2.7068,2.7822,2.7822,2.8278,2.8975,2.8975,2.8975,2.8975,2.8975,2.8975,2.8975,2.8975,2.9012,2.914,2.958,2.9984,3.0351,3.0754,3.0846,3.0937,3.1286,3.1377,3.1377,3.1377,3.1377,3.1377,3.1377,3.1377,3.1377,3.1377,3.1377,3.1377,3.1377,3.2403,3.3228,3.3355,3.3418,3.334,3.3164,3.1797,3.0898,3.0898,3.0898,3.0898,3.0898,3.0898,3.0898,3.0898,3.0898,3.1094,3.1504,3.1621,3.166,3.166,3.1621,3.1758,3.2109,3.2969,3.3359,1.0808,1.0822,1.0835,1.0902,1.0846,0.0,1.1141,1.173,1.2621,1.3977,1.466,1.5413,1.6605,1.7302,1.7854,1.8237,1.9127,2.009,2.1076,2.1236,2.1383,2.176,2.2089,2.2309,2.24,2.24,2.2364,2.2337,2.2748,2.3261,2.3828,2.4831,2.5635,2.6113,2.6408,2.6591,2.6591,2.6591,2.6591,2.6591,2.6591,2.6591,2.6591,2.6591,2.6591,2.6591,2.6591,2.6591,2.6591,2.6591,2.6591,2.6591,2.6591,2.7068,2.7822,2.7822,2.8278,2.8975,2.8975,2.8975,2.8975,2.8975,2.8975,2.8975,2.8975,2.9195,2.9599,3.0351,3.0607,3.0772,3.1157,3.1267,3.1286,3.1359,3.1377,3.1377,3.1377,3.1377,3.1377,3.1377,3.1377,3.1377,3.1377,3.1377,3.1377,3.1377,3.1635,3.2211,3.3228,3.3418,3.2891,3.1523,3.1094,3.0898,3.0898,3.0898,3.0898,3.0898,3.0898,3.0898,3.0898,3.0898,3.1094,3.1504,3.2187,3.2539,3.2539,3.2207,3.1894,3.166,3.2519,3.291,1.1209,1.1209,1.1169,1.1022,1.0889,0.0,0.0,1.1206,1.1825,1.2828,1.3564,1.4313,1.5405,1.6181,1.6822,1.7332,1.8249,1.9222,2.0071,2.0723,2.1273,2.1632,2.187,2.198,2.198,2.198,2.198,2.198,2.2181,2.2565,2.3169,2.4024,2.4739,2.5414,2.5766,2.5986,2.5986,2.5986,2.6078,2.6279,2.6279,2.6389,2.6591,2.6591,2.6591,2.6591,2.6591,2.6591,2.6591,2.6591,2.6591,2.6591,2.6591,2.7068,2.7822,2.7822,2.8278,2.8975,2.8975,2.8975,2.8975,2.8975,2.8975,2.8975,2.8975,2.9415,2.9965,3.0387,3.0772,3.1121,3.1322,3.1377,3.1377,3.1377,3.1377,3.1377,3.1377,3.1377,3.1377,3.1377,3.1377,3.1377,3.1377,3.1377,3.1377,3.1377,3.1377,3.1891,3.3228,3.2676,3.1836,3.0976,3.0898,3.0898,3.0898,3.0898,3.0898,3.0898,3.0898,3.0898,3.0898,3.0898,3.1191,3.1836,3.2676,3.3008,3.2793,3.2578,3.2363,3.2168,3.2812,3.3105,1.1735,1.1655,1.153,1.1236,1.1076,1.0915,0.0,0.0,0.0,1.2082,1.2706,1.3375,1.4186,1.4993,1.5718,1.6241,1.718,1.8115,1.8939,1.9971,2.0851,2.1394,2.1522,2.1577,2.1577,2.1577,2.1595,2.1687,2.1687,2.2016,2.2748,2.3242,2.3846,2.4647,2.5051,2.5378,2.5543,2.5543,2.5745,2.6131,2.6131,2.6315,2.6591,2.6591,2.6591,2.6591,2.6591,2.6591,2.6591,2.6591,2.6591,2.6591,2.6591,2.7068,2.7822,2.7822,2.8278,2.8975,2.8975,2.8975,2.8975,2.8975,2.8975,2.8993,2.9067,2.9562,3.0094,3.0185,3.0662,3.1157,3.1157,3.1194,3.1231,3.1231,3.1304,3.1286,3.0974,3.1157,3.1377,3.1377,3.1377,3.1286,3.0974,3.0919,3.0919,3.0919,3.0919,3.1425,3.2743,3.1738,3.0898,3.0898,3.0898,3.0898,3.0898,3.0898,3.0898,3.0898,3.0898,3.0898,3.0898,3.1055,3.1504,3.2285,3.3027,3.3262,3.291,3.291,3.2832,3.2676,3.3105,3.3301,1.3013,1.2612,1.2131,1.1837,1.1417,1.0915,1.0653,0.0,1.0766,1.1088,0.0,1.1739,1.2521,0.0,0.0,1.5204,1.6208,1.7184,1.8117,1.8687,1.9402,2.0479,2.0961,2.1181,2.1181,2.1181,2.1328,2.1668,2.1687,2.1888,2.2327,2.3078,2.3749,2.4257,2.4679,2.5231,2.5929,2.5947,2.6096,2.6518,2.6518,2.6536,2.6591,2.6591,2.6591,2.6591,2.6591,2.6591,2.6591,2.6591,2.6591,2.6591,2.6591,2.7068,2.7822,2.7822,2.8278,2.8975,2.8975,2.8975,2.8975,2.8975,2.8975,2.9048,2.9397,2.9562,2.9727,3.0094,3.0259,3.0332,3.0332,3.0497,3.0662,3.0662,3.1029,3.0992,2.9562,3.0369,3.1377,3.1377,3.1377,3.0919,2.9507,2.925,2.925,2.925,2.925,2.9729,3.0995,3.1016,3.0898,3.0898,3.0898,3.0898,3.0898,3.0898,3.0898,3.0898,3.0898,3.0898,3.0898,3.1621,3.2246,3.2715,3.3184,3.3398,3.3359,3.3359,3.2969,3.2307,3.2676,3.2871,1.3427,1.3013,1.2489,1.202,1.1557,1.1129,1.0693,1.0816,1.1098,1.135,0.0,0.0,0.0,0.0,0.0,0.0,1.6457,1.7171,1.7697,1.8119,1.8724,1.9696,2.0173,2.0521,2.0741,2.0558,2.0552,2.0955,2.1236,2.1548,2.1925,2.2712,2.3334,2.3785,2.3969,2.4445,2.5323,2.5271,2.5653,2.6278,2.6278,2.6353,2.6591,2.6591,2.6591,2.6591,2.6591,2.6591,2.6591,2.6591,2.6591,2.6591,2.6591,2.7068,2.7822,2.7822,2.8278,2.8975,2.8975,2.8975,2.8975,2.8975,2.8975,2.9012,2.9177,2.9397,2.9654,3.0075,3.0369,3.0589,3.0827,3.0791,3.0607,3.0204,3.0296,3.0185,2.9195,2.9507,2.9984,2.9984,2.9984,2.9782,2.9104,2.8975,2.8975,2.8975,2.8975,2.9468,3.0723,3.0898,3.0898,3.0898,3.0898,3.0898,3.0898,3.0898,3.0898,3.0898,3.0898,3.0996,3.125,3.1836,3.2363,3.2793,3.3203,3.3418,3.3418,3.3418,3.3242,3.2891,3.3066,3.3164,1.3866,1.3454,1.2864,1.2194,1.1703,1.1276,1.072,1.0943,1.1379,1.1734,1.2667,0.0,0.0,0.0,1.5842,1.6333,0.0,1.7206,1.7401,1.7623,1.8082,1.8889,1.9439,1.9875,2.0278,2.0058,2.0058,2.0484,2.0998,2.142,2.1668,2.2455,2.3041,2.3316,2.3334,2.3791,2.4776,2.4886,2.5396,2.6186,2.6186,2.6352,2.6591,2.6591,2.6591,2.6591,2.6591,2.6591,2.6591,2.6591,2.6591,2.6591,2.6591,2.7068,2.7822,2.7822,2.8278,2.8975,2.8975,2.8975,2.8975,2.8975,2.8975,2.8975,2.8975,2.9177,2.9489,2.991,3.0241,3.0552,3.0956,3.0754,3.0332,2.9837,2.9635,2.9452,2.9067,2.8975,2.8975,2.8975,2.8975,2.8975,2.8975,2.8975,2.8975,2.8975,2.9272,2.9882,3.0762,3.0898,3.0898,3.0898,3.0898,3.0898,3.0898,3.0898,3.0898,3.0898,3.0996,3.125,3.168,3.2109,3.2539,3.2969,3.3262,3.3418,3.3418,3.3418,3.3418,3.3418,3.3418,3.3418,1.4563,1.4026,1.336,1.2505,1.185,1.1276,1.072,1.0943,1.1455,1.1963,1.2931,1.4024,1.507,1.5757,0.0,0.0,0.0,0.0,0.0,1.7031,1.7257,1.8027,1.8852,1.9494,1.9875,1.9893,2.0058,2.0484,2.1211,2.1668,2.1687,2.2455,2.2913,2.2931,2.2931,2.3499,2.4776,2.5212,2.5766,2.6573,2.6573,2.6573,2.6591,2.6591,2.6591,2.6591,2.6591,2.6591,2.6591,2.6591,2.6591,2.6591,2.6591,2.7068,2.7822,2.7822,2.8278,2.8975,2.8975,2.8975,2.8975,2.8975,2.8975,2.8975,2.8975,2.8993,2.9085,2.9489,2.9599,2.9709,3.013,2.9929,2.9599,2.958,2.9287,2.9012,2.8993,2.8975,2.8975,2.8975,2.8975,2.8975,2.8975,2.8975,2.8975,2.8975,3.0058,3.082,3.0898,3.0898,3.0898,3.0898,3.0898,3.0898,3.0898,3.0898,3.0898,3.0898,3.1269,3.1699,3.219,3.2559,3.2969,3.3398,3.3418,3.3418,3.3418,3.3418,3.3418,3.3418,3.3418,3.3418,1.5124,1.4669,1.4013,1.332,1.2854,1.2398,1.1645,1.1929,1.2522,1.3114,1.4225,1.5471,1.6665,1.7197,0.0,0.0,0.0,0.0,0.0,1.7047,1.7,1.7293,1.7789,1.8375,1.9054,1.885,1.9017,1.9659,2.0466,2.1119,2.1668,2.2455,2.3023,2.3279,2.3297,2.3675,2.4404,2.4826,2.5433,2.6223,2.6223,2.6316,2.6591,2.6591,2.6591,2.6591,2.6591,2.6591,2.6591,2.6591,2.6591,2.6591,2.6591,2.7068,2.7822,2.7822,2.8278,2.8975,2.8975,2.8975,2.8975,2.8975,2.8975,2.8975,2.8975,2.8975,2.9122,2.98,2.9984,3.0149,3.0809,3.0479,2.9984,2.9984,2.947,2.8975,2.8975,2.8975,2.8975,2.8975,2.8975,2.8975,2.8975,2.8975,2.8975,2.8975,2.9705,3.0411,3.084,3.0898,3.0898,3.0898,3.0898,3.0898,3.0898,3.0898,3.0898,3.0898,3.1289,3.1719,3.2148,3.2578,3.2988,3.3418,3.3418,3.3418,3.3418,3.3418,3.3418,3.3418,3.3418,3.3418,1.5738,1.5351,1.4799,1.4255,1.3734,1.3186,1.2505,1.2753,1.3313,1.4007,1.5251,1.6684,1.8096,1.8325,0.0,0.0,0.0,0.0,0.0,1.6978,1.6908,1.6908,1.7257,1.7697,1.8229,1.8192,1.8356,1.9036,1.9842,2.0552,2.1229,2.2163,2.273,2.284,2.3133,2.348,2.3932,2.4354,2.5084,2.6021,2.6021,2.6241,2.6591,2.6591,2.6591,2.6591,2.6591,2.6591,2.6591,2.6591,2.6664,2.6793,2.6793,2.7288,2.8024,2.782,2.8278,2.8975,2.8975,2.8975,2.8975,2.8975,2.8975,2.8975,2.8975,2.8975,2.9159,2.9965,3.0204,3.0387,3.1176,3.0791,3.0204,3.0204,2.958,2.8975,2.8975,2.8975,2.8975,2.8975,2.8975,2.903,2.9177,2.9195,2.914,2.9012,2.9568,3.0157,3.0587,3.082,3.0937,3.1094,3.1113,3.1113,3.1113,3.1113,3.1055,3.0898,3.1426,3.1875,3.2209,3.2715,3.3144,3.3418,3.3418,3.3418,3.3418,3.3418,3.3418,3.3418,3.3418,3.3418]}]]